GFSMA_850_dewp_000.txt.gz
Dewpoint
10 10 12 11 10 10 10 9 8 3 -1 -3 -3 -3 -4 -6 -8 -10 -9 -6 -4 -1 1 5 6 6 6 8 10 10 10 10 9 8 8 7 8 8 7 7 8 8 8
11 12 11 11 10 9 9 4 -4 -5 -4 -4 -6 -9 -11 -11 -10 -9 -7 -4 -1 -0 -0 0 1 2 2 4 5 6 7 8 7 6 5 5 4 3 2 3 6 7 8
11 10 10 10 9 3 -6 -5 -7 -8 -9 -11 -13 -12 -11 -10 -10 -8 -5 -3 -2 -1 -1 -1 -2 -3 -3 -2 -1 1 2 2 2 1 2 1 1 1 3 2 3 4 5
11 10 10 7 -6 -6 -6 -7 -8 -10 -12 -12 -12 -13 -13 -13 -11 -8 -7 -7 -6 -5 -6 -8 -7 -7 -8 -9 -8 -7 -5 -4 -4 -3 -2 -2 -2 -2 -0 1 1 1 3
9 8 4 -6 -5 -4 -5 -7 -11 -12 -12 -12 -13 -14 -14 -14 -12 -6 -10 -15 -19 -18 -23 -17 -19 -24 -26 -28 -28 -28 -24 -22 -20 -7 -2 -1 -3 1 1 2 2 0 0
7 -7 -5 -4 -2 -4 -7 -11 -12 -12 -12 -13 -13 -14 -17 -17 -10 -6 -13 -12 -19 -19 -24 -19 -21 -28 -27 -29 -29 -29 -28 -28 -21 -0 -5 -1 2 3 3 4 3 4 4
-8 -4 -2 -1 -1 -3 -7 -11 -12 -12 -12 -12 -14 -16 -19 -18 -18 -21 -14 -9 -21 -19 -24 -26 -27 -28 -29 -29 -29 -27 -25 -25 -14 -1 -3 1 1 2 2 2 3 3 3
-4 -1 0 -0 -1 -2 -6 -10 -11 -11 -12 -15 -20 -20 -21 -21 -19 -17 -23 -22 -24 -24 -25 -26 -26 -28 -29 -30 -29 -27 -26 -27 -17 -7 0 1 2 1 1 1 2 2 2
-2 0 0 -0 -1 -2 -4 -8 -11 -12 -14 -21 -24 -20 -20 -19 -20 -20 -22 -22 -23 -23 -24 -24 -25 -26 -27 -28 -29 -29 -29 -27 -18 -3 -1 0 0 0 0 0 1 1 1
0 0 -0 -1 -1 -2 -4 -8 -11 -15 -22 -25 -22 -20 -19 -19 -20 -18 -20 -22 -22 -23 -23 -24 -25 -26 -27 -28 -28 -28 -24 -17 -6 -4 -3 -2 -1 -1 -1 -1 -0 -0 0
0 -0 -1 -1 -1 -2 -4 -8 -14 -21 -26 -23 -20 -20 -21 -23 -22 -17 -19 -21 -22 -22 -22 -23 -24 -24 -24 -25 -22 -14 -12 -7 -6 -5 -4 -3 -3 -2 -2 -1 -1 -1 -1
-0 -1 -2 -2 -2 -3 -6 -11 -19 -26 -25 -21 -19 -21 -23 -22 -21 -18 -16 -17 -16 -18 -22 -22 -22 -22 -21 -19 -15 -15 -12 -7 -7 -5 -5 -5 -4 -3 -3 -2 -3 -2 -2
-1 -2 -3 -2 -3 -4 -8 -16 -24 -26 -21 -19 -21 -22 -21 -20 -19 -18 -16 -17 -16 -19 -17 -17 -17 -17 -16 -14 -14 -12 -10 -8 -7 -7 -6 -5 -5 -4 -4 -4 -4 -3 -4
-2 -3 -3 -3 -4 -6 -12 -20 -25 -21 -18 -20 -21 -19 -19 -19 -18 -16 -15 -15 -15 -14 -15 -13 -13 -11 -11 -10 -9 -8 -9 -9 -8 -8 -7 -6 -6 -5 -5 -6 -6 -5 -4
-3 -3 -3 -3 -5 -9 -15 -22 -20 -17 -19 -19 -18 -18 -19 -18 -17 -17 -16 -15 -14 -11 -12 -11 -10 -11 -10 -9 -9 -9 -9 -9 -8 -8 -8 -7 -6 -7 -7 -7 -7 -7 -7
-3 -3 -3 -4 -8 -14 -20 -19 -17 -18 -18 -16 -17 -17 -18 -18 -17 -16 -15 -14 -13 -12 -9 -12 -11 -10 -10 -11 -12 -9 -9 -9 -9 -8 -7 -8 -9 -9 -9 -8 -8 -7 -7
-3 -3 -3 -6 -11 -17 -17 -16 -16 -16 -15 -14 -16 -17 -18 -17 -16 -14 -12 -11 -10 -11 -10 -12 -11 -11 -12 -13 -10 -10 -10 -8 -8 -9 -9 -10 -10 -9 -9 -8 -7 -6 -6
-3 -3 -5 -9 -15 -17 -15 -15 -14 -13 -13 -15 -17 -18 -18 -16 -15 -13 -10 -10 -9 -10 -9 -9 -10 -12 -13 -10 -10 -11 -10 -11 -11 -12 -10 -10 -10 -10 -9 -8 -7 -7 -6
-2 -4 -7 -13 -16 -16 -15 -13 -13 -13 -15 -17 -19 -19 -17 -17 -15 -12 -11 -10 -10 -8 -8 -9 -11 -11 -10 -9 -9 -10 -12 -12 -11 -11 -11 -11 -10 -9 -9 -8 -9 -8 -7
-4 -7 -12 -16 -16 -15 -14 -13 -13 -15 -18 -20 -20 -21 -20 -18 -16 -11 -10 -9 -10 -11 -11 -10 -10 -10 -8 -9 -11 -11 -11 -11 -10 -10 -10 -10 -10 -10 -10 -9 -9 -9 -9
-7 -11 -16 -17 -16 -15 -14 -14 -16 -19 -20 -19 -20 -19 -17 -16 -14 -10 -9 -10 -10 -9 -8 -7 -8 -9 -10 -11 -12 -12 -10 -10 -10 -10 -11 -11 -11 -10 -11 -11 -11 -10 -9
-11 -15 -17 -18 -17 -16 -14 -15 -20 -19 -18 -18 -17 -14 -14 -13 -13 -11 -12 -10 -8 -8 -9 -10 -9 -10 -11 -12 -12 -10 -10 -10 -11 -10 -10 -11 -10 -11 -12 -13 -12 -10 -9
-14 -17 -19 -19 -18 -14 -15 -20 -24 -19 -16 -15 -13 -12 -12 -11 -13 -12 -11 -10 -8 -10 -10 -11 -12 -12 -10 -10 -10 -10 -10 -10 -10 -11 -11 -11 -12 -12 -13 -13 -12 -10 -9
-15 -20 -22 -20 -16 -15 -19 -24 -25 -20 -13 -12 -11 -11 -10 -12 -11 -9 -8 -8 -11 -12 -13 -13 -11 -10 -10 -10 -10 -10 -11 -11 -11 -12 -11 -11 -12 -12 -12 -12 -12 -10 -9
-21 -26 -22 -16 -15 -19 -24 -26 -24 -13 -11 -10 -11 -10 -11 -10 -10 -9 -9 -9 -10 -13 -13 -11 -10 -11 -12 -12 -11 -11 -11 -11 -11 -12 -12 -11 -12 -11 -12 -12 -12 -11 -10
-28 -23 -16 -15 -21 -24 -26 -23 -14 -9 -9 -10 -9 -10 -11 -10 -9 -9 -10 -10 -11 -13 -10 -10 -13 -13 -14 -13 -12 -11 -11 -12 -12 -12 -12 -11 -11 -11 -11 -11 -12 -12 -11

GFSMA_850_dewp_003.txt.gz
Dewpoint
10 11 11 10 10 10 9 9 7 0 -5 -6 -6 -7 -8 -10 -11 -12 -11 -9 -6 -3 -1 3 4 4 7 8 9 9 9 10 10 9 9 8 7 7 8 7 7 7 7
11 11 11 10 10 9 8 0 -6 -7 -7 -9 -10 -11 -12 -12 -11 -10 -8 -6 -3 -1 -1 -0 0 0 2 3 5 6 6 7 7 7 6 6 5 5 4 3 2 1 1
11 11 10 10 9 4 -6 -6 -6 -8 -9 -11 -12 -12 -12 -12 -12 -10 -7 -5 -4 -2 -2 -1 -1 -2 -2 -3 -2 -0 1 2 2 3 3 3 2 2 1 1 0 0 1
11 10 10 9 -1 -5 -5 -6 -8 -12 -14 -14 -14 -13 -14 -14 -14 -10 -9 -13 -13 -12 -13 -15 -13 -12 -14 -15 -16 -15 -13 -8 -6 -5 -5 -4 -4 -4 -3 -2 -2 -2 -0
10 9 8 -3 -5 -4 -5 -8 -13 -15 -14 -14 -14 -14 -16 -16 -14 -9 -7 -10 -14 -19 -19 -22 -21 -18 -23 -28 -28 -29 -29 -25 -23 -21 -10 -1 -6 -6 -2 1 2 1 1
9 6 -7 -5 -2 -2 -4 -8 -11 -13 -13 -14 -15 -18 -19 -19 -15 -8 -6 -15 -15 -12 -19 -21 -23 -26 -26 -27 -29 -29 -29 -29 -25 -18 1 1 -0 2 3 3 4 4 4
7 -9 -4 -1 -0 -1 -1 -4 -7 -11 -13 -16 -19 -22 -22 -20 -18 -16 -13 -18 -24 -21 -25 -24 -23 -23 -23 -25 -26 -27 -28 -29 -28 -22 1 1 2 2 2 3 3 3 3
-8 -4 -0 0 0 -0 -1 -2 -4 -9 -14 -19 -23 -22 -22 -22 -18 -21 -22 -22 -22 -21 -20 -21 -22 -22 -23 -23 -24 -26 -27 -28 -29 -16 -2 -0 1 1 2 2 2 2 2
-5 -1 0 -0 -0 -1 -1 -1 -3 -9 -17 -24 -24 -22 -19 -17 -21 -21 -19 -19 -18 -19 -19 -19 -20 -21 -22 -23 -23 -24 -25 -27 -26 -8 -2 -1 -0 0 0 0 1 1 1
-2 0 -0 -1 -1 -1 -1 -2 -5 -12 -22 -25 -23 -21 -20 -22 -19 -15 -18 -18 -19 -18 -18 -19 -20 -21 -21 -22 -22 -22 -23 -22 -7 -4 -2 -2 -1 -1 -1 -1 -1 -0 -0
-1 -0 -1 -1 -1 -1 -2 -3 -8 -16 -24 -24 -20 -19 -21 -21 -20 -18 -16 -17 -16 -16 -17 -19 -19 -21 -22 -21 -21 -19 -17 -9 -7 -4 -3 -3 -2 -2 -2 -2 -1 -1 -1
-1 -1 -1 -2 -2 -2 -2 -4 -10 -19 -24 -20 -19 -20 -20 -19 -19 -18 -13 -13 -12 -14 -17 -18 -21 -21 -21 -18 -17 -17 -12 -7 -6 -5 -4 -4 -4 -3 -2 -1 -1 -0 -0
-1 -1 -2 -2 -2 -2 -3 -6 -13 -20 -20 -18 -19 -19 -18 -18 -18 -17 -16 -14 -12 -13 -13 -13 -13 -15 -13 -13 -11 -9 -8 -7 -7 -7 -6 -5 -5 -4 -4 -3 -3 -2 -2
-2 -2 -3 -2 -2 -3 -5 -9 -15 -18 -17 -18 -18 -16 -16 -17 -17 -17 -16 -14 -13 -13 -14 -13 -11 -10 -11 -9 -8 -8 -9 -8 -9 -8 -8 -7 -7 -7 -7 -4 -4 -4 -4
-3 -3 -3 -3 -3 -4 -7 -11 -15 -16 -17 -16 -15 -14 -14 -16 -17 -17 -17 -17 -13 -11 -12 -13 -11 -10 -9 -9 -9 -9 -9 -9 -9 -9 -10 -10 -8 -6 -6 -6 -8 -7 -7
-3 -3 -3 -3 -4 -6 -9 -13 -15 -16 -15 -13 -13 -14 -15 -17 -18 -18 -17 -15 -13 -10 -9 -12 -11 -9 -9 -9 -9 -10 -10 -9 -10 -9 -9 -8 -8 -8 -8 -8 -8 -8 -7
-3 -4 -3 -4 -5 -8 -12 -15 -15 -14 -12 -12 -14 -16 -18 -21 -22 -21 -17 -14 -11 -10 -9 -11 -9 -10 -9 -9 -10 -9 -8 -9 -9 -9 -9 -9 -8 -8 -8 -7 -7 -7 -7
-4 -3 -3 -5 -8 -11 -14 -15 -14 -13 -13 -14 -16 -20 -25 -27 -26 -21 -18 -15 -12 -11 -10 -9 -10 -10 -10 -8 -8 -7 -8 -9 -10 -10 -10 -9 -9 -9 -9 -8 -8 -7 -7
-4 -3 -5 -8 -10 -13 -15 -14 -14 -14 -14 -16 -21 -26 -27 -24 -20 -18 -17 -13 -10 -9 -9 -9 -10 -10 -8 -8 -8 -9 -11 -12 -12 -11 -10 -10 -9 -9 -8 -8 -8 -8 -7
-4 -5 -7 -9 -11 -14 -16 -16 -15 -15 -16 -21 -26 -25 -21 -17 -16 -14 -10 -9 -9 -9 -9 -9 -8 -8 -9 -10 -11 -12 -12 -11 -10 -10 -10 -9 -9 -9 -9 -9 -9 -8 -8
-5 -7 -9 -10 -14 -18 -19 -18 -15 -17 -21 -27 -25 -21 -17 -14 -13 -9 -9 -9 -9 -9 -8 -7 -9 -9 -10 -11 -11 -11 -10 -10 -10 -10 -11 -10 -11 -10 -11 -10 -9 -9 -9
-7 -9 -10 -14 -19 -23 -21 -15 -17 -23 -27 -24 -20 -18 -14 -12 -10 -10 -10 -9 -8 -8 -9 -9 -9 -10 -12 -11 -10 -10 -10 -10 -10 -10 -10 -11 -11 -11 -11 -11 -10 -9 -9
-7 -9 -13 -20 -28 -22 -15 -17 -23 -27 -25 -21 -17 -13 -11 -10 -12 -11 -11 -9 -8 -9 -11 -11 -11 -11 -10 -10 -10 -11 -10 -10 -10 -11 -10 -10 -12 -11 -11 -12 -10 -10 -9
-9 -13 -21 -30 -22 -15 -18 -24 -27 -27 -24 -16 -12 -11 -10 -11 -10 -10 -8 -8 -11 -12 -12 -12 -10 -10 -10 -10 -10 -10 -11 -11 -11 -12 -10 -11 -12 -11 -11 -12 -12 -10 -9
-13 -22 -29 -19 -16 -19 -26 -27 -27 -23 -15 -12 -12 -10 -10 -9 -9 -9 -9 -10 -10 -12 -13 -10 -10 -11 -13 -13 -12 -11 -11 -11 -11 -11 -11 -11 -11 -11 -11 -12 -11 -10 -9
-23 -24 -17 -17 -23 -28 -27 -27 -23 -13 -10 -10 -9 -9 -10 -10 -10 -9 -10 -10 -11 -13 -10 -10 -13 -13 -13 -13 -12 -11 -11 -11 -12 -12 -12 -11 -11 -10 -11 -11 -11 -10 -8

GFSMA_850_dewp_006.txt.gz
Dewpoint
10 9 10 9 10 9 9 9 5 -5 -6 -7 -8 -10 -11 -12 -11 -11 -3 -8 -6 -3 -1 1 3 3 4 6 7 8 8 8 9 9 9 9 8 7 7 7 8 8 7
10 11 10 10 10 10 8 -2 -6 -6 -8 -9 -11 -13 -13 -12 -12 -11 -7 -7 -5 -3 -2 -1 -1 -1 -1 -0 2 3 4 5 5 6 6 6 5 5 5 5 4 4 3
10 10 10 10 10 8 -5 -5 -6 -9 -13 -16 -15 -14 -13 -13 -13 -12 -9 -7 -5 -5 -5 -5 -5 -5 -4 -4 -4 -4 -4 -3 -1 0 1 2 2 3 2 2 2 1 1
10 10 10 9 9 -5 -5 -5 -8 -13 -15 -15 -14 -13 -14 -15 -14 -11 -10 -12 -15 -17 -18 -20 -22 -22 -20 -20 -23 -27 -28 -28 -26 -24 -22 -16 -6 -0 -10 -11 -9 -7 -6
10 10 9 8 -5 -4 -3 -5 -7 -10 -13 -16 -16 -17 -17 -16 -11 -10 -8 -8 -8 -13 -13 -17 -21 -24 -25 -25 -26 -27 -28 -29 -30 -30 -28 -26 -2 -10 -9 -5 1 1 2
10 9 8 -6 -3 -1 -1 -2 -3 -6 -11 -17 -20 -20 -19 -18 -14 -9 -6 -14 -17 -22 -18 -20 -22 -21 -21 -22 -23 -23 -24 -25 -26 -26 -24 -23 3 3 2 3 3 4 4
9 7 -7 -3 0 -0 -1 -1 -2 -5 -10 -18 -20 -15 -14 -21 -16 -9 -17 -20 -20 -22 -19 -19 -19 -20 -21 -21 -22 -22 -23 -23 -24 -24 -20 -13 1 2 2 2 3 3 3
7 -5 -3 0 0 -0 -0 -0 -1 -5 -11 -19 -21 -14 -12 -12 -12 -15 -15 -19 -19 -17 -18 -18 -18 -19 -20 -21 -22 -22 -22 -23 -23 -23 -15 -2 -0 1 1 2 2 2 2
-1 -5 -1 -0 -0 -0 -0 -0 -1 -4 -13 -19 -21 -18 -14 -13 -14 -14 -15 -17 -15 -16 -16 -16 -18 -19 -20 -22 -22 -23 -23 -23 -22 -13 -2 -1 0 0 0 1 1 1 1
-5 -2 -0 -0 -0 -0 -0 -0 -2 -5 -13 -20 -17 -19 -19 -19 -14 -13 -12 -13 -13 -12 -12 -13 -16 -20 -20 -22 -25 -26 -26 -24 -21 -11 -4 -2 -1 -0 -0 -0 0 1 1
-3 -1 -0 -1 -1 -1 -1 -1 -2 -7 -13 -18 -18 -18 -18 -15 -12 -11 -12 -12 -11 -11 -11 -12 -14 -13 -13 -12 -11 -10 -13 -12 -6 -4 -4 -3 -2 -2 -2 -1 -1 -0 1
-2 -1 -1 -1 -1 -1 -1 -2 -3 -7 -14 -17 -17 -17 -17 -14 -13 -12 -12 -11 -11 -11 -12 -13 -13 -13 -13 -11 -10 -11 -9 -7 -6 -5 -5 -4 -4 -3 -3 -2 -2 -1 -1
-2 -1 -1 -2 -2 -2 -2 -2 -5 -9 -14 -16 -17 -16 -15 -14 -14 -12 -11 -11 -11 -12 -14 -13 -13 -14 -12 -10 -11 -9 -8 -7 -7 -7 -6 -5 -5 -5 -4 -4 -5 -4 -4
-2 -2 -2 -3 -2 -2 -3 -4 -6 -10 -14 -16 -16 -14 -13 -13 -13 -13 -11 -11 -12 -14 -15 -16 -14 -13 -12 -11 -9 -9 -9 -9 -9 -8 -7 -7 -7 -7 -7 -7 -6 -5 -4
-3 -2 -3 -3 -3 -3 -4 -5 -8 -12 -15 -15 -13 -12 -13 -14 -15 -15 -12 -11 -11 -12 -14 -14 -13 -12 -11 -10 -10 -9 -9 -10 -9 -8 -8 -7 -7 -7 -7 -7 -7 -6 -6
-4 -3 -4 -4 -3 -4 -5 -7 -10 -13 -14 -13 -13 -13 -14 -16 -17 -16 -12 -11 -10 -11 -11 -12 -12 -12 -11 -10 -10 -10 -9 -8 -8 -8 -8 -8 -8 -7 -7 -8 -7 -7 -7
-5 -4 -4 -4 -4 -5 -6 -9 -12 -14 -14 -14 -14 -15 -16 -20 -20 -13 -12 -11 -11 -11 -11 -12 -11 -10 -10 -10 -10 -9 -9 -8 -9 -10 -10 -10 -9 -8 -7 -7 -7 -7 -7
-5 -5 -5 -4 -5 -6 -8 -10 -13 -15 -16 -16 -15 -17 -20 -20 -20 -14 -12 -12 -11 -10 -10 -10 -10 -10 -10 -9 -8 -9 -9 -11 -12 -12 -11 -9 -8 -8 -8 -8 -7 -7 -7
-6 -5 -5 -5 -6 -7 -9 -13 -16 -18 -18 -15 -16 -20 -22 -21 -16 -13 -12 -11 -10 -10 -10 -9 -10 -10 -8 -8 -8 -10 -11 -12 -11 -11 -10 -10 -9 -8 -8 -8 -8 -8 -7
-6 -5 -5 -6 -7 -9 -13 -17 -21 -19 -15 -16 -20 -19 -18 -16 -11 -10 -10 -9 -10 -9 -10 -10 -9 -7 -7 -9 -11 -12 -12 -11 -10 -10 -10 -9 -9 -9 -9 -9 -8 -8 -8
-5 -6 -6 -6 -8 -12 -18 -24 -18 -15 -16 -17 -17 -13 -12 -11 -14 -9 -8 -9 -9 -9 -9 -8 -7 -8 -10 -11 -12 -11 -10 -10 -10 -10 -10 -10 -11 -11 -10 -9 -9 -9 -9
-6 -6 -6 -8 -12 -19 -27 -20 -16 -19 -16 -12 -12 -13 -11 -9 -9 -9 -9 -9 -9 -9 -8 -8 -9 -10 -12 -12 -11 -10 -9 -9 -10 -10 -10 -11 -10 -10 -10 -10 -10 -9 -8
-6 -6 -8 -12 -21 -27 -18 -16 -21 -26 -14 -14 -13 -10 -10 -10 -9 -10 -9 -9 -9 -8 -9 -9 -10 -12 -11 -10 -10 -10 -10 -10 -10 -11 -9 -10 -10 -10 -10 -11 -9 -9 -8
-6 -9 -13 -24 -22 -16 -18 -23 -28 -25 -16 -11 -10 -10 -10 -10 -10 -9 -9 -9 -9 -10 -11 -11 -11 -10 -10 -10 -10 -10 -10 -10 -10 -10 -10 -10 -11 -10 -10 -11 -11 -11 -8
-10 -16 -24 -18 -16 -21 -26 -29 -28 -21 -11 -10 -10 -10 -10 -9 -9 -9 -9 -10 -11 -11 -11 -10 -9 -9 -10 -10 -10 -10 -11 -10 -10 -10 -10 -10 -10 -10 -11 -11 -10 -10 -9
-18 -20 -16 -18 -24 -29 -29 -27 -26 -12 -10 -10 -11 -10 -10 -9 -10 -9 -9 -10 -11 -11 -10 -10 -10 -11 -11 -11 -10 -10 -10 -11 -11 -11 -11 -10 -11 -10 -10 -10 -10 -10 -9

GFSMA_850_dewp_009.txt.gz
Dewpoint
10 11 10 9 8 9 9 9 5 -5 -6 -8 -10 -11 -11 -11 -8 -6 -3 -6 -7 -4 -2 -1 1 2 2 3 5 5 6 6 6 7 7 8 8 8 8 7 7 7 7
11 9 9 10 9 9 9 3 -5 -7 -8 -13 -14 -11 -11 -9 -11 -8 -3 -6 -6 -5 -4 -3 -2 -2 -2 -2 -2 -2 -1 -1 0 2 3 4 4 4 4 4 5 5 4
11 10 10 10 9 9 4 -5 -6 -7 -11 -15 -13 -11 -12 -12 -9 -8 -5 -5 -6 -8 -7 -8 -10 -12 -14 -15 -15 -15 -16 -17 -17 -13 -11 -9 -8 -5 -3 -1 -1 0 0
9 10 10 9 9 7 -5 -4 -4 -6 -9 -14 -16 -15 -11 -11 -8 -8 -8 -8 -9 -12 -13 -16 -20 -20 -22 -24 -26 -26 -26 -26 -26 -28 -30 -30 -30 -26 -8 -21 -24 -24 -21
10 10 9 9 9 -5 -2 -2 -3 -4 -8 -13 -19 -18 -16 -11 -7 -9 -8 -8 -7 -11 -21 -18 -16 -17 -19 -21 -21 -21 -22 -22 -23 -24 -24 -25 -27 -26 4 3 -2 -7 -0
11 10 10 9 -4 -2 -1 -1 -1 -3 -7 -14 -21 -15 -14 -12 -7 -6 -5 -11 -11 -16 -19 -18 -18 -18 -19 -19 -20 -21 -22 -23 -23 -23 -22 -21 -19 -19 2 3 3 4 4
11 10 9 -1 -2 -0 -0 -0 -1 -2 -7 -14 -18 -15 -9 -14 -7 -3 -13 -11 -11 -13 -14 -15 -17 -17 -18 -20 -21 -22 -23 -23 -23 -23 -21 -16 -11 -5 1 2 2 3 3
10 9 4 -5 -0 -0 0 0 0 -3 -6 -12 -18 -11 -10 -10 -10 -11 -13 -12 -13 -14 -13 -15 -15 -17 -18 -20 -21 -24 -25 -27 -28 -25 -15 -2 1 1 1 2 2 2 2
9 6 -5 -1 -0 -0 0 0 0 -2 -7 -12 -16 -17 -11 -10 -13 -12 -12 -12 -11 -12 -13 -13 -14 -15 -18 -18 -20 -21 -20 -27 -29 -27 -17 -3 -1 -0 0 1 1 1 2
5 0 -3 -0 -0 -0 0 0 -0 -1 -6 -12 -13 -16 -17 -16 -11 -11 -11 -11 -11 -12 -11 -12 -14 -18 -19 -17 -18 -19 -16 -23 -28 -24 -5 -2 -1 -1 -0 -0 0 0 0
4 -2 -1 -1 -1 -1 -0 -0 -0 -2 -5 -11 -14 -16 -16 -13 -11 -10 -10 -11 -11 -10 -10 -11 -11 -12 -12 -12 -13 -10 -9 -9 -7 -4 -4 -3 -2 -2 -2 -2 -2 -1 -1
-1 -2 -1 -1 -1 -1 -1 -0 -1 -2 -5 -10 -14 -15 -15 -14 -12 -10 -10 -11 -10 -11 -11 -13 -13 -14 -13 -13 -12 -10 -11 -7 -6 -5 -4 -4 -3 -3 -3 -3 -2 -2 -1
-1 -2 -1 -1 -2 -1 -1 -1 -1 -2 -6 -11 -14 -15 -15 -13 -12 -11 -10 -10 -10 -12 -12 -13 -15 -14 -15 -13 -11 -11 -9 -8 -7 -6 -6 -5 -5 -5 -5 -5 -5 -5 -4
-1 -2 -1 -2 -2 -2 -2 -2 -2 -3 -7 -11 -14 -14 -13 -12 -12 -11 -11 -10 -10 -11 -12 -13 -15 -14 -13 -12 -11 -10 -10 -9 -8 -7 -7 -6 -6 -6 -6 -5 -6 -5 -5
-1 -2 -2 -3 -2 -2 -2 -3 -3 -5 -9 -12 -13 -13 -13 -13 -13 -13 -13 -11 -10 -10 -10 -12 -13 -12 -13 -12 -11 -10 -10 -10 -9 -8 -7 -7 -7 -7 -7 -7 -7 -6 -6
-3 -2 -3 -3 -3 -3 -3 -3 -5 -7 -10 -13 -13 -15 -15 -14 -14 -14 -13 -11 -11 -11 -10 -11 -11 -11 -11 -10 -10 -10 -10 -8 -8 -8 -8 -8 -8 -8 -8 -8 -7 -6 -6
-3 -4 -4 -4 -3 -3 -4 -5 -6 -9 -12 -14 -15 -16 -16 -15 -15 -15 -14 -13 -12 -11 -11 -11 -10 -10 -10 -10 -10 -9 -8 -11 -10 -10 -10 -10 -9 -8 -8 -7 -7 -6 -6
-4 -5 -5 -4 -4 -4 -5 -6 -9 -12 -15 -17 -18 -15 -14 -13 -15 -15 -13 -12 -12 -11 -10 -9 -9 -9 -9 -10 -8 -7 -8 -10 -10 -12 -10 -9 -8 -8 -8 -8 -7 -7 -7
-6 -6 -5 -4 -4 -4 -5 -7 -11 -16 -19 -19 -15 -12 -13 -14 -14 -13 -12 -11 -10 -9 -9 -9 -9 -10 -9 -8 -8 -9 -11 -11 -12 -11 -10 -9 -9 -8 -8 -8 -8 -8 -7
-6 -6 -5 -4 -4 -5 -6 -10 -16 -23 -19 -13 -12 -11 -12 -12 -12 -11 -11 -9 -9 -9 -9 -9 -10 -10 -7 -8 -10 -11 -11 -11 -10 -10 -11 -9 -9 -9 -9 -9 -8 -8 -8
-6 -5 -4 -5 -5 -6 -9 -16 -25 -19 -15 -12 -13 -13 -12 -11 -11 -9 -8 -8 -8 -9 -10 -10 -8 -7 -9 -10 -11 -11 -10 -10 -11 -9 -12 -10 -10 -11 -11 -9 -9 -8 -8
-5 -5 -5 -4 -6 -10 -15 -25 -17 -17 -21 -19 -14 -14 -12 -11 -10 -9 -9 -9 -9 -9 -8 -8 -8 -9 -9 -11 -11 -9 -10 -9 -9 -11 -10 -11 -10 -10 -10 -10 -9 -8 -8
-5 -5 -4 -7 -11 -20 -21 -16 -19 -26 -27 -17 -14 -11 -10 -10 -10 -9 -9 -9 -10 -8 -8 -9 -9 -10 -11 -11 -11 -10 -9 -10 -10 -12 -11 -10 -10 -10 -11 -11 -9 -8 -8
-5 -5 -7 -12 -21 -16 -16 -22 -28 -28 -23 -13 -11 -10 -10 -10 -10 -9 -10 -8 -10 -11 -11 -11 -10 -10 -10 -9 -8 -9 -10 -11 -11 -11 -9 -9 -11 -11 -10 -11 -12 -11 -10
-5 -8 -16 -18 -15 -19 -24 -28 -27 -26 -15 -12 -11 -11 -10 -10 -9 -9 -8 -9 -10 -11 -11 -11 -10 -9 -9 -9 -9 -10 -11 -10 -10 -10 -11 -10 -10 -10 -11 -11 -12 -10 -9
-10 -17 -15 -16 -21 -27 -26 -26 -26 -22 -14 -11 -11 -10 -10 -10 -9 -9 -9 -9 -10 -11 -11 -11 -11 -11 -11 -11 -10 -10 -10 -10 -10 -10 -11 -10 -10 -10 -10 -11 -11 -11 -11

GFSMA_850_dewp_012.txt.gz
Dewpoint
5 10 11 11 9 8 8 9 7 -4 -7 -8 -12 -15 -15 -14 -11 -7 -7 -5 -8 -7 -5 -4 -2 -1 -1 -0 -0 -0 -0 1 1 2 2 3 4 5 5 6 7 7 6
10 12 11 8 8 9 9 8 -3 -6 -6 -10 -15 -15 -14 -13 -11 -9 -5 -7 -8 -7 -6 -5 -4 -5 -5 -6 -7 -9 -11 -11 -10 -9 -7 -5 -3 -1 1 1 2 3 4
11 11 9 10 10 9 8 -3 -4 -4 -6 -10 -15 -16 -13 -13 -12 -9 -6 -7 -9 -10 -10 -13 -17 -19 -21 -22 -23 -24 -25 -26 -26 -26 -26 -27 -29 -29 -27 -24 -20 -16 -10
11 11 10 10 10 9 1 -4 -3 -4 -6 -10 -15 -19 -17 -15 -11 -9 -9 -8 -9 -10 -9 -13 -18 -16 -16 -16 -17 -19 -21 -21 -21 -22 -22 -23 -24 -26 -26 -20 -7 -18 -22
11 9 10 9 9 7 -4 -2 -2 -2 -5 -10 -17 -21 -18 -15 -8 -8 -8 -8 -10 -11 -16 -18 -21 -19 -19 -19 -19 -19 -20 -21 -22 -22 -22 -22 -22 -21 -20 -16 4 4 3
10 10 10 9 9 -4 -1 -1 -1 -2 -5 -11 -18 -18 -15 -15 -9 -10 -6 -7 -12 -13 -15 -17 -17 -17 -17 -17 -18 -20 -21 -22 -22 -22 -21 -11 -5 -7 -13 -10 3 4 3
10 10 10 9 6 -2 -1 -0 -0 -1 -4 -11 -18 -16 -10 -11 -12 -5 -4 -12 -12 -14 -14 -16 -16 -15 -16 -17 -19 -21 -22 -24 -23 -23 -19 -16 -3 0 1 2 3 3 3
10 10 9 8 -4 -1 -0 0 0 -0 -2 -9 -17 -15 -11 -10 -9 -12 -13 -11 -13 -13 -12 -14 -14 -15 -16 -17 -19 -22 -24 -24 -26 -27 -18 -6 -1 -0 1 1 1 2 2
11 11 9 2 -3 -0 0 1 1 0 -1 -6 -13 -17 -15 -11 -11 -13 -12 -12 -12 -12 -12 -13 -13 -14 -15 -17 -19 -19 -20 -18 -23 -14 -5 -3 -2 -1 -0 0 1 1 1
11 10 7 -3 -1 -0 0 0 0 0 -1 -4 -9 -14 -15 -16 -16 -15 -13 -12 -13 -12 -12 -13 -14 -15 -16 -18 -17 -19 -18 -14 -14 -12 -4 -2 -1 -1 -1 -0 -0 -0 -0
10 8 2 -2 -1 -0 -0 -0 0 0 -1 -3 -9 -13 -15 -15 -14 -11 -11 -12 -13 -14 -14 -13 -14 -14 -15 -15 -15 -16 -16 -18 -15 -7 -4 -3 -2 -2 -2 -2 -1 -1 -0
9 4 -0 -1 -1 -1 -1 -0 -0 -0 -1 -3 -8 -12 -13 -14 -14 -12 -11 -13 -13 -14 -14 -15 -16 -14 -14 -14 -14 -14 -13 -10 -7 -5 -5 -4 -4 -3 -3 -3 -3 -3 -2
7 4 -1 -1 -1 -1 -1 -1 -1 -1 -1 -3 -7 -11 -13 -13 -13 -12 -12 -12 -12 -14 -15 -16 -16 -17 -15 -15 -14 -13 -12 -10 -8 -7 -6 -5 -4 -5 -5 -5 -4 -3 -3
8 3 1 -1 -1 -1 -1 -1 -1 -1 -2 -4 -8 -11 -13 -13 -13 -13 -13 -11 -11 -12 -15 -14 -17 -17 -13 -13 -12 -13 -14 -11 -9 -8 -7 -6 -6 -6 -6 -6 -6 -5 -5
6 4 -1 -2 -2 -2 -2 -2 -2 -2 -3 -5 -9 -12 -14 -15 -15 -14 -13 -12 -12 -10 -11 -13 -12 -14 -16 -17 -15 -13 -11 -10 -9 -7 -7 -7 -7 -7 -7 -7 -7 -7 -6
5 -1 -2 -2 -2 -3 -3 -2 -2 -3 -4 -7 -11 -13 -16 -18 -16 -14 -14 -15 -15 -13 -11 -13 -13 -12 -11 -10 -10 -10 -10 -9 -9 -7 -8 -8 -8 -8 -8 -7 -7 -6 -5
-0 -2 -3 -3 -3 -3 -3 -2 -3 -3 -5 -10 -13 -17 -20 -16 -14 -14 -16 -18 -16 -13 -12 -12 -11 -9 -9 -9 -11 -11 -9 -8 -10 -10 -9 -8 -9 -8 -7 -7 -7 -7 -6
-2 -3 -4 -4 -4 -3 -3 -3 -3 -5 -8 -13 -18 -20 -16 -13 -14 -16 -17 -14 -12 -12 -10 -9 -9 -9 -9 -12 -11 -8 -8 -11 -11 -11 -10 -9 -8 -8 -8 -7 -7 -6 -6
-4 -5 -5 -5 -4 -4 -3 -4 -4 -8 -14 -21 -20 -15 -13 -13 -16 -16 -14 -13 -12 -12 -9 -9 -9 -11 -11 -10 -8 -10 -11 -11 -11 -11 -10 -10 -9 -8 -8 -8 -7 -7 -7
-5 -6 -6 -5 -4 -4 -4 -4 -8 -13 -23 -20 -15 -14 -15 -14 -12 -11 -11 -11 -9 -8 -8 -9 -10 -10 -9 -8 -11 -10 -11 -11 -12 -12 -12 -13 -10 -13 -9 -9 -9 -8 -7
-7 -6 -5 -4 -4 -3 -4 -8 -15 -23 -17 -16 -19 -21 -16 -12 -12 -10 -8 -8 -8 -8 -9 -8 -9 -8 -9 -10 -9 -10 -11 -12 -11 -11 -10 -14 -12 -13 -12 -12 -12 -11 -8
-6 -5 -4 -4 -3 -3 -9 -17 -18 -16 -19 -25 -27 -20 -16 -15 -13 -9 -9 -8 -9 -8 -9 -8 -8 -10 -9 -10 -10 -11 -11 -9 -9 -10 -10 -13 -12 -12 -12 -11 -11 -8 -8
-4 -4 -4 -3 -5 -10 -18 -16 -17 -22 -27 -26 -22 -15 -13 -11 -11 -10 -10 -9 -10 -10 -9 -9 -9 -10 -10 -10 -10 -10 -8 -9 -10 -12 -11 -12 -11 -11 -11 -11 -12 -10 -8
-4 -3 -3 -6 -12 -17 -15 -18 -24 -27 -26 -25 -19 -14 -11 -11 -10 -9 -9 -9 -8 -9 -11 -10 -10 -10 -10 -9 -8 -9 -9 -9 -11 -12 -10 -10 -11 -11 -11 -11 -12 -12 -11
-3 -3 -5 -15 -15 -16 -21 -25 -25 -25 -26 -25 -15 -11 -11 -10 -10 -9 -8 -9 -9 -10 -11 -12 -10 -9 -9 -9 -9 -10 -10 -10 -10 -11 -11 -10 -11 -11 -11 -12 -12 -11 -11
-3 -11 -15 -15 -18 -23 -23 -20 -21 -24 -26 -21 -18 -14 -12 -9 -9 -9 -9 -8 -9 -11 -11 -10 -11 -12 -12 -12 -12 -11 -10 -10 -11 -11 -11 -10 -11 -11 -10 -11 -11 -12 -12

GFSMA_850_dewp_015.txt.gz
Dewpoint
6 8 10 11 10 9 7 8 8 -1 -6 -6 -10 -14 -17 -15 -14 -10 -8 -7 -7 -6 -5 -4 -4 -3 -3 -3 -4 -4 -5 -5 -6 -6 -5 -3 -2 -0 2 3 4 6 6
5 9 11 11 10 7 8 9 4 -5 -4 -7 -11 -15 -17 -15 -13 -11 -9 -7 -8 -8 -7 -7 -7 -9 -13 -16 -19 -22 -23 -24 -24 -25 -25 -25 -25 -23 -17 -11 -6 -2 1
7 9 11 11 8 9 9 8 -4 -3 -5 -7 -12 -16 -18 -16 -12 -11 -9 -8 -9 -10 -12 -13 -13 -16 -17 -17 -17 -17 -17 -18 -20 -21 -21 -21 -22 -24 -25 -26 -25 -13 -20
10 10 10 9 9 9 9 -1 -3 -3 -4 -7 -13 -19 -20 -18 -12 -9 -9 -9 -10 -10 -10 -13 -21 -21 -22 -20 -19 -18 -18 -19 -19 -20 -21 -21 -21 -21 -20 -19 -19 -12 4
11 11 11 9 10 9 7 -3 -2 -2 -4 -8 -15 -20 -18 -17 -11 -9 -10 -8 -10 -12 -15 -17 -18 -18 -17 -17 -17 -17 -18 -19 -18 -19 -18 -16 -17 -16 -12 -4 -3 -2 4
11 11 11 10 9 9 2 -2 -1 -1 -3 -9 -18 -19 -15 -15 -11 -9 -9 -6 -9 -14 -15 -16 -16 -16 -15 -15 -16 -18 -19 -17 -10 -17 -13 -9 -4 -2 -2 -1 1 3 3
11 11 9 10 9 9 -3 -1 -0 -1 -3 -8 -18 -16 -12 -12 -11 -8 -5 -8 -12 -12 -14 -13 -13 -14 -14 -15 -16 -18 -21 -21 -13 -18 -14 -5 -1 0 1 1 2 2 2
11 11 10 10 9 6 -2 -0 -0 -0 -1 -4 -12 -16 -14 -11 -10 -10 -8 -10 -12 -12 -12 -13 -13 -14 -14 -15 -16 -19 -20 -22 -19 -17 -4 -2 -2 -1 0 1 1 1 1
12 11 10 9 7 -1 -1 0 0 0 -0 -2 -6 -12 -15 -13 -13 -14 -13 -12 -12 -12 -12 -12 -14 -14 -15 -16 -17 -19 -18 -18 -14 -4 -2 -1 -1 -1 -0 -0 0 0 1
12 11 10 9 4 -3 -1 0 0 0 0 -0 -3 -8 -13 -15 -15 -15 -13 -13 -12 -13 -13 -15 -15 -15 -17 -16 -17 -17 -16 -16 -12 -4 -3 -2 -2 -1 -1 -1 -1 -0 0
11 11 10 7 -1 -1 -0 -0 -0 0 0 0 -2 -6 -11 -13 -14 -14 -13 -14 -14 -15 -16 -15 -15 -17 -18 -17 -16 -14 -14 -15 -13 -7 -5 -4 -3 -3 -2 -2 -1 -1 -1
10 10 9 6 -1 -1 -0 -0 -1 -0 0 0 -1 -5 -10 -12 -13 -13 -13 -13 -15 -17 -15 -15 -17 -18 -18 -16 -15 -14 -13 -11 -7 -6 -6 -5 -4 -4 -3 -2 -2 -2 -2
10 10 7 6 -1 -1 -1 -1 -1 -1 -0 -0 -1 -5 -10 -12 -13 -13 -13 -14 -14 -15 -14 -16 -18 -19 -19 -17 -15 -13 -13 -13 -13 -8 -6 -5 -5 -4 -5 -5 -5 -5 -4
10 9 7 2 -1 -1 -1 -1 -1 -1 -1 -1 -2 -6 -10 -12 -14 -15 -15 -14 -13 -13 -15 -17 -18 -19 -16 -16 -18 -18 -18 -17 -13 -8 -7 -6 -5 -6 -6 -6 -6 -5 -5
9 8 4 0 -1 1 -2 -2 -2 -1 -1 -1 -3 -7 -11 -14 -17 -17 -16 -14 -12 -11 -13 -16 -15 -17 -18 -17 -14 -11 -10 -14 -9 -7 -6 -6 -6 -7 -7 -6 -6 -6 -5
7 5 3 -1 3 -2 -2 -2 -2 -2 -2 -2 -4 -10 -13 -17 -19 -17 -14 -14 -15 -16 -13 -16 -15 -15 -15 -13 -12 -13 -14 -13 -11 -8 -7 -8 -7 -7 -7 -7 -6 -6 -5
5 3 0 3 -2 -3 -3 -3 -3 -2 -2 -3 -9 -13 -18 -20 -16 -14 -14 -16 -17 -17 -14 -14 -14 -13 -11 -14 -14 -13 -12 -11 -12 -13 -9 -8 -8 -7 -7 -7 -7 -6 -6
3 2 3 -2 -3 -4 -4 -3 -3 -3 -3 -7 -13 -19 -19 -14 -13 -14 -16 -17 -16 -15 -13 -12 -11 -11 -12 -12 -11 -10 -11 -13 -12 -13 -10 -9 -8 -8 -7 -7 -6 -7 -6
2 0 -2 -3 -4 -5 -4 -3 -3 -3 -6 -13 -20 -18 -14 -14 -16 -17 -16 -16 -14 -12 -10 -9 -9 -10 -11 -10 -9 -11 -12 -12 -12 -13 -12 -13 -10 -9 -8 -8 -7 -7 -7
2 -3 -3 -4 -5 -5 -4 -4 -3 -7 -13 -21 -17 -16 -17 -18 -17 -14 -14 -12 -9 -8 -8 -8 -9 -10 -9 -9 -11 -11 -12 -11 -12 -11 -11 -12 -10 -14 -13 -12 -11 -12 -11
-3 -2 -6 -6 -5 -4 -4 -3 -8 -15 -18 -16 -18 -23 -24 -19 -15 -14 -11 -8 -8 -8 -8 -8 -9 -9 -8 -10 -11 -10 -11 -11 -10 -11 -9 -11 -12 -13 -13 -12 -12 -12 -11
-4 -5 -7 -5 -4 -3 -3 -9 -17 -16 -16 -20 -25 -25 -22 -18 -17 -13 -9 -9 -8 -8 -8 -9 -9 -9 -10 -11 -10 -10 -10 -9 -9 -9 -11 -12 -13 -13 -12 -12 -12 -10 -10
-6 -5 -5 -4 -3 -4 -10 -16 -15 -18 -22 -25 -25 -24 -21 -16 -11 -11 -10 -9 -8 -8 -8 -8 -10 -11 -10 -11 -10 -9 -9 -9 -10 -11 -11 -11 -13 -12 -11 -12 -12 -12 -12
-5 -4 -4 -4 -7 -13 -15 -15 -19 -24 -24 -24 -27 -25 -15 -12 -11 -10 -9 -8 -8 -9 -10 -10 -10 -10 -10 -10 -9 -9 -10 -10 -11 -12 -11 -10 -11 -11 -12 -12 -12 -13 -12
-3 -4 -6 -11 -14 -15 -17 -21 -23 -23 -25 -32 -30 -20 -15 -14 -13 -8 -8 -9 -9 -9 -10 -11 -12 -9 -9 -11 -10 -10 -11 -10 -11 -11 -11 -10 -11 -11 -11 -12 -12 -12 -11
-5 -9 -14 -14 -16 -20 -23 -22 -22 -26 -29 -20 -15 -15 -14 -10 -9 -8 -8 -8 -9 -10 -11 -10 -10 -12 -12 -12 -11 -10 -10 -10 -10 -11 -11 -10 -11 -11 -11 -11 -11 -11 -12

GFSMA_850_dewp_018.txt.gz
Dewpoint
4 6 8 7 6 7 7 6 8 7 -3 -6 -7 -11 -14 -16 -14 -11 -9 -8 -7 -6 -4 -4 -4 -4 -5 -7 -9 -12 -15 -19 -22 -23 -23 -21 -18 -12 -6 -2 1 3 4
5 7 8 9 8 8 7 8 8 3 -5 -5 -8 -12 -15 -15 -13 -12 -10 -8 -8 -8 -7 -7 -9 -14 -18 -19 -19 -18 -18 -17 -17 -18 -20 -21 -23 -24 -25 -25 -23 -12 -6
6 4 7 9 9 10 7 8 7 -3 -4 -5 -7 -13 -15 -15 -13 -11 -9 -9 -9 -10 -11 -11 -11 -18 -20 -19 -17 -16 -17 -18 -18 -19 -19 -19 -19 -19 -19 -18 -18 -20 -16
7 5 8 9 11 9 9 9 3 -3 -3 -4 -9 -16 -19 -17 -14 -10 -9 -10 -10 -11 -11 -15 -18 -18 -18 -17 -17 -16 -16 -16 -18 -19 -19 -19 -20 -17 -15 -8 -1 -4 -10
10 7 8 10 11 9 9 8 -3 -2 -2 -6 -13 -19 -17 -15 -12 -10 -9 -9 -9 -12 -14 -14 -16 -16 -16 -16 -16 -16 -17 -16 -13 -12 -15 -19 -17 -13 -10 -4 0 1 3
11 10 11 10 10 9 9 6 -2 -1 -3 -7 -16 -17 -15 -12 -9 -9 -9 -8 -7 -12 -13 -14 -14 -14 -14 -15 -15 -16 -17 -19 -10 -6 -12 -3 -1 0 1 1 1 2 2
11 10 11 11 11 9 9 2 -1 -1 -3 -7 -15 -15 -12 -11 -9 -9 -8 -5 -11 -11 -12 -13 -13 -14 -15 -15 -16 -17 -18 -20 -11 -5 -7 -1 0 0 0 1 1 1 2
11 10 11 11 10 9 8 -1 -1 -1 -1 -4 -11 -14 -12 -11 -10 -8 -6 -8 -10 -12 -13 -12 -13 -13 -15 -15 -16 -18 -19 -19 -19 -7 -4 -0 -0 -0 0 0 1 1 1
11 11 11 11 10 9 6 -2 -1 -0 -1 -2 -5 -10 -13 -14 -11 -11 -10 -12 -12 -12 -12 -12 -13 -15 -15 -16 -17 -19 -19 -19 -18 -6 -2 -1 -1 -1 -1 -0 -0 -0 0
11 11 11 11 10 9 2 -2 -0 -0 -0 -0 -2 -4 -7 -11 -14 -14 -13 -12 -12 -12 -12 -14 -16 -15 -16 -18 -19 -19 -18 -18 -12 -5 -3 -2 -2 -2 -1 -1 -1 -1 1
11 11 11 11 10 8 -0 -1 -0 -0 -0 0 0 -1 -4 -8 -11 -13 -14 -13 -13 -13 -14 -17 -16 -16 -18 -19 -20 -19 -18 -17 -14 -6 -4 -3 -3 -3 -2 -2 -1 -1 -0
11 10 11 11 10 6 -1 -1 -0 -0 -0 -0 0 -1 -3 -7 -11 -13 -13 -13 -14 -17 -18 -16 -16 -17 -19 -20 -20 -18 -17 -16 -16 -10 -5 -5 -4 -4 -3 -3 -2 -3 -2
11 10 10 10 8 3 -1 -0 -0 -1 -1 -0 -0 -0 -2 -7 -11 -13 -13 -14 -16 -18 -16 -16 -16 -19 -20 -19 -20 -19 -18 -19 -19 -12 -6 -5 -4 -4 -4 -4 -4 -4 -4
9 10 9 9 7 1 -0 -0 -1 -1 -1 -1 -1 -1 -3 -8 -12 -14 -16 -17 -16 -14 -14 -15 -18 -20 -18 -19 -20 -21 -21 -21 -20 -11 -6 -6 -5 -5 -5 -6 -6 -5 -5
10 10 9 7 2 2 -1 -1 -1 -1 -2 -2 -1 -2 -4 -10 -13 -17 -18 -17 -14 -12 -13 -16 -19 -19 -19 -19 -19 -17 -18 -18 -17 -13 -8 -6 -6 -6 -6 -6 -6 -5 -5
11 9 9 4 1 -1 -1 -1 1 1 -2 -2 -2 -3 -7 -12 -17 -19 -17 -14 -14 -14 -14 -16 -18 -17 -17 -17 -17 -16 -16 -14 -13 -15 -10 -8 -7 -7 -7 -6 -6 -6 -5
10 8 8 3 -0 -2 0 3 1 -3 -3 -3 -2 -5 -11 -16 -19 -16 -14 -14 -16 -16 -16 -15 -15 -15 -14 -16 -17 -16 -15 -14 -16 -15 -14 -8 -7 -7 -7 -7 -7 -6 -6
9 8 6 1 -2 2 1 0 -3 -4 -3 -3 -4 -10 -16 -19 -15 -14 -15 -17 -17 -16 -15 -13 -11 -12 -12 -13 -12 -12 -15 -17 -15 -14 -14 -8 -8 -8 -7 -7 -6 -6 -7
8 7 4 -0 0 3 -3 -4 -5 -4 -3 -4 -9 -16 -18 -15 -15 -17 -18 -17 -16 -15 -13 -10 -9 -9 -11 -12 -12 -14 -15 -15 -14 -14 -13 -13 -13 -13 -8 -7 -8 -8 -7
7 4 -0 1 1 -2 -7 -6 -4 -4 -4 -8 -13 -16 -16 -18 -21 -20 -17 -16 -14 -11 -9 -9 -9 -10 -10 -11 -11 -12 -14 -14 -13 -13 -13 -12 -14 -12 -14 -14 -14 -13 -12
2 -1 1 -0 -2 -5 -6 -5 -4 -4 -9 -14 -15 -18 -22 -24 -21 -17 -15 -12 -9 -10 -9 -9 -8 -9 -10 -10 -12 -13 -12 -11 -11 -12 -12 -12 -13 -13 -14 -14 -13 -12 -13
-1 -0 -1 -2 -3 -2 -5 -4 -7 -11 -14 -15 -20 -24 -24 -23 -20 -18 -14 -11 -9 -8 -8 -8 -8 -9 -10 -11 -13 -11 -10 -9 -9 -11 -12 -12 -12 -12 -13 -12 -12 -13 -11
-1 -1 -0 -3 -7 -6 -4 -6 -13 -14 -18 -22 -24 -24 -25 -25 -20 -15 -14 -13 -9 -9 -8 -8 -9 -10 -10 -13 -10 -9 -9 -9 -10 -12 -11 -11 -11 -11 -12 -12 -12 -12 -13
-0 -1 -1 -1 -3 -5 -8 -14 -16 -21 -23 -23 -25 -30 -28 -23 -20 -17 -13 -9 -8 -8 -8 -9 -10 -10 -10 -9 -9 -9 -10 -11 -10 -11 -11 -10 -11 -11 -11 -12 -12 -13 -13
-1 -1 -1 -0 -4 -14 -16 -20 -22 -22 -24 -28 -30 -23 -18 -19 -17 -11 -9 -8 -8 -9 -9 -11 -11 -11 -10 -10 -11 -11 -11 -10 -10 -10 -11 -11 -11 -11 -11 -11 -12 -12 -12
-0 -1 -6 -12 -15 -18 -20 -21 -22 -25 -28 -27 -23 -22 -22 -17 -10 -9 -8 -8 -9 -10 -11 -11 -13 -13 -13 -12 -11 -11 -10 -10 -10 -10 -11 -10 -11 -11 -10 -11 -11 -11 -11

GFSMA_850_dewp_021.txt.gz
Dewpoint
7 8 9 8 6 4 5 7 6 7 6 -3 -5 -7 -11 -15 -15 -12 -10 -8 -6 -5 -4 -5 -5 -5 -6 -9 -13 -16 -18 -20 -20 -19 -19 -21 -23 -24 -23 -15 -7 -2 1
6 8 8 8 6 7 7 6 7 8 3 -4 -5 -8 -12 -15 -15 -12 -10 -8 -8 -8 -7 -8 -9 -13 -15 -12 -10 -14 -17 -18 -18 -18 -18 -19 -19 -19 -20 -21 -22 -24 -20
4 7 8 8 9 7 8 7 8 7 -2 -4 -5 -8 -13 -16 -15 -13 -10 -9 -9 -10 -11 -11 -11 -18 -20 -19 -12 -7 -13 -16 -17 -18 -18 -18 -19 -19 -19 -18 -17 -16 -17
7 8 8 8 9 9 10 8 8 6 -3 -3 -5 -11 -16 -18 -16 -12 -10 -10 -11 -11 -12 -15 -17 -17 -17 -17 -16 -15 -15 -15 -17 -18 -19 -19 -19 -16 -10 -6 -3 -3 -4
10 11 6 7 9 10 10 8 9 3 -3 -3 -8 -15 -18 -16 -14 -11 -10 -10 -9 -11 -13 -14 -15 -15 -15 -15 -15 -16 -16 -16 -14 -15 -19 -21 -17 -12 -6 -4 -2 -1 -0
11 11 9 8 9 11 10 9 8 -1 -2 -4 -11 -16 -16 -14 -11 -10 -9 -9 -7 -10 -13 -13 -14 -14 -14 -14 -16 -16 -17 -18 -14 -7 -12 -8 -6 -2 -2 -0 1 2 2
12 12 10 10 10 11 10 9 8 -2 -1 -5 -12 -14 -12 -10 -10 -9 -9 -8 -6 -11 -12 -13 -13 -13 -14 -15 -16 -16 -17 -18 -15 -8 -4 -2 0 0 1 1 1 2 2
11 11 10 10 10 10 10 9 7 -2 -1 -4 -10 -12 -11 -9 -9 -8 -8 -6 -7 -10 -12 -12 -13 -13 -14 -16 -16 -17 -18 -19 -19 -10 -3 -0 -0 0 0 0 1 1 1
11 11 10 10 10 10 10 9 6 -1 -1 -2 -5 -10 -11 -12 -11 -9 -8 -7 -9 -11 -12 -12 -12 -14 -16 -16 -16 -17 -18 -20 -19 -6 -2 -1 -1 -0 -0 -0 0 0 1
10 11 10 10 10 10 11 9 4 -1 -0 -1 -2 -3 -5 -9 -11 -12 -11 -11 -12 -11 -11 -12 -13 -16 -16 -16 -17 -19 -20 -20 -18 -7 -2 -2 -1 -1 -1 -1 -1 -0 -0
9 10 10 11 11 11 11 9 3 -1 -0 -0 -0 -0 -2 -4 -8 -11 -13 -12 -12 -12 -12 -13 -16 -17 -16 -17 -19 -21 -21 -21 -20 -18 -7 -3 -3 -2 -2 -1 -1 -1 -1
8 9 10 10 10 10 11 9 2 -0 -0 -0 -0 -0 -0 -2 -4 -7 -11 -12 -13 -14 -15 -18 -17 -16 -17 -19 -21 -20 -20 -21 -22 -21 -8 -4 -3 -3 -3 -2 -2 -2 -3
8 8 9 9 10 10 11 8 0 -0 -0 -0 -0 -0 -0 -1 -3 -7 -10 -13 -14 -17 -18 -17 -16 -16 -19 -21 -20 -21 -23 -25 -27 -27 -20 -7 -4 -4 -4 -4 -3 -3 -4
7 7 8 10 10 10 10 6 0 -0 -0 -1 -1 -1 -1 -1 -3 -8 -12 -15 -17 -18 -16 -15 -16 -18 -19 -19 -20 -21 -23 -24 -25 -26 -24 -9 -6 -6 -5 -5 -5 -5 -5
7 7 7 9 10 10 10 5 2 -1 -1 -1 -1 -1 -1 -2 -4 -10 -14 -18 -18 -15 -14 -15 -17 -19 -19 -20 -20 -20 -20 -20 -21 -19 -19 -19 -11 -7 -6 -6 -5 -5 -5
8 7 8 9 9 8 7 5 1 -1 -1 -0 2 2 -1 -3 -6 -13 -18 -18 -15 -14 -13 -15 -18 -19 -20 -20 -19 -17 -18 -18 -17 -18 -20 -16 -8 -7 -6 -6 -6 -6 -5
8 8 9 8 8 7 4 2 0 -1 1 2 -1 -2 -2 -5 -11 -17 -18 -15 -14 -15 -16 -17 -17 -17 -16 -18 -19 -19 -18 -19 -20 -20 -17 -15 -9 -7 -7 -6 -6 -6 -5
9 9 9 8 6 2 1 0 -3 1 2 2 -1 -2 -5 -9 -17 -17 -14 -15 -17 -18 -17 -16 -14 -13 -13 -16 -14 -14 -16 -19 -19 -17 -16 -14 -9 -9 -7 -7 -6 -6 -6
9 10 9 6 3 -0 0 -1 2 3 -3 -3 -4 -5 -11 -14 -16 -14 -16 -19 -20 -18 -16 -14 -11 -11 -11 -12 -13 -14 -16 -19 -16 -14 -14 -14 -13 -13 -8 -8 -7 -8 -8
8 7 6 4 0 -0 -1 2 3 -1 -2 -3 -4 -9 -14 -15 -16 -19 -22 -21 -19 -17 -14 -11 -10 -9 -9 -11 -11 -13 -15 -16 -12 -13 -14 -13 -13 -13 -14 -14 -14 -14 -14
6 5 5 -1 -1 -0 2 1 0 -0 -5 -6 -10 -14 -14 -19 -23 -23 -21 -19 -15 -12 -11 -10 -8 -8 -10 -10 -11 -12 -12 -11 -10 -13 -14 -13 -13 -13 -14 -13 -13 -13 -13
5 2 -0 -1 -0 1 1 -0 -1 -2 -1 -12 -6 -15 -22 -23 -23 -22 -19 -13 -8 -9 -8 -7 -8 -8 -9 -10 -11 -12 -10 -9 -9 -11 -13 -13 -12 -12 -12 -12 -13 -12 -12
0 -1 -1 -0 -0 -0 -0 -0 -1 -4 -4 -9 -21 -23 -23 -23 -24 -22 -17 -15 -14 -13 -8 -8 -8 -9 -9 -11 -11 -9 -9 -9 -10 -12 -12 -12 -11 -12 -12 -12 -12 -12 -13
-1 -0 0 0 0 0 0 -1 -1 -7 -19 -21 -22 -24 -27 -25 -22 -18 -15 -11 -9 -9 -10 -9 -10 -10 -11 -9 -9 -9 -9 -11 -11 -11 -11 -10 -11 -11 -11 -11 -12 -13 -12
0 1 1 0 -0 -1 -3 -13 -16 -20 -21 -22 -24 -22 -19 -19 -20 -15 -9 -8 -8 -9 -10 -10 -11 -12 -11 -10 -11 -12 -12 -11 -11 -10 -10 -10 -11 -10 -10 -11 -12 -11 -11
1 0 -0 -0 -4 -15 -17 -19 -21 -21 -22 -21 -18 -19 -19 -20 -16 -9 -8 -8 -9 -10 -11 -12 -13 -12 -13 -13 -12 -11 -11 -10 -10 -10 -10 -10 -10 -10 -10 -11 -11 -10 -11

GFSMA_850_dewp_024.txt.gz
Dewpoint
8 10 11 11 10 8 5 5 6 6 7 4 -4 -5 -9 -12 -16 -14 -11 -9 -7 -5 -5 -5 -6 -6 -8 -12 -15 -17 -18 -19 -19 -18 -18 -18 -18 -19 -21 -23 -23 -18 -8
6 7 9 9 8 7 5 7 6 6 7 3 -4 -6 -8 -12 -15 -14 -11 -9 -8 -8 -8 -8 -10 -12 -12 -11 -10 -17 -18 -17 -17 -17 -17 -18 -18 -18 -18 -18 -19 -20 -21
4 6 8 8 8 6 7 8 6 7 7 0 -4 -5 -9 -13 -15 -14 -11 -10 -9 -10 -11 -11 -11 -16 -19 -17 -14 -14 -16 -16 -16 -17 -18 -18 -19 -19 -18 -17 -17 -18 -18
5 4 6 9 8 8 8 9 7 8 7 -1 -3 -5 -11 -15 -17 -14 -11 -10 -11 -11 -11 -13 -16 -16 -16 -17 -16 -15 -15 -15 -16 -16 -17 -19 -17 -14 -10 -10 -12 -12 -14
9 5 5 8 8 8 8 10 8 8 6 -2 -3 -8 -14 -17 -16 -12 -10 -10 -10 -11 -12 -15 -15 -16 -15 -15 -15 -15 -16 -16 -17 -16 -16 -18 -15 -8 -4 -3 -1 1 1
10 9 9 10 7 7 9 10 9 9 4 -2 -4 -10 -15 -16 -14 -11 -10 -10 -9 -8 -11 -14 -13 -14 -14 -14 -15 -16 -16 -17 -16 -16 -9 -13 -7 -2 0 1 2 2 2
12 11 11 10 8 8 9 10 9 9 4 -2 -6 -12 -14 -13 -12 -10 -10 -9 -9 -7 -10 -12 -13 -14 -14 -14 -15 -17 -17 -17 -17 -14 -7 -2 -0 1 1 1 1 1 2
12 11 11 11 10 9 10 10 10 9 4 -2 -6 -11 -11 -9 -10 -10 -9 -9 -8 -7 -9 -11 -13 -13 -13 -14 -16 -17 -17 -18 -19 -17 -6 -0 0 0 1 1 1 1 1
12 12 9 11 10 10 9 10 10 9 4 -1 -3 -8 -9 -10 -8 -8 -9 -8 -8 -8 -10 -12 -12 -12 -13 -15 -17 -17 -17 -18 -20 -21 -9 -2 -1 -0 -0 0 1 0 1
9 11 10 10 10 10 9 9 10 9 5 -1 -2 -4 -6 -8 -10 -8 -8 -8 -9 -10 -11 -12 -12 -12 -13 -17 -16 -17 -19 -20 -21 -21 -10 -4 -1 -1 -1 -0 -0 0 -0
8 9 10 10 10 10 10 10 10 9 7 -1 -1 -1 -3 -5 -6 -8 -9 -7 -9 -11 -12 -12 -12 -13 -17 -16 -16 -18 -20 -22 -22 -23 -23 -11 -3 -2 -1 -1 -1 -1 -1
8 8 9 9 10 10 10 10 10 10 7 0 -0 -1 -1 -1 -2 -4 -5 -6 -9 -11 -12 -13 -14 -17 -17 -16 -17 -20 -21 -21 -23 -25 -27 -14 -3 -3 -2 -2 -2 -2 -2
9 8 8 8 8 9 10 10 10 10 7 -0 -0 -0 -0 -0 -0 -0 -3 -6 -8 -11 -13 -16 -18 -16 -16 -17 -20 -20 -22 -23 -25 -29 -29 -15 -5 -4 -4 -4 -4 -3 -3
7 9 8 8 8 9 10 10 10 9 6 2 -1 -1 -1 -1 -1 -1 -2 -6 -10 -13 -16 -17 -16 -16 -17 -18 -19 -20 -22 -23 -26 -26 -27 -26 -19 -16 -9 -5 -5 -4 -4
7 8 9 9 8 9 10 10 9 7 5 0 -1 -1 -1 -1 -1 -2 -4 -8 -14 -17 -17 -15 -16 -17 -18 -19 -19 -20 -21 -22 -21 -22 -23 -22 -22 -17 -9 -6 -5 -5 -5
6 7 8 8 8 9 10 9 8 5 1 1 1 1 2 0 -1 -1 -1 -12 -17 -17 -14 -14 -16 -18 -19 -20 -20 -19 -20 -20 -20 -20 -21 -22 -18 -8 -7 -6 -5 -5 -5
8 7 7 9 9 9 9 7 7 3 0 1 2 -0 2 1 1 -1 -8 -14 -16 -14 -14 -15 -17 -18 -19 -19 -20 -20 -19 -19 -20 -22 -22 -19 -14 -9 -7 -6 -6 -6 -5
8 9 9 10 9 8 7 6 2 1 1 -1 1 2 2 1 -2 -9 -12 -15 -15 -14 -15 -17 -17 -17 -17 -18 -17 -15 -15 -17 -19 -21 -18 -15 -15 -14 -14 -8 -7 -6 -6
9 9 9 8 8 8 7 3 0 -0 -0 1 3 2 0 -5 -9 -11 -13 -14 -15 -17 -17 -16 -15 -15 -14 -14 -12 -13 -13 -17 -19 -17 -15 -15 -14 -14 -14 -11 -8 -8 -8
8 7 7 7 6 3 1 -1 -1 -1 1 2 -0 -2 -1 -8 -11 -9 -9 -17 -19 -18 -16 -15 -13 -12 -10 -10 -10 -11 -12 -15 -16 -15 -15 -14 -14 -14 -13 -13 -13 -13 -13
7 6 6 5 3 1 -3 -1 -0 1 1 0 0 -0 -6 -10 -1 -7 -22 -21 -17 -15 -13 -11 -11 -8 -8 -9 -9 -10 -10 -13 -12 -14 -14 -14 -13 -13 -13 -13 -13 -13 -13
5 5 3 3 1 0 -0 0 1 1 1 1 -0 -4 -2 -7 -21 -21 -19 -15 -11 -11 -10 -8 -8 -8 -8 -9 -9 -10 -11 -10 -10 -13 -13 -12 -12 -13 -12 -12 -12 -12 -13
2 2 1 -0 -0 -0 0 1 1 1 0 -1 -1 -5 -18 -22 -22 -22 -21 -19 -18 -18 -14 -8 -8 -9 -8 -9 -10 -9 -9 -10 -10 -12 -12 -11 -12 -12 -12 -12 -12 -12 -13
0 -0 -1 -1 0 1 1 0 -0 -0 -1 -5 -18 -20 -22 -23 -21 -19 -20 -18 -12 -10 -9 -9 -9 -9 -9 -9 -9 -9 -10 -11 -11 -12 -11 -10 -12 -11 -11 -12 -12 -12 -12
-1 -1 -0 -0 0 -0 -1 -1 -0 -3 -14 -19 -20 -21 -20 -20 -21 -23 -11 -9 -9 -9 -10 -10 -11 -11 -11 -11 -12 -13 -12 -11 -11 -11 -11 -10 -11 -11 -11 -12 -12 -11 -11
-1 -1 -1 -1 -1 -0 -1 -8 -18 -20 -18 -18 -20 -20 -20 -22 -21 -13 -8 -8 -9 -10 -11 -13 -13 -14 -15 -14 -13 -11 -11 -10 -10 -10 -10 -10 -10 -11 -10 -11 -10 -10 -11

GFSMA_850_dewp_027.txt.gz
Dewpoint
8 8 10 11 11 10 8 4 3 5 6 6 3 -4 -6 -9 -14 -15 -12 -10 -8 -6 -6 -7 -7 -7 -9 -13 -15 -18 -19 -19 -19 -18 -18 -18 -18 -18 -18 -18 -19 -21 -22
6 8 9 10 11 10 9 5 5 6 6 7 2 -4 -5 -8 -13 -15 -13 -10 -8 -8 -8 -9 -9 -11 -11 -14 -18 -18 -18 -17 -16 -16 -16 -17 -18 -18 -18 -18 -18 -18 -17
5 7 8 9 9 9 7 5 6 6 6 7 2 -4 -5 -9 -14 -15 -13 -10 -9 -9 -11 -12 -11 -14 -18 -17 -16 -16 -16 -16 -16 -17 -17 -18 -18 -19 -19 -19 -19 -19 -18
6 5 6 8 8 8 7 7 7 7 7 7 1 -3 -6 -11 -15 -16 -13 -11 -11 -11 -11 -12 -15 -17 -16 -16 -15 -15 -15 -16 -16 -17 -18 -18 -18 -19 -18 -18 -16 -16 -15
12 10 7 7 8 8 8 9 8 8 8 7 0 -3 -7 -13 -16 -15 -12 -11 -11 -12 -12 -13 -15 -15 -15 -15 -14 -15 -15 -16 -17 -17 -17 -17 -18 -15 -11 -6 -2 -1 -0
12 12 11 6 6 8 9 9 9 9 8 7 -1 -4 -9 -15 -15 -13 -11 -11 -11 -11 -10 -12 -14 -13 -14 -14 -14 -15 -16 -17 -17 -17 -17 -14 -14 -8 -2 0 1 2 2
11 12 11 8 6 8 9 9 9 10 8 7 -2 -6 -11 -13 -14 -13 -11 -11 -10 -10 -9 -10 -12 -12 -13 -13 -14 -15 -17 -17 -16 -15 -13 -8 -6 -1 1 1 2 2 2
9 10 11 10 10 10 9 9 10 10 9 6 -2 -7 -10 -9 -12 -11 -11 -10 -9 -9 -8 -8 -10 -12 -12 -13 -13 -15 -17 -17 -17 -18 -17 -8 -2 0 1 1 1 1 2
9 8 9 9 11 11 9 8 9 9 9 8 1 -6 -8 -8 -8 -9 -10 -9 -9 -8 -8 -8 -10 -11 -12 -12 -13 -17 -17 -17 -18 -20 -20 -13 -5 -0 -0 0 1 1 1
9 9 9 9 9 10 10 9 9 9 10 9 4 -2 -4 -7 -8 -7 -7 -8 -8 -8 -8 -8 -10 -11 -11 -12 -15 -18 -17 -17 -19 -21 -21 -16 -10 -1 -0 0 0 0 1
8 9 8 8 8 9 10 9 9 8 10 10 8 1 -2 -5 -6 -7 -6 -5 -6 -7 -8 -9 -10 -11 -11 -13 -17 -16 -17 -18 -21 -22 -23 -24 -16 -3 -1 -1 -0 -0 -0
6 9 9 8 9 8 9 9 10 9 9 10 9 3 -0 -1 -3 -6 -6 -5 -5 -6 -7 -9 -10 -11 -13 -17 -17 -16 -17 -20 -22 -23 -25 -27 -10 -3 -2 -2 -2 -2 -2
4 5 8 8 9 8 8 9 10 10 9 10 9 4 -1 -3 -3 -3 -4 -3 -4 -6 -8 -10 -12 -14 -17 -16 -16 -17 -20 -21 -23 -25 -29 -31 -13 -9 -7 -6 -4 -3 -3
7 7 6 7 9 9 8 8 10 10 9 9 8 1 0 -2 -0 -1 -3 -3 -4 -6 -7 -10 -14 -16 -15 -15 -17 -19 -20 -21 -24 -28 -32 -31 -29 -29 -27 -17 -6 -5 -4
5 7 7 8 8 8 9 8 10 11 9 9 6 4 -0 3 -2 -0 2 -1 -3 -7 -10 -13 -14 -14 -15 -16 -18 -19 -20 -21 -24 -27 -25 -26 -26 -26 -25 -14 -6 -5 -5
4 6 6 7 8 9 9 10 10 10 8 7 5 2 -1 -2 1 3 3 -2 -2 -10 -14 -12 -12 -13 -15 -17 -19 -19 -19 -20 -22 -21 -22 -22 -23 -20 -10 -6 -6 -5 -5
-4 3 7 9 9 10 10 10 10 8 7 4 3 -2 -1 2 3 2 -0 0 -1 -10 -14 -13 -13 -15 -18 -19 -19 -20 -20 -20 -20 -22 -22 -22 -21 -15 -8 -6 -6 -6 -6
-7 -2 6 9 9 9 9 9 8 7 5 3 -1 -2 2 2 1 2 -1 -1 -2 -9 -12 -8 -13 -18 -18 -19 -18 -19 -18 -18 -17 -20 -21 -21 -16 -15 -14 -12 -9 -7 -6
-3 0 8 8 9 8 7 6 5 3 -0 -2 -1 1 2 1 0 -3 -9 -11 -6 -4 -6 -14 -16 -17 -17 -18 -17 -15 -14 -14 -17 -20 -21 -15 -14 -14 -14 -14 -11 -9 -10
5 7 7 7 7 7 6 5 3 -1 -2 0 1 1 0 -1 -2 -1 -1 -1 -2 -6 -15 -17 -17 -14 -13 -13 -10 -11 -11 -11 -14 -21 -16 -14 -14 -14 -14 -13 -13 -13 -13
6 6 6 6 6 5 4 2 -1 -1 -0 -0 1 0 1 0 -0 -2 -1 -5 -14 -18 -17 -14 -11 -10 -9 -9 -8 -8 -9 -10 -13 -16 -14 -14 -14 -14 -14 -13 -13 -13 -13
5 5 4 3 3 2 1 -1 -1 0 0 1 1 0 -0 -1 -1 -3 -13 -21 -19 -19 -14 -8 -8 -10 -8 -8 -9 -9 -9 -9 -9 -11 -12 -11 -12 -14 -13 -12 -12 -12 -12
3 2 1 1 0 -0 -0 -0 0 1 0 -0 -0 -1 -1 -4 -17 -21 -22 -22 -22 -19 -15 -10 -8 -8 -8 -9 -9 -10 -10 -9 -9 -11 -12 -12 -12 -13 -12 -12 -12 -12 -13
1 1 -0 -1 -1 -0 -0 -0 -0 -0 -0 -1 -1 -5 -15 -21 -22 -23 -25 -25 -22 -15 -12 -11 -9 -9 -9 -9 -9 -9 -10 -10 -12 -12 -11 -10 -12 -11 -11 -12 -12 -13 -12
-0 -1 -1 -1 -1 -1 -1 -1 -1 -0 -1 -9 -19 -21 -22 -24 -26 -27 -21 -16 -13 -10 -10 -10 -11 -12 -12 -12 -13 -13 -13 -11 -11 -10 -11 -10 -11 -10 -11 -12 -12 -12 -11
-1 -2 -2 -2 -2 -1 -2 -1 -6 -17 -20 -21 -24 -25 -24 -25 -23 -18 -9 -8 -9 -11 -14 -16 -17 -18 -17 -16 -13 -12 -11 -10 -10 -10 -10 -10 -10 -10 -10 -11 -11 -11 -11

GFSMA_850_dewp_030.txt.gz
Dewpoint
12 12 13 12 11 11 10 7 4 4 5 5 6 0 -4 -7 -5 2 6 -8 -6 -6 -6 -7 -6 -6 -8 -13 -16 -19 -19 -18 -17 -16 -16 -16 -17 -17 -17 -18 -18 -18 -19
10 12 12 10 12 12 11 9 5 4 5 6 6 1 -4 -6 -7 -6 5 -6 -9 -8 -8 -9 -8 -10 -12 -16 -19 -18 -17 -16 -16 -16 -16 -17 -17 -17 -18 -18 -18 -18 -18
9 11 11 8 13 12 11 10 7 4 6 6 6 1 -4 -6 -9 -11 -6 1 -10 -9 -10 -10 -12 -12 -16 -17 -16 -16 -15 -16 -16 -16 -17 -18 -18 -18 -19 -19 -18 -18 -19
9 9 11 8 8 10 10 9 6 6 7 6 7 2 -3 -6 -9 -11 -13 -11 -6 -8 -11 -12 -12 -16 -16 -16 -15 -15 -15 -15 -16 -17 -18 -18 -18 -18 -19 -19 -17 -16 -14
12 11 10 11 9 8 9 9 7 7 7 7 7 3 -3 -6 -11 -14 -14 -13 -12 -12 -12 -13 -14 -16 -15 -15 -15 -15 -15 -15 -16 -17 -17 -18 -18 -18 -14 -9 -6 -4 -3
11 11 11 10 11 8 8 9 8 8 8 7 7 3 -3 -7 -11 -14 -12 -12 -12 -12 -12 -12 -13 -14 -13 -14 -14 -14 -15 -16 -17 -18 -17 -17 -17 -16 -7 -1 2 2 2
9 9 11 11 11 9 7 8 9 9 8 8 7 1 -4 -8 -12 -13 -12 -12 -12 -11 -11 -10 -10 -12 -12 -13 -13 -13 -14 -16 -18 -17 -17 -18 -16 -10 -2 2 2 2 2
7 9 9 10 10 11 7 7 9 9 9 9 6 -1 -4 -6 -10 -12 -12 -11 -11 -10 -10 -9 -8 -9 -10 -11 -12 -12 -13 -17 -18 -17 -18 -18 -16 -7 -0 1 1 1 2
8 9 9 9 9 10 9 8 9 9 9 9 8 2 -3 -3 -5 -8 -11 -11 -10 -10 -9 -8 -8 -8 -9 -11 -11 -12 -13 -18 -17 -17 -19 -19 -18 -7 -1 0 1 1 1
5 10 8 9 9 8 9 9 10 8 8 9 9 7 2 -5 -5 -5 -7 -9 -10 -9 -9 -8 -8 -8 -9 -10 -11 -12 -14 -17 -17 -17 -19 -21 -19 -13 -4 0 1 1 1
3 5 7 8 9 9 8 10 11 9 8 9 9 9 6 -1 -5 -6 -4 -5 -7 -8 -8 -8 -7 -7 -8 -10 -11 -12 -16 -17 -16 -18 -21 -23 -21 -9 -3 -0 0 0 0
2 6 7 7 8 9 9 8 10 10 9 9 9 9 9 6 -1 -5 -7 -6 -5 -5 -5 -6 -7 -8 -9 -10 -11 -13 -17 -16 -17 -20 -22 -23 -18 -6 -2 -1 -1 -1 -1
2 2 3 7 7 7 8 9 9 11 10 9 9 9 9 6 1 -2 -4 -6 -6 -5 -5 -6 -7 -8 -9 -11 -13 -16 -16 -16 -18 -21 -23 -25 -27 -25 -26 -16 -8 -4 -3
5 3 6 8 8 7 9 9 9 9 10 10 10 9 9 7 2 0 -4 -4 -5 -2 -6 -6 -7 -9 -12 -15 -15 -15 -15 -17 -20 -22 -24 -27 -31 -32 -32 -31 -26 -11 -4
2 9 8 9 9 10 9 9 9 9 9 10 11 9 7 6 2 -3 -4 -1 -0 -4 -3 -3 -9 -11 -14 -14 -14 -15 -16 -18 -21 -22 -26 -30 -28 -29 -30 -29 -28 -12 -5
-2 1 4 6 8 9 10 10 10 10 10 10 10 7 6 3 -0 -3 -1 -3 -1 -1 -6 -10 -13 -12 -6 -8 -7 -14 -19 -19 -20 -24 -26 -23 -23 -24 -25 -19 -12 -6 -5
-5 -5 -3 1 5 7 9 9 9 9 9 9 8 6 2 -0 -1 -2 -2 1 2 1 -2 -4 -3 -4 -4 -3 -4 -7 -16 -17 -17 -21 -22 -21 -23 -23 -21 -10 -7 -6 -5
-3 -2 -2 2 5 8 9 8 9 9 8 7 6 4 5 0 -3 -1 1 2 2 1 0 -0 -1 -2 -1 -3 -12 -20 -19 -20 -15 -18 -20 -20 -22 -22 -18 -16 -12 -8 -7
-3 -2 1 3 7 7 7 7 7 7 7 6 4 2 -1 -2 0 1 2 2 1 1 0 -1 -2 -2 -9 -17 -18 -22 -21 -12 -11 -15 -17 -23 -23 -17 -15 -15 -14 -14 -14
0 0 3 4 6 6 6 7 6 5 4 3 1 1 -0 1 1 2 1 0 0 -1 -2 -2 -9 -15 -15 -16 -14 -11 -9 -8 -8 -9 -16 -16 -15 -15 -15 -15 -14 -14 -14
4 5 6 6 6 5 5 4 4 3 2 1 -1 -0 1 1 1 0 -0 -1 -2 -3 -6 -11 -11 -10 -7 -8 -8 -8 -8 -8 -9 -9 -10 -9 -9 -11 -12 -13 -14 -14 -13
5 4 4 4 4 3 2 1 0 -1 -2 -1 0 1 1 0 -0 -1 -2 -3 -8 -16 -19 -15 -7 -7 -8 -8 -8 -8 -8 -8 -8 -10 -9 -9 -9 -10 -10 -12 -13 -13 -12
3 2 2 2 1 0 -1 -2 -2 -1 0 0 0 -0 -1 -1 -2 -4 -10 -22 -23 -20 -13 -9 -8 -8 -8 -8 -8 -8 -8 -9 -9 -9 -8 -9 -9 -9 -9 -12 -12 -12 -12
0 0 0 -1 -1 -1 -1 -1 -0 -0 -0 -1 -1 -2 -3 -11 -21 -22 -23 -23 -22 -18 -14 -11 -8 -8 -8 -9 -8 -9 -9 -9 -9 -9 -9 -9 -10 -9 -9 -11 -12 -12 -12
-1 -1 -1 -1 -1 -1 -1 -1 -1 -1 -1 -2 -8 -19 -21 -23 -25 -24 -12 -16 -14 -8 -11 -14 -15 -16 -17 -17 -15 -10 -11 -9 -9 -9 -9 -9 -10 -9 -9 -11 -11 -11 -11
-2 -2 -2 -2 -2 -1 -2 -2 -2 -15 -20 -20 -23 -25 -29 -26 -22 -17 -11 -10 -12 -16 -17 -17 -12 -16 -19 -18 -15 -13 -12 -10 -10 -10 -9 -10 -10 -9 -9 -10 -10 -10 -10

GFSMA_850_dewp_033.txt.gz
Dewpoint
12 12 12 12 12 12 11 9 5 3 4 4 5 4 -1 -1 3 5 7 -5 -6 -3 -4 -6 -8 -8 -9 -12 -15 -19 -18 -17 -16 -16 -16 -16 -16 -17 -17 -17 -17 -17 -17
12 12 12 12 12 13 12 10 8 5 3 3 5 5 1 -2 2 3 6 -3 -5 -7 -8 -8 -8 -10 -12 -14 -18 -17 -16 -16 -16 -16 -16 -17 -17 -17 -18 -18 -18 -18 -18
12 11 12 12 13 12 12 11 8 5 3 3 5 5 3 -1 -1 0 4 2 -9 -9 -9 -9 -11 -12 -13 -17 -17 -17 -16 -16 -16 -16 -17 -18 -18 -18 -19 -19 -19 -19 -19
12 11 11 11 11 12 11 11 8 7 6 5 5 5 5 -0 -1 -1 1 2 -2 -7 -10 -11 -12 -13 -16 -16 -16 -16 -15 -15 -16 -16 -18 -18 -18 -19 -20 -20 -20 -20 -18
13 12 12 12 11 12 11 11 9 9 6 5 5 5 5 1 -3 -2 -3 -5 -1 0 -7 -11 -12 -14 -16 -15 -15 -15 -14 -14 -15 -17 -18 -18 -18 -19 -20 -18 -13 -10 -8
13 13 12 12 12 11 12 10 8 8 7 6 6 5 6 1 -2 -3 -5 -6 -5 -8 -5 -12 -13 -14 -15 -13 -14 -14 -14 -14 -14 -17 -18 -17 -17 -17 -16 -8 -1 1 3
13 13 12 12 12 12 12 11 8 8 8 7 6 5 4 3 -3 -3 -6 -5 -8 -11 -11 -12 -11 -11 -13 -12 -12 -13 -12 -13 -14 -17 -17 -17 -17 -14 -8 -2 2 2 2
11 13 12 10 11 11 12 11 9 8 8 8 7 6 2 1 -1 -6 -6 -6 -7 -10 -11 -11 -10 -9 -9 -10 -10 -11 -11 -12 -14 -17 -17 -17 -18 -18 -10 0 2 2 2
11 13 14 12 12 12 12 11 10 9 7 8 8 6 3 1 -1 -3 -7 -7 -8 -9 -11 -11 -10 -9 -8 -8 -9 -10 -10 -11 -14 -17 -17 -17 -17 -16 -9 0 1 2 2
6 7 14 12 11 11 11 9 10 9 8 8 8 7 6 1 -2 -3 -4 -6 -8 -8 -10 -10 -9 -8 -8 -8 -8 -9 -9 -10 -13 -17 -16 -17 -18 -16 -7 -1 1 1 1
7 4 10 13 12 11 9 9 10 9 9 8 9 8 8 5 -0 -2 -4 -4 -6 -8 -9 -9 -9 -8 -8 -8 -8 -9 -9 -10 -13 -17 -16 -17 -20 -17 -7 -0 0 1 1
11 12 11 12 12 12 10 9 9 10 10 9 10 9 8 8 7 2 -3 -3 -4 -5 -6 -8 -8 -8 -7 -7 -9 -9 -9 -11 -14 -16 -16 -18 -21 -19 -19 -12 -4 -2 -1
11 12 11 10 11 12 12 11 10 10 9 10 10 10 8 8 8 8 3 -5 -4 -4 -5 -6 -7 -7 -7 -7 -8 -9 -10 -13 -16 -15 -17 -19 -22 -24 -26 -29 -34 -22 -7
9 10 10 8 7 10 11 10 10 10 10 10 10 10 9 9 7 7 5 -2 -6 -5 -5 -5 -5 -5 -7 -8 -9 -9 -14 -15 -14 -14 -17 -20 -23 -25 -30 -34 -33 -32 -18
9 9 9 11 10 8 9 9 10 9 9 9 9 9 9 9 7 8 5 -3 2 2 -3 -6 -5 -8 -9 -10 -11 -13 -14 -14 -7 -7 -10 -14 -25 -30 -33 -32 -31 -30 -19
6 -2 5 8 10 10 9 9 9 9 8 9 8 8 8 8 7 6 2 3 0 -2 -2 -3 -4 -4 -4 -8 -8 -5 -3 -1 -1 -1 -3 -20 -27 -30 -33 -31 -30 -29 -14
3 -2 -3 -0 4 7 9 8 8 8 8 7 8 8 8 6 4 2 2 4 4 2 1 -0 -3 -4 -3 -2 0 1 0 -0 -5 -17 -13 -20 -28 -28 -21 -25 -27 -20 -9
-1 -2 -1 0 0 4 7 6 6 7 6 6 6 6 6 6 4 4 3 1 1 1 1 1 1 1 1 1 0 -1 -1 -8 -9 -14 -26 -26 -23 -14 -19 -26 -23 -15 -16
-1 -0 0 0 4 3 6 6 6 6 6 5 5 5 4 3 3 2 0 1 1 2 1 0 1 1 -0 -1 -3 -8 -8 -18 -22 -15 -13 -11 -11 -16 -23 -18 -13 -14 -13
2 3 0 -1 2 2 5 6 6 5 5 4 3 3 2 2 1 1 1 1 1 1 0 -0 -1 -2 -3 -9 -15 -15 -13 -9 -8 -11 -14 -14 -12 -19 -15 -10 -12 -15 -14
4 4 4 4 4 5 5 5 4 4 3 2 1 0 0 0 1 1 0 0 -0 -1 -2 -2 -3 -13 -15 -9 -8 -8 -8 -9 -9 -11 -12 -13 -14 -10 -11 -12 -13 -13 -12
4 4 3 3 3 3 2 2 2 1 0 0 -0 -0 0 0 0 -0 -1 -1 -2 -1 -11 -13 -11 -8 -7 -9 -8 -8 -8 -8 -10 -16 -11 -13 -11 -12 -12 -13 -12 -12 -10
2 2 2 1 1 0 -1 -1 -2 -2 -1 -1 -0 -1 -1 -1 -1 -1 -2 -7 -22 -22 -17 -14 -8 -10 -8 -8 -8 -9 -11 -10 -9 -12 -9 -12 -11 -11 -12 -12 -11 -11 -11
1 1 -0 -1 -1 -2 -2 -1 -1 -1 -1 -1 -1 -2 -2 -3 -8 -16 -22 -23 -23 -22 -19 -15 -11 -10 -9 -9 -9 -9 -9 -9 -11 -12 -9 -9 -10 -10 -11 -11 -11 -11 -11
-0 -1 -1 -1 -1 -1 -2 -2 -1 -1 -2 -2 -1 -4 -15 -21 -24 -28 -27 -22 -17 -12 -9 -12 -15 -18 -20 -20 -19 -18 -19 -14 -13 -11 -11 -10 -11 -10 -10 -11 -11 -11 -10
-2 -2 -2 -2 -2 -2 -2 -2 -2 -2 -8 -20 -22 -24 -27 -28 -26 -24 -17 -7 -8 -11 -13 -16 -12 -13 -16 -19 -17 -14 -13 -12 -11 -9 -9 -10 -10 -9 -9 -10 -10 -10 -10

GFSMA_850_dewp_036.txt.gz
Dewpoint
12 11 12 12 11 9 9 9 6 4 2 3 4 4 4 0 1 1 3 3 -3 -1 -4 -6 -8 -8 -8 -11 -15 -19 -18 -17 -16 -16 -16 -16 -16 -16 -17 -17 -17 -17 -17
12 12 11 12 12 12 12 11 10 7 5 3 2 4 4 2 1 2 3 1 -3 -10 -7 -8 -9 -9 -11 -14 -17 -18 -17 -16 -16 -16 -16 -16 -17 -17 -18 -18 -18 -18 -18
12 12 12 11 11 12 12 12 11 9 6 4 2 3 4 4 -0 1 -1 -0 -4 -10 -10 -9 -9 -10 -12 -14 -17 -16 -16 -15 -15 -16 -16 -17 -18 -18 -19 -19 -19 -19 -19
12 12 12 11 11 10 12 12 11 10 7 5 4 3 4 4 3 -0 -0 -2 -4 -8 -12 -11 -12 -12 -13 -15 -16 -16 -15 -14 -14 -15 -16 -17 -17 -18 -19 -20 -18 -17 -14
12 12 12 11 11 12 11 12 11 11 9 7 6 4 4 5 3 0 -1 -2 -4 -9 -10 -12 -13 -14 -13 -16 -15 -15 -14 -13 -13 -13 -15 -16 -17 -18 -20 -20 -16 -9 -3
12 11 11 12 11 11 12 11 10 11 10 8 6 4 4 4 4 1 -1 -2 -4 -8 -9 -10 -12 -13 -14 -16 -15 -14 -13 -12 -12 -12 -14 -16 -17 -18 -19 -19 -11 -3 2
13 11 10 9 12 11 11 11 11 11 9 7 5 4 3 4 4 2 -1 -2 -4 -6 -9 -10 -11 -12 -12 -13 -13 -12 -12 -12 -11 -12 -14 -15 -16 -17 -19 -16 -10 -4 1
13 14 12 11 9 12 12 11 12 11 10 7 6 4 2 3 5 4 0 -2 -4 -6 -8 -11 -11 -12 -11 -10 -10 -10 -10 -11 -11 -11 -13 -15 -15 -16 -19 -20 -15 -6 1
10 11 13 12 13 11 12 11 11 11 11 8 7 6 4 5 4 4 3 -1 -4 -5 -7 -9 -11 -11 -10 -9 -8 -9 -9 -10 -10 -10 -12 -15 -15 -16 -18 -18 -12 -3 1
5 5 9 11 11 12 12 12 10 9 11 10 7 7 6 5 3 2 2 -1 -4 -4 -6 -7 -9 -10 -9 -9 -8 -7 -8 -8 -9 -10 -11 -16 -16 -15 -17 -16 -9 -3 1
10 9 9 8 11 11 12 12 12 10 8 9 9 8 7 6 3 3 2 1 -2 -4 -5 -6 -7 -8 -9 -8 -8 -8 -7 -7 -9 -10 -11 -15 -15 -16 -17 -17 -13 -9 -8
10 10 10 11 11 10 11 11 11 11 11 10 9 9 8 7 7 2 2 3 1 -1 -4 -5 -6 -7 -7 -7 -8 -8 -7 -7 -9 -10 -12 -16 -15 -16 -17 -18 -21 -24 -27
10 10 10 11 11 10 10 10 11 11 10 10 9 9 9 7 8 8 5 1 1 -2 -4 -4 -5 -6 -6 -7 -7 -6 -8 -8 -9 -10 -14 -15 -16 -16 -16 -18 -21 -26 -30
9 10 10 10 9 10 10 9 9 9 10 9 9 9 8 8 8 8 6 5 -0 -2 -4 -3 -0 -4 -6 -6 -4 -6 -5 -7 -11 -14 -14 -14 -10 -7 -7 -15 -25 -31 -33
9 9 8 8 9 8 9 9 8 8 8 9 9 8 8 7 8 7 6 5 4 1 0 -1 -2 -2 -3 -0 -2 -3 -2 -9 -2 -7 -7 -1 1 -0 -8 -17 -16 -14 -28
7 5 -0 -1 4 8 8 8 8 8 8 9 8 8 7 7 7 7 6 5 4 4 1 -1 1 3 2 1 2 -0 -0 -3 -1 -0 1 -0 -3 -8 -8 -13 -27 -27 -27
6 4 1 -1 -1 -1 3 5 7 7 7 7 7 7 7 7 6 6 5 4 3 2 2 3 3 2 2 2 1 1 -1 -0 0 0 -1 -4 -8 -16 -23 -26 -22 -17 -27
4 1 0 0 0 -0 -1 -0 3 3 3 6 6 5 5 5 5 4 3 2 2 2 2 2 2 2 1 1 -0 -1 -1 -0 -1 -6 -7 -15 -17 -14 -17 -19 -20 -25 -22
2 2 1 1 0 1 3 3 2 3 3 5 6 5 4 3 2 2 1 1 2 1 2 1 1 0 -0 -1 -1 -1 -1 -3 -14 -18 -19 -12 -16 -17 -19 -13 -11 -12 -9
3 3 3 3 3 3 4 3 2 5 4 5 4 4 2 2 1 1 1 0 0 1 1 0 -0 -0 -1 -1 -2 -11 -14 -13 -14 -17 -11 -14 -19 -16 -20 -14 -12 -11 -10
4 4 3 3 3 3 4 4 4 4 3 3 2 1 1 1 0 0 -1 -0 -1 -0 -0 -1 -1 -2 -4 -12 -10 -10 -10 -10 -13 -14 -13 -23 -19 -19 -16 -14 -13 -13 -12
3 3 3 3 2 2 3 2 2 1 1 0 0 -0 -0 -0 -0 -1 -1 -1 -1 -1 -1 -2 -10 -17 -12 -8 -10 -9 -9 -10 -12 -21 -19 -24 -14 -14 -13 -12 -12 -12 -9
2 2 2 2 2 1 -1 -1 -1 -1 -1 -1 -1 -1 -1 -1 -1 -1 -1 -2 -4 -14 -20 -18 -19 -16 -13 -10 -10 -12 -14 -15 -19 -20 -15 -15 -13 -13 -12 -12 -12 -11 -11
1 1 0 -0 -1 -1 -1 -1 -1 -1 -1 -1 -1 -1 -2 -2 -2 -3 -9 -20 -21 -22 -22 -19 -18 -16 -14 -14 -13 -14 -17 -20 -21 -18 -13 -13 -12 -12 -12 -12 -11 -11 -11
-1 -1 -2 -2 -1 -1 -1 -2 -2 -2 -2 -2 -2 -5 -10 -17 -20 -22 -22 -21 -17 -13 -10 -10 -14 -19 -20 -21 -21 -22 -22 -19 -15 -13 -12 -10 -11 -11 -12 -12 -12 -11 -11
-2 -2 -2 -2 -2 -2 -2 -2 -2 -4 -14 -19 -21 -23 -25 -26 -26 -24 -21 -14 -12 -12 -14 -15 -17 -18 -19 -21 -19 -15 -13 -12 -11 -11 -10 -10 -11 -10 -10 -12 -11 -11 -11

GFSMA_850_dewp_042.txt.gz
Dewpoint
5 5 7 8 9 7 7 3 1 2 2 2 2 2 2 3 2 1 0 1 1 2 1 -1 -7 -8 -10 -9 -10 -15 -18 -17 -16 -15 -15 -16 -16 -16 -16 -16 -16 -16 -16
10 10 10 10 11 11 10 10 8 7 7 7 4 3 3 2 3 3 2 2 1 2 1 0 -5 -10 -11 -10 -12 -15 -18 -16 -16 -15 -15 -15 -15 -16 -16 -17 -17 -17 -17
10 10 11 11 12 12 11 11 11 10 9 9 10 8 5 2 2 3 3 2 2 2 1 1 -3 -8 -11 -10 -12 -15 -17 -16 -15 -14 -14 -14 -15 -15 -16 -17 -18 -18 -19
12 11 11 10 11 12 12 11 10 11 11 10 10 10 8 5 3 2 3 3 2 2 1 -0 -2 -7 -10 -10 -11 -14 -16 -16 -15 -13 -13 -13 -14 -14 -15 -17 -18 -19 -20
12 12 11 11 11 12 12 11 11 11 11 10 11 11 10 9 6 4 3 3 3 2 2 1 -1 -5 -9 -9 -9 -11 -15 -15 -14 -13 -13 -13 -13 -13 -14 -15 -17 -19 -19
13 13 12 12 11 12 12 11 11 11 11 11 11 11 11 9 9 6 4 3 3 3 2 2 -0 -3 -7 -7 -8 -9 -9 -14 -13 -13 -12 -12 -13 -13 -14 -16 -17 -17 -16
11 11 11 11 12 12 12 11 11 11 10 10 10 11 10 9 9 10 6 4 3 3 3 2 1 -1 -5 -6 -7 -10 -8 -6 -13 -13 -12 -12 -12 -13 -14 -15 -16 -16 -15
11 11 10 10 10 11 12 11 11 11 10 9 11 10 10 9 9 9 8 6 5 3 3 3 2 0 -2 -4 -6 -8 -11 -11 -9 -10 -11 -11 -12 -13 -14 -15 -15 -15 -12
8 10 9 10 11 10 10 10 10 11 10 9 9 9 9 8 8 7 7 6 5 4 3 3 3 1 -1 -3 -4 -5 -8 -13 -11 1 -1 -6 -10 -12 -14 -15 -15 -13 -5
2 3 5 7 7 8 10 10 10 10 11 11 10 10 10 10 8 6 6 6 5 3 2 2 2 2 -0 -1 -2 -3 -6 -11 -12 -2 3 -0 -5 -6 -11 -9 -4 -5 -0
-1 0 4 7 8 8 7 10 9 10 10 10 9 10 11 10 10 9 7 6 6 5 4 3 1 1 -0 -0 0 -2 -4 -6 -8 -9 -6 1 1 1 0 1 1 1 -3
-4 -2 1 5 7 10 9 9 9 10 10 10 10 10 10 9 9 8 7 7 6 5 4 4 2 1 -0 0 2 1 -1 -6 -7 -7 -8 -3 -0 0 -0 1 0 -1 -11
-4 -2 5 8 10 9 10 9 9 9 8 7 8 8 8 9 9 8 8 8 6 6 5 4 3 1 1 1 2 1 -1 -3 -5 -5 -4 -3 -5 -4 -4 -2 -0 -3 -3
1 1 3 6 9 8 7 7 8 8 6 7 7 8 8 8 8 9 8 7 6 6 6 5 4 2 0 -1 3 2 -1 -1 -0 -3 -4 -2 0 -0 1 2 0 -0 -0
3 7 7 7 7 6 7 6 5 4 6 7 6 7 6 6 7 7 7 7 6 5 5 5 4 4 3 2 2 1 1 -0 -0 0 1 0 -0 1 1 1 0 0 0
2 5 7 6 7 4 -0 -3 -2 -2 0 1 4 5 5 5 4 5 6 6 5 5 4 3 3 3 3 2 2 1 0 0 0 0 -0 -0 -0 -0 -0 -1 -1 -1 -4
4 4 5 5 4 1 -1 -1 -0 0 0 1 1 1 3 5 6 6 6 5 5 4 3 3 2 2 2 2 1 1 -0 1 0 0 -0 -1 -1 -2 -2 -2 -3 -5 -4
4 4 4 4 3 1 1 1 1 1 2 3 3 3 4 4 5 4 4 3 3 3 2 1 0 1 1 1 0 0 0 -1 -1 -0 -2 -2 -2 -2 -3 -6 -5 -6 -7
2 3 2 2 2 2 2 2 1 2 2 2 3 3 3 3 3 3 3 3 2 1 1 0 0 0 -0 -0 -0 -1 -1 -2 -1 -2 -2 -3 -10 -7 -6 -8 -10 -9 -11
3 3 3 3 2 2 2 2 2 2 2 2 2 2 2 3 3 2 2 1 1 0 -0 -0 -1 -1 -1 -1 -1 -2 -1 -1 -3 -6 -10 -11 -13 -15 -15 -18 -21 -22 -22
3 3 3 2 2 1 1 1 1 1 1 1 1 1 2 2 1 1 0 0 -0 -1 -1 -1 -1 -1 -1 -1 -2 -2 -3 -6 -10 -12 -15 -14 -18 -21 -23 -22 -20 -18 -16
2 2 1 1 1 0 0 0 1 1 1 0 0 0 0 0 -0 -0 -0 0 -1 -1 -1 -2 -2 -2 -3 -3 -8 -10 -11 -13 -13 -14 -18 -21 -21 -23 -17 -15 -14 -14 -13
1 1 0 0 -0 -0 -1 -1 -1 -0 -0 -1 -1 -1 -1 -1 -1 -2 -2 -2 -2 -2 -3 -3 -6 -11 -13 -12 -12 -13 -14 -15 -15 -17 -17 -25 -18 -16 -14 -13 -12 -12 -12
-0 -1 -1 -1 -2 -2 -2 -2 -2 -2 -2 -2 -2 -2 -2 -2 -3 -3 -3 -4 -10 -15 -19 -19 -19 -17 -15 -15 -14 -14 -14 -15 -17 -23 -19 -15 -14 -13 -13 -12 -12 -12 -12
-2 -2 -2 -3 -4 -8 -12 -15 -15 -19 -15 -14 -14 -16 -19 -22 -24 -26 -27 -26 -25 -22 -17 -16 -15 -14 -13 -14 -12 -12 -15 -17 -19 -15 -13 -12 -12 -12 -13 -13 -13 -12 -11
-8 -16 -21 -22 -22 -23 -23 -24 -25 -25 -25 -25 -25 -24 -23 -24 -24 -24 -24 -22 -20 -17 -15 -15 -13 -14 -18 -20 -18 -17 -17 -14 -12 -12 -12 -11 -11 -11 -11 -12 -11 -11 -11

GFSMA_850_dewp_045.txt.gz
Dewpoint
5 0 2 5 7 8 6 6 5 2 2 2 2 2 2 2 2 2 2 1 1 2 3 3 3 0 -8 -11 -10 -11 -16 -18 -17 -16 -15 -15 -15 -16 -16 -16 -16 -15 -15
9 9 9 9 9 9 10 10 10 10 8 8 8 6 4 3 2 2 2 2 2 2 3 3 3 2 -2 -10 -11 -11 -15 -17 -16 -15 -15 -15 -15 -15 -15 -16 -16 -16 -16
10 10 10 10 10 11 11 12 11 11 10 10 10 10 9 8 6 4 2 2 2 2 3 3 3 2 1 -5 -5 -11 -14 -17 -15 -15 -14 -14 -15 -15 -16 -16 -16 -17 -17
12 12 11 10 10 11 12 12 12 12 11 11 11 11 11 10 9 8 6 3 2 2 3 3 2 2 1 1 1 3 -9 -15 -15 -15 -14 -13 -14 -15 -15 -16 -17 -18 -18
12 12 12 11 11 11 11 12 12 12 12 11 11 11 11 11 11 10 9 9 6 4 3 3 3 2 1 1 3 6 5 -4 -14 -14 -14 -13 -14 -14 -14 -15 -17 -17 -15
13 13 13 13 12 12 12 12 12 12 12 11 11 11 11 11 10 10 9 9 9 8 5 3 3 3 2 1 2 6 6 5 -5 -13 -13 -13 -14 -14 -14 -15 -16 -14 -11
12 12 12 12 12 12 12 12 12 12 11 11 11 10 9 10 10 10 10 9 8 9 7 4 2 3 2 2 -0 2 5 5 5 -2 -11 -12 -12 -14 -14 -14 -13 -9 -7
11 10 11 11 11 11 11 11 10 10 10 10 10 11 10 9 8 8 9 8 8 9 8 5 3 2 3 2 1 -1 -1 5 5 5 1 -3 -7 -8 -7 -5 -6 -9 -3
11 12 11 10 11 11 10 10 10 10 10 10 11 11 10 9 9 8 8 8 7 6 6 3 2 1 2 2 2 1 0 -1 3 4 4 4 3 2 0 -3 -2 2 3
3 4 3 3 5 6 6 8 8 9 10 10 10 10 11 11 10 10 9 8 7 7 7 5 2 1 2 2 2 2 1 0 -2 -6 2 4 4 3 3 2 2 2 3
-0 0 0 0 0 5 6 8 9 10 9 10 10 10 10 10 10 9 8 8 8 8 7 7 6 6 4 2 2 2 2 2 -0 -4 0 3 3 3 3 2 2 2 3
-4 -4 -4 -3 -1 4 7 9 10 10 9 8 7 7 9 9 9 9 9 8 8 7 7 7 6 6 6 5 3 3 3 2 3 1 1 0 1 2 2 2 1 1 -1
-3 -3 -3 -2 4 8 9 10 9 9 7 7 8 7 7 6 6 7 8 8 7 7 7 6 6 6 5 5 4 3 3 3 3 2 1 1 0 0 -1 -1 -3 -2 -0
0 -0 0 2 4 7 10 9 8 7 7 8 6 7 5 6 6 6 6 7 7 6 5 5 5 5 4 5 5 3 2 2 3 1 1 1 -0 -1 -0 0 -1 1 1
2 1 4 6 6 6 7 7 7 7 5 2 4 6 7 7 7 5 6 6 6 5 5 4 4 3 3 3 3 3 2 2 2 1 0 0 0 0 -0 -0 -1 -0 -0
2 2 3 7 6 5 5 3 -0 -2 -1 -1 0 1 2 3 5 6 6 5 5 5 4 4 4 4 3 2 2 2 1 1 1 -0 -0 0 -0 -1 -1 -1 -1 -1 -1
3 4 4 5 5 4 3 1 -0 -0 -0 -0 1 1 1 2 5 5 4 4 4 4 4 4 3 3 1 -0 -0 0 -1 -1 -0 -1 -1 -1 -1 -2 -1 -1 -2 -2 -2
3 3 4 4 3 3 2 1 1 1 1 1 1 0 1 3 3 4 3 3 3 3 3 2 1 1 1 -0 -1 -1 -2 -1 -1 -1 -1 -1 -1 -2 -1 -2 -2 -3 -3
2 2 3 3 2 2 1 1 1 1 1 1 1 1 1 2 2 2 2 3 2 2 1 1 0 1 -0 -1 -1 -1 -2 -2 -2 -2 -2 -2 -2 -2 -2 -4 -4 -6 -8
3 3 3 3 2 2 1 1 1 1 1 1 1 1 1 1 2 2 2 2 1 1 1 0 -0 -0 -0 -1 -1 -2 -2 -2 -2 -2 -2 -3 -5 -10 -13 -13 -13 -16 -17
3 3 3 2 1 1 1 1 1 1 1 1 1 1 1 1 1 0 0 -0 -0 -0 -0 -0 -0 -1 -1 -2 -2 -2 -2 -3 -3 -6 -10 -13 -15 -18 -18 -21 -24 -24 -22
2 2 1 1 1 0 0 0 1 0 0 0 0 0 -0 -0 -0 -0 -0 -0 -0 -1 -1 -1 -2 -2 -3 -3 -5 -7 -9 -10 -13 -16 -19 -20 -21 -22 -24 -24 -21 -17 -16
1 1 0 0 -0 -1 -1 -1 -1 -1 -1 -1 -1 -1 -1 -1 -1 -1 -2 -2 -2 -2 -2 -3 -6 -9 -12 -12 -11 -11 -12 -14 -16 -16 -16 -24 -24 -22 -17 -16 -15 -14 -13
-0 -1 -1 -2 -2 -3 -6 -8 -9 -10 -9 -8 -6 -4 -4 -6 -7 -9 -13 -14 -15 -18 -19 -19 -19 -18 -17 -16 -15 -15 -14 -14 -16 -19 -21 -21 -16 -15 -13 -13 -13 -13 -12
-2 -2 -4 -11 -20 -22 -24 -24 -26 -26 -26 -24 -24 -23 -24 -24 -24 -26 -25 -25 -24 -22 -19 -18 -16 -15 -15 -15 -14 -17 -19 -18 -21 -19 -13 -12 -13 -13 -13 -13 -13 -13 -12
-12 -20 -22 -24 -25 -26 -27 -28 -29 -30 -29 -28 -28 -27 -25 -24 -23 -24 -25 -24 -24 -23 -22 -20 -18 -18 -17 -18 -20 -18 -18 -18 -13 -12 -12 -11 -12 -11 -11 -12 -12 -11 -11

GFSMA_850_dewp_048.txt.gz
Dewpoint
6 4 -1 1 4 5 8 7 8 9 8 6 4 3 3 2 2 2 2 2 2 2 2 3 3 3 1 -1 -9 -11 -11 -16 -17 -16 -15 -14 -14 -15 -15 -15 -15 -14 -13
9 9 8 8 8 9 9 10 11 10 10 10 9 9 9 8 8 6 4 3 2 2 2 2 3 3 4 5 -1 -10 -10 -13 -16 -14 -15 -15 -14 -14 -14 -14 -15 -14 -12
11 10 10 10 10 10 11 11 11 11 11 11 10 10 10 10 10 10 9 7 5 3 3 2 3 3 3 6 5 5 -3 -9 -14 -11 -12 -13 -14 -14 -14 -14 -14 -14 -11
12 12 11 11 11 11 11 11 11 12 12 12 11 11 11 11 11 11 11 10 9 8 6 4 3 3 3 3 6 7 7 3 -10 -14 -13 -13 -13 -15 -14 -14 -15 -15 -13
12 12 12 12 12 12 12 12 12 12 12 12 12 12 12 12 11 11 9 9 9 9 9 8 5 3 3 3 4 7 8 7 5 -8 -13 -13 -13 -14 -16 -14 -15 -13 -10
13 13 13 13 13 13 13 12 12 12 12 12 12 11 11 11 10 10 10 10 9 9 9 9 9 5 3 3 3 6 7 7 7 5 -3 -9 -11 -12 -14 -13 -11 -8 -5
12 13 13 12 12 11 11 11 11 11 11 10 11 10 10 9 10 9 9 8 8 8 9 8 7 7 3 3 3 3 6 7 7 6 4 -2 -8 -9 -6 -4 -0 -1 2
12 13 13 12 10 11 10 10 11 11 11 10 11 12 11 10 10 9 9 8 8 8 8 7 7 5 3 2 2 3 3 6 6 6 6 4 4 2 2 3 3 3 3
12 12 12 11 12 12 11 10 11 10 10 9 10 11 10 9 8 9 8 9 9 9 8 7 7 6 3 2 2 3 3 3 4 5 6 5 4 4 3 4 3 3 3
3 4 4 5 5 4 3 4 7 8 9 8 10 9 9 9 9 9 9 8 8 7 7 7 7 7 6 4 5 4 4 4 3 3 5 6 5 4 4 3 3 3 3
-1 -0 -0 0 -0 -0 0 2 8 8 9 10 9 9 8 9 9 9 9 8 7 7 7 5 5 7 7 6 7 4 4 4 3 4 3 2 2 5 4 3 3 3 3
-4 -4 -4 -4 -4 -3 -1 0 9 9 9 8 9 7 7 8 7 8 8 7 8 6 5 5 5 5 5 5 6 6 6 5 4 3 3 2 1 3 3 3 2 1 1
-2 -2 -2 -3 -3 -3 0 6 7 9 9 9 7 6 6 6 7 7 6 6 6 5 5 4 4 4 4 4 3 3 5 5 4 4 4 3 3 2 2 2 2 2 0
-1 0 1 1 1 4 5 8 8 10 9 7 6 7 6 6 8 7 7 7 6 4 5 5 4 4 3 3 3 3 3 4 4 3 3 3 2 2 2 2 2 1 1
0 1 1 2 6 7 7 7 7 7 7 7 7 3 3 6 7 6 7 5 5 4 4 4 4 3 4 3 3 2 2 3 2 2 3 1 2 2 1 1 0 0 0
2 2 2 3 5 7 6 5 4 2 0 1 1 1 1 1 1 2 5 4 4 4 4 4 4 3 3 2 2 1 1 1 1 1 1 0 1 1 -0 -0 -0 -1 -1
3 3 4 4 5 5 5 4 2 1 1 1 1 1 0 0 0 2 3 3 3 3 3 3 3 2 2 2 1 1 -0 -1 -1 -0 -0 -1 -1 -1 -1 -1 -1 -1 -1
3 3 4 4 4 4 3 2 2 1 1 1 1 0 1 1 1 2 2 2 3 3 2 2 2 2 1 1 0 0 -0 -1 -1 -1 -1 -1 -1 -1 -2 -2 -2 -2 -2
2 2 3 3 3 2 2 1 1 1 1 1 1 1 1 1 2 2 2 2 2 1 1 1 1 1 0 0 0 -1 -1 -2 -2 -2 -2 -1 -1 -2 -2 -2 -2 -3 -3
2 3 3 3 2 2 2 1 1 1 1 1 1 1 1 1 1 1 1 1 1 0 0 0 0 0 -0 -0 -1 -1 -1 -2 -2 -2 -2 -2 -2 -2 -2 -4 -5 -6 -10
2 3 3 2 2 1 1 1 1 1 1 1 1 1 1 1 0 0 -0 -0 -1 -1 -0 -1 -1 -1 -1 -1 -2 -2 -2 -3 -3 -3 -5 -7 -10 -13 -14 -15 -16 -19 -23
2 2 2 1 0 0 -0 0 0 0 0 -0 -0 -0 -0 -1 -1 -1 -1 -1 -2 -2 -2 -2 -2 -2 -3 -4 -6 -8 -10 -12 -13 -16 -18 -20 -19 -23 -22 -23 -25 -25 -22
1 1 1 -0 -0 -1 -2 -2 -2 -2 -2 -2 -2 -2 -2 -2 -2 -3 -3 -3 -4 -5 -8 -13 -14 -16 -17 -17 -17 -17 -17 -17 -18 -19 -19 -24 -24 -25 -22 -20 -18 -17 -16
0 -0 -1 -2 -6 -17 -23 -24 -25 -25 -25 -25 -24 -23 -21 -21 -23 -24 -25 -25 -24 -23 -22 -22 -21 -18 -17 -16 -16 -17 -17 -18 -19 -20 -22 -24 -20 -16 -15 -14 -14 -14 -14
-1 -2 -8 -21 -25 -27 -28 -29 -29 -30 -30 -29 -28 -28 -27 -26 -24 -28 -26 -26 -24 -23 -22 -20 -19 -16 -15 -13 -12 -15 -17 -18 -19 -20 -14 -13 -13 -13 -13 -13 -13 -13 -13
-7 -20 -24 -25 -27 -30 -30 -30 -30 -30 -29 -29 -28 -27 -25 -24 -25 -24 -25 -24 -24 -24 -23 -22 -21 -21 -22 -22 -21 -21 -19 -19 -16 -13 -12 -12 -12 -11 -11 -11 -11 -11 -11

GFSMA_850_dewp_051.txt.gz
Dewpoint
5 5 -0 -1 1 3 7 9 8 9 9 9 8 8 8 8 7 6 6 5 3 2 2 2 3 3 3 3 2 -1 -11 -11 -15 -16 -15 -13 -13 -13 -13 -13 -13 -11 -10
8 9 8 6 7 8 9 10 10 11 11 10 10 10 10 10 10 10 9 9 7 5 4 3 3 3 4 4 4 4 0 -8 -12 -15 -14 -14 -14 -13 -13 -13 -13 -12 -10
11 11 10 10 10 10 10 11 11 11 11 11 11 11 11 11 11 11 10 10 10 9 8 6 4 3 4 5 7 8 7 4 -2 -11 -13 -13 -13 -13 -14 -13 -13 -12 -10
12 12 12 11 12 11 11 11 11 11 11 11 11 11 12 12 11 11 11 10 9 9 9 9 8 6 3 6 8 9 8 8 6 -1 -4 -10 -12 -12 -14 -14 -13 -11 -10
12 12 12 12 12 12 13 13 12 12 12 12 12 12 11 11 10 10 10 10 9 10 10 10 9 8 6 4 4 8 8 8 7 7 2 -1 -7 -11 -12 -14 -12 -13 -10
12 12 12 13 13 13 13 13 12 12 11 11 10 10 10 8 10 10 10 10 10 10 9 10 9 8 7 5 3 4 8 8 7 7 7 2 -2 -7 -7 -6 -9 -9 -7
12 12 13 13 13 12 11 10 10 10 10 10 10 9 8 9 9 8 8 8 9 8 8 8 8 8 6 5 4 3 4 7 7 7 7 6 5 -1 2 1 3 2 0
12 12 11 10 11 12 12 11 11 11 11 10 11 11 10 8 8 8 8 8 7 8 8 8 8 7 6 5 4 3 3 6 7 8 8 6 5 5 1 4 4 4 4
12 12 12 12 12 12 12 11 12 10 9 10 9 10 10 8 8 8 8 8 7 7 8 8 8 7 7 7 5 2 3 4 5 6 7 8 6 5 3 3 4 4 4
5 5 4 4 4 4 4 4 4 5 7 9 10 10 9 10 9 9 8 8 8 8 6 6 6 5 5 6 6 6 4 4 5 6 5 4 6 6 5 3 3 4 3
-1 -1 -1 -1 -1 -1 -2 -2 -1 0 4 10 9 9 9 8 8 8 7 6 7 4 6 6 5 5 5 5 6 5 6 6 5 5 6 5 5 5 5 5 4 3 2
-4 -4 -4 -4 -5 -5 -4 -4 -2 -1 7 10 9 10 9 8 8 8 7 6 6 7 4 5 5 5 4 4 4 4 5 5 5 5 5 6 4 3 3 3 5 3 3
-3 -2 -2 -1 -1 -2 -2 -2 -1 6 7 10 10 9 8 7 7 8 7 6 6 6 3 1 3 4 4 3 3 3 2 3 3 4 4 5 5 4 2 3 4 4 3
-2 -2 -1 -1 0 2 4 4 5 10 8 10 10 8 6 7 8 5 6 6 5 5 4 3 3 3 2 2 3 3 1 2 2 2 4 4 5 4 3 3 3 3 2
-1 -0 -0 0 2 5 7 7 6 7 8 8 7 7 7 6 3 5 6 5 5 5 4 3 3 3 3 2 2 2 2 2 1 2 3 3 4 4 3 3 2 2 2
1 1 1 2 3 4 6 6 5 5 4 3 2 0 0 2 2 4 3 4 4 4 3 3 3 3 2 1 1 1 1 1 1 1 2 2 3 2 2 2 2 1 1
2 2 3 3 4 5 5 5 4 3 2 1 1 1 1 1 1 1 1 2 3 3 2 2 2 2 1 1 1 1 0 -0 0 1 2 2 1 1 1 1 0 -0 -1
2 2 3 3 4 4 4 4 3 2 2 2 2 1 1 1 1 1 1 2 2 2 2 2 1 1 1 1 1 0 0 -1 -1 -0 0 -0 -1 -1 -1 -1 -1 -1 -1
2 2 2 3 3 3 3 2 2 2 2 1 1 1 1 1 1 1 1 2 2 1 1 1 1 1 0 0 -0 -0 -1 -1 -1 -2 -1 -1 -2 -2 -2 -1 -1 -2 -2
1 2 2 3 3 2 2 2 1 1 1 1 1 1 1 1 1 1 1 1 0 -0 -0 0 0 -0 -0 -1 -1 -1 -2 -2 -1 -1 -2 -2 -2 -2 -2 -2 -2 -2 -2
1 2 3 3 2 2 1 1 1 1 1 1 1 1 1 0 0 -0 -0 -1 -1 -1 -1 -1 -2 -1 -2 -2 -2 -3 -3 -4 -5 -5 -5 -5 -6 -8 -10 -12 -13 -14 -14
1 2 2 1 1 0 0 0 0 0 0 0 -0 -0 -1 -1 -1 -1 -2 -2 -2 -2 -2 -2 -2 -3 -4 -6 -9 -13 -16 -17 -17 -18 -19 -20 -20 -22 -23 -24 -25 -25 -26
1 1 1 0 -0 -1 -2 -2 -2 -3 -4 -5 -6 -6 -5 -6 -6 -8 -10 -15 -21 -23 -24 -23 -21 -21 -21 -20 -20 -19 -19 -18 -19 -19 -21 -25 -25 -24 -23 -22 -21 -19 -18
1 0 -0 -2 -6 -16 -24 -26 -26 -26 -27 -27 -27 -26 -26 -26 -27 -26 -26 -25 -25 -24 -23 -23 -23 -22 -21 -20 -20 -19 -18 -19 -21 -21 -22 -22 -18 -14 -14 -14 -14 -14 -14
-0 -1 -4 -18 -24 -27 -28 -29 -30 -30 -29 -29 -28 -29 -28 -27 -27 -28 -27 -26 -26 -25 -25 -25 -24 -23 -22 -21 -21 -20 -20 -21 -22 -19 -15 -13 -13 -13 -13 -13 -12 -12 -12
-2 -14 -23 -26 -29 -29 -30 -30 -29 -28 -27 -28 -27 -26 -26 -26 -26 -26 -27 -25 -25 -24 -24 -23 -24 -24 -25 -24 -24 -23 -22 -21 -17 -14 -13 -12 -12 -11 -11 -11 -12 -11 -11

GFSMA_850_dewp_054.txt.gz
Dewpoint
5 4 -0 -2 -1 1 3 8 8 9 10 9 10 9 9 9 9 9 9 9 8 5 3 3 3 3 3 4 3 3 2 -4 -10 -14 -15 -14 -13 -13 -14 -14 -13 -13 -12
7 8 9 4 3 6 8 9 10 10 10 10 10 11 10 10 10 10 10 10 10 10 8 6 4 3 5 8 7 6 5 4 -1 -11 -14 -14 -13 -13 -12 -12 -12 -10 -10
9 10 10 10 10 10 10 10 10 11 11 11 10 11 11 11 11 10 10 10 10 9 9 9 9 7 5 7 8 8 8 8 6 3 -7 -13 -13 -12 -12 -11 -10 -9 -5
11 11 12 11 11 12 11 11 11 11 11 12 12 12 12 11 11 11 10 10 9 9 9 10 10 9 8 7 7 8 8 8 8 7 6 -2 -11 -12 -12 -13 -11 -8 -4
11 11 12 12 12 12 12 12 12 13 12 12 12 12 11 11 10 9 9 10 9 10 10 10 10 10 8 7 6 7 9 8 8 7 7 6 2 -9 -11 -12 -12 -8 -7
12 12 12 12 13 13 12 12 12 12 12 12 12 10 9 9 8 8 9 8 8 8 9 10 10 9 9 7 6 6 8 8 8 7 7 7 6 4 -9 -9 -8 -9 -5
12 12 12 12 12 12 13 13 12 11 11 11 11 10 11 10 10 10 7 7 7 8 8 8 8 8 8 7 6 5 5 7 8 8 8 7 7 6 5 -2 1 1 3
12 12 12 11 11 11 10 11 12 12 11 11 12 12 10 8 8 7 7 7 7 8 7 8 8 8 7 7 7 6 4 4 6 8 8 8 8 7 6 5 3 3 4
10 10 11 11 12 12 11 12 12 12 11 11 8 11 10 7 8 8 8 7 7 8 7 7 7 7 7 7 6 6 4 3 4 4 6 8 8 7 6 6 5 3 -0
4 4 5 6 6 5 4 3 2 3 5 7 7 8 10 10 9 9 8 8 7 7 7 7 6 5 6 5 5 6 6 6 5 4 5 6 7 6 5 4 4 5 4
-3 -2 -1 -1 -1 -1 -2 -3 -3 -2 -1 1 4 10 10 9 10 9 8 7 7 6 6 5 5 5 5 4 4 4 4 5 5 6 6 6 7 7 6 4 4 5 4
-5 -4 -5 -4 -4 -5 -5 -4 -4 -4 -2 1 3 11 10 9 9 8 7 7 6 5 6 5 3 4 5 4 4 4 4 3 3 4 5 6 6 7 6 5 5 5 5
-3 -2 -2 -2 -2 -2 -1 -1 -1 -1 -1 5 5 10 10 10 9 8 7 7 6 6 5 5 3 2 2 4 3 2 2 2 1 1 2 3 5 5 7 5 4 3 5
-2 -2 -2 -2 -1 -1 1 2 4 3 3 9 10 10 10 9 8 7 8 7 6 6 4 5 4 3 2 2 2 1 1 2 1 2 2 2 3 5 6 5 4 4 4
-1 -1 -1 -1 -0 1 3 7 7 7 8 8 8 9 8 8 7 7 6 5 5 5 4 4 4 3 3 3 1 1 2 1 1 0 1 2 4 4 5 5 4 4 4
0 0 1 1 2 3 4 5 6 6 5 5 6 6 5 3 1 1 2 4 4 4 4 4 3 3 2 2 1 1 1 0 -0 1 2 2 3 2 3 3 3 3 3
1 1 1 2 3 4 5 5 5 4 3 2 1 1 1 1 1 1 1 2 2 3 3 2 2 2 1 1 1 1 0 -0 0 1 1 2 2 2 2 2 2 2 2
1 1 2 2 3 3 4 4 3 3 3 2 2 2 1 1 1 1 1 1 2 2 2 2 1 1 1 1 0 0 -0 -0 -1 1 1 1 2 1 0 -1 1 1 1
1 1 2 2 3 3 3 3 2 2 2 1 1 1 1 1 1 1 1 1 2 1 1 1 1 1 1 0 -0 -1 -1 -1 -1 -1 -1 -1 -1 -1 -2 -2 -2 -2 -2
2 2 2 2 2 3 3 2 2 1 1 1 1 1 1 1 0 1 1 1 0 0 -0 -0 0 -0 -1 -1 -1 -2 -2 -2 -2 -2 -2 -2 -2 -2 -2 -2 -2 -2 -2
1 1 1 2 3 2 2 1 1 1 1 1 1 1 1 0 0 0 -0 -0 -1 -1 -1 -1 -2 -2 -2 -2 -3 -4 -5 -8 -10 -11 -10 -10 -9 -9 -11 -11 -10 -9 -8
1 1 2 2 2 1 1 0 0 0 1 1 0 -0 -1 -1 -2 -2 -2 -2 -2 -2 -3 -3 -3 -4 -6 -10 -18 -19 -20 -21 -14 -19 -23 -23 -24 -25 -25 -25 -25 -25 -24
1 1 1 1 -0 -0 -1 -1 -1 -1 -2 -3 -5 -7 -8 -8 -9 -13 -17 -23 -25 -25 -25 -24 -21 -20 -19 -21 -21 -20 -20 -20 -14 -17 -25 -24 -25 -25 -24 -24 -24 -23 -22
0 1 0 -0 -1 -4 -13 -21 -22 -26 -29 -28 -28 -27 -26 -25 -25 -26 -26 -25 -25 -24 -24 -24 -24 -22 -21 -21 -22 -22 -20 -20 -19 -17 -23 -19 -15 -14 -14 -14 -15 -14 -14
0 0 -1 -5 -17 -26 -30 -31 -32 -31 -31 -30 -29 -29 -27 -26 -27 -27 -26 -24 -23 -24 -25 -25 -25 -25 -26 -26 -25 -22 -19 -19 -16 -14 -15 -13 -12 -13 -13 -13 -13 -13 -13
-0 -1 -7 -20 -25 -28 -30 -30 -30 -29 -28 -28 -28 -27 -27 -27 -26 -27 -25 -23 -24 -24 -23 -23 -24 -25 -25 -25 -25 -24 -23 -21 -17 -12 -13 -13 -12 -12 -11 -11 -12 -12 -11

GFSMA_850_dewp_057.txt.gz
Dewpoint
6 7 9 9 9 10 10 11 12 11 11 12 12 11 10 10 9 8 9 9 9 9 8 6 4 6 6 6 6 5 4 3 2 -7 -14 -15 -14 -13 -13 -12 -11 -11 -12
11 9 11 9 9 9 11 11 12 12 12 12 12 12 12 12 10 10 10 10 9 10 10 9 8 7 7 9 9 9 8 6 5 3 -5 -13 -14 -13 -13 -12 -12 -10 -10
12 12 12 12 12 11 11 12 12 12 12 12 12 12 12 12 12 12 11 11 10 9 9 9 9 9 9 8 9 9 9 8 8 7 5 0 -11 -13 -12 -12 -11 -10 -7
10 13 13 13 13 13 12 12 13 12 12 12 12 12 12 12 12 12 12 12 11 10 10 9 10 10 10 9 8 9 9 9 8 8 8 7 6 -3 -13 -13 -12 -9 -8
11 11 13 13 13 13 13 13 13 13 13 13 12 12 12 11 12 11 11 11 11 11 9 9 10 10 10 10 9 7 9 9 8 8 8 7 7 6 5 -10 -12 -11 -8
13 13 13 13 13 14 14 13 13 12 13 13 12 11 11 11 10 10 11 10 10 10 9 9 9 9 9 9 9 7 6 8 9 9 8 8 7 7 6 5 -4 -10 -10
13 13 13 14 14 14 14 13 13 13 12 12 12 10 11 11 10 10 10 9 8 8 6 8 7 8 8 8 8 7 6 6 7 8 9 8 8 8 7 6 5 2 -5
14 14 14 14 14 14 13 13 13 13 13 12 12 12 11 8 8 9 8 7 7 7 8 7 7 8 8 7 7 7 7 6 6 7 8 9 9 8 8 7 6 5 4
11 11 11 11 12 13 12 12 12 13 11 11 11 11 10 7 8 8 8 8 8 8 8 7 7 7 6 6 6 6 5 6 6 4 5 6 7 8 8 7 6 5 4
8 6 5 3 3 3 3 3 3 3 3 7 10 11 11 10 9 8 8 8 8 7 7 7 7 6 5 5 6 5 5 6 6 6 5 5 5 7 7 7 6 5 4
-1 -2 -3 -4 -4 -3 -2 -1 -2 -2 -2 -1 7 9 10 9 10 9 9 7 7 6 6 7 6 5 3 4 5 4 4 4 4 4 4 5 5 7 7 8 7 6 4
-4 -5 -5 -6 -5 -5 -5 -5 -4 -4 -2 1 1 9 8 8 9 9 9 8 7 6 6 6 6 3 1 1 2 4 3 2 2 2 2 3 5 6 6 6 7 5 4
-4 -4 -5 -4 -3 -3 -3 -3 -2 -1 -1 1 5 10 9 8 8 9 9 8 7 7 6 5 5 4 3 2 1 1 1 1 0 1 0 -0 0 2 4 5 6 6 5
-2 -2 -2 -2 -2 -2 -2 -1 3 4 5 5 6 8 9 9 9 9 8 7 7 6 5 5 5 5 3 2 1 1 0 -1 1 1 1 1 1 1 1 3 5 4 4
-0 -0 -1 -1 -1 -1 0 2 6 7 7 8 8 8 7 7 8 8 7 7 6 5 4 4 4 4 3 2 1 1 0 1 1 0 -0 0 2 3 3 5 5 4 4
1 1 1 0 1 1 2 3 5 6 6 7 8 7 8 8 7 5 3 3 3 4 4 4 3 3 2 2 1 1 1 0 0 0 1 2 2 3 3 4 4 4 4
1 1 1 1 2 2 3 4 5 5 5 4 4 3 3 2 1 1 1 2 1 2 3 3 2 2 2 1 0 0 0 -0 -0 0 1 1 2 2 2 2 3 3 3
-0 1 1 2 2 3 3 4 4 4 4 3 3 2 2 2 2 1 1 1 1 1 2 2 2 1 1 0 0 0 -0 -1 -1 -1 0 1 1 1 1 1 1 1 1
0 1 1 2 2 3 3 4 4 3 3 3 2 2 2 1 1 1 1 1 1 1 1 1 1 1 0 0 0 -1 -1 -1 -2 -1 -1 -1 -0 -0 -0 -0 -1 -2 -2
1 1 1 1 2 2 3 3 3 3 2 2 2 1 1 1 1 0 0 1 1 1 0 -0 -0 -0 -0 -1 -1 -2 -2 -2 -3 -3 -3 -2 -2 -2 -2 -2 -2 -2 -2
1 1 1 1 2 3 3 3 2 2 1 1 1 1 1 0 0 0 0 -0 -0 -1 -1 -1 -1 -2 -2 -2 -3 -4 -8 -13 -15 -20 -20 -20 -19 -18 -17 -15 -12 -9 -8
1 1 1 1 2 2 2 1 1 0 1 1 1 1 0 -1 -2 -3 -3 -3 -2 -2 -3 -3 -3 -3 -3 -7 -13 -17 -20 -22 -17 -14 -21 -26 -27 -27 -27 -27 -27 -27 -27
1 1 1 2 2 1 0 0 0 -0 -0 -0 -1 -4 -7 -9 -13 -17 -21 -27 -28 -27 -26 -25 -20 -12 -13 -16 -20 -21 -21 -21 -17 -20 -25 -27 -24 -25 -23 -23 -24 -22 -23
1 1 1 1 -0 -1 -1 -1 -3 -7 -13 -18 -20 -21 -23 -27 -28 -28 -29 -29 -29 -28 -27 -26 -25 -23 -22 -22 -21 -20 -22 -23 -22 -14 -21 -21 -17 -16 -15 -15 -15 -15 -15
-0 -0 0 -0 -1 -6 -22 -28 -30 -28 -29 -28 -28 -28 -28 -28 -29 -27 -29 -28 -28 -25 -27 -27 -27 -27 -27 -27 -26 -24 -24 -21 -21 -13 -15 -14 -14 -15 -14 -13 -13 -13 -13
-1 -1 -0 -2 -14 -23 -29 -31 -30 -29 -28 -28 -28 -28 -28 -28 -29 -29 -29 -28 -25 -22 -25 -25 -27 -27 -27 -27 -27 -26 -25 -23 -19 -13 -11 -13 -13 -12 -12 -10 -12 -12 -11

GFSMA_850_dewp_060.txt.gz
Dewpoint
5 1 5 7 4 7 9 10 10 11 11 12 12 11 11 10 10 10 9 8 8 9 9 9 9 8 7 8 8 8 8 8 6 4 1 -9 -15 -14 -14 -13 -12 -12 -12
9 6 8 7 6 6 7 9 10 12 12 12 12 12 12 12 11 11 11 10 10 9 9 10 9 9 8 8 9 9 9 9 8 7 6 3 -7 -14 -14 -13 -12 -11 -11
11 11 11 12 11 9 9 11 11 11 11 10 10 11 12 12 11 11 11 11 11 11 10 9 9 10 10 9 9 9 10 9 9 8 7 7 6 3 -9 -13 -12 -11 -9
10 11 11 12 12 13 12 11 11 12 12 12 11 11 11 11 11 12 11 12 12 11 11 11 10 9 10 10 9 9 9 10 9 9 8 8 7 6 5 -2 -12 -11 -9
11 11 12 13 13 12 12 13 13 13 12 12 12 12 11 12 10 9 8 8 8 10 10 11 9 9 9 10 10 10 9 8 9 9 9 9 8 7 6 6 3 -10 -11
13 12 12 13 13 13 13 13 12 12 12 12 12 13 11 10 10 9 7 8 10 9 9 8 7 8 8 8 8 8 8 7 8 9 9 9 9 8 8 7 6 5 -2
14 14 13 13 13 13 13 12 12 13 12 12 12 12 12 10 9 8 9 9 9 9 7 7 8 8 7 8 7 7 7 7 6 8 8 9 9 8 8 8 7 6 5
14 13 13 14 13 13 12 12 12 12 11 11 11 11 10 9 7 6 9 9 8 7 7 7 7 7 7 7 7 7 7 7 6 6 7 8 8 8 8 8 7 7 5
13 12 12 12 12 13 13 12 12 11 11 11 11 11 9 9 9 8 8 8 8 7 7 7 6 6 6 6 6 5 5 5 5 4 5 5 5 7 7 7 8 6 6
10 11 9 7 4 2 -0 -1 -1 0 2 4 7 8 10 10 8 7 7 8 7 7 7 6 6 7 5 4 2 4 5 4 3 3 5 5 5 5 7 7 8 7 7
6 1 -1 -2 -3 -4 -4 -3 -2 -2 -2 -1 2 5 9 8 9 8 7 7 7 6 7 6 6 6 5 2 1 2 3 4 3 3 2 2 3 4 7 6 7 7 7
-2 -3 -4 -5 -5 -5 -5 -5 -4 -3 -2 -1 5 8 8 8 7 7 8 8 7 6 6 6 5 5 4 2 2 1 -0 1 1 0 -0 0 0 1 2 4 6 5 7
-4 -4 -4 -4 -4 -3 -3 -2 -2 -2 -1 -0 -0 3 6 8 8 8 8 8 9 7 7 5 5 5 5 4 2 1 0 0 -1 -2 -1 -1 -1 -1 -1 -1 2 4 4
-3 -3 -2 -2 -1 -2 -2 -2 -1 -1 3 6 7 7 7 7 7 8 8 9 8 7 6 5 5 4 4 3 2 0 0 -0 -1 -0 1 1 0 0 -0 1 2 3 4
-1 -1 -1 -0 -0 -0 -0 -0 0 1 7 8 7 7 8 8 9 8 7 7 7 7 5 5 5 4 4 3 2 1 -0 0 0 -0 -1 -0 1 2 4 4 5 5 4
-0 0 0 1 1 1 1 2 3 4 6 7 7 6 7 7 7 7 7 7 4 5 5 4 4 4 3 2 1 -0 0 0 -0 -1 -0 1 1 2 2 4 4 4 4
0 -1 -1 -0 1 1 2 3 4 5 6 5 6 6 6 6 6 5 3 2 2 2 3 3 3 3 2 1 0 0 0 -0 -1 -1 -0 -0 1 1 1 1 3 3 3
-0 -1 -1 0 1 1 2 4 3 4 5 5 4 3 3 3 2 2 2 2 1 1 1 2 2 1 1 1 0 0 -0 -1 -1 -1 -1 -0 0 0 0 0 0 1 1
-1 -1 -1 1 1 1 2 3 4 4 4 4 3 3 3 2 2 1 1 1 1 1 1 1 1 0 1 0 0 0 -1 -1 -2 -2 -2 -2 -1 -1 -1 -0 -0 -1 -1
-1 0 1 1 1 1 2 2 3 3 3 3 2 2 2 1 1 1 1 0 0 0 1 0 -0 -1 -1 -1 -1 -2 -2 -3 -4 -7 -9 -9 -6 -4 -3 -3 -2 -2 -2
1 1 1 1 1 1 2 3 3 3 3 2 2 2 1 1 1 0 -0 -0 -0 -0 -0 -1 -1 -1 -2 -3 -5 -8 -13 -19 -21 -23 -21 -19 -23 -23 -22 -22 -20 -19 -18
1 1 1 1 1 1 2 2 2 2 1 1 1 1 1 1 0 -1 -3 -3 -4 -3 -3 -4 -5 -7 -8 -9 -13 -20 -24 -26 -25 -22 -23 -25 -29 -26 -27 -27 -27 -28 -29
1 0 1 1 1 1 1 1 1 1 0 1 0 0 -1 -4 -9 -15 -20 -24 -26 -27 -27 -24 -23 -18 -16 -20 -20 -24 -26 -26 -25 -25 -25 -27 -26 -23 -23 -20 -20 -18 -19
0 1 1 1 1 0 -0 -0 -0 -0 -1 -3 -7 -12 -17 -21 -24 -27 -27 -27 -27 -28 -26 -25 -27 -25 -24 -25 -25 -26 -27 -27 -25 -23 -21 -21 -19 -17 -16 -15 -15 -14 -14
0 0 -0 -0 0 -1 -3 -5 -10 -18 -22 -26 -27 -28 -28 -27 -27 -26 -27 -27 -27 -26 -24 -27 -28 -28 -28 -28 -28 -28 -29 -28 -27 -19 -18 -15 -16 -15 -15 -14 -13 -13 -13
-1 -0 -0 -1 -1 -5 -19 -28 -30 -30 -29 -27 -27 -27 -27 -28 -28 -28 -28 -27 -24 -24 -24 -24 -26 -27 -27 -28 -29 -29 -28 -26 -21 -16 -12 -13 -14 -14 -13 -13 -12 -12 -12

GFSMA_850_dewp_063.txt.gz
Dewpoint
3 0 1 3 2 1 2 4 6 9 9 11 11 11 10 10 10 10 10 9 9 10 10 9 10 9 8 8 9 9 9 8 8 8 7 5 -1 -11 -14 -14 -13 -12 -11
7 5 4 5 4 3 4 6 8 10 12 11 11 12 11 11 11 11 10 10 11 11 11 11 10 9 9 9 9 10 10 9 9 9 8 7 6 3 -7 -13 -13 -11 -10
8 7 6 8 10 8 7 8 10 10 11 11 11 11 11 11 11 11 11 10 11 10 10 11 11 10 10 10 10 10 10 10 10 9 9 8 7 7 5 -4 -12 -13 -11
8 8 9 10 11 11 11 11 11 11 12 12 11 11 11 11 11 11 11 11 12 11 10 9 10 10 9 9 9 9 10 10 10 10 9 9 8 8 7 6 4 -7 -12
8 9 10 11 12 12 12 12 12 12 12 11 11 11 12 12 11 11 10 10 10 9 8 9 9 9 8 8 9 9 9 10 9 9 10 10 9 9 7 7 6 4 0
11 10 11 12 13 13 12 12 12 12 12 11 11 11 11 11 11 10 10 10 10 10 9 9 7 7 7 7 7 7 8 8 8 9 9 9 9 9 9 7 7 7 6
13 13 13 13 12 13 12 12 12 12 11 11 10 10 10 10 9 7 6 11 10 9 9 8 7 7 7 7 7 7 7 7 7 7 7 8 8 9 9 9 8 8 7
13 13 13 13 13 12 12 12 12 12 11 11 11 10 9 8 8 6 7 10 10 9 7 6 6 5 6 6 7 7 6 6 5 6 6 6 6 7 8 8 8 7 7
13 13 13 13 13 13 12 12 12 12 11 9 9 9 9 8 8 8 10 9 8 8 7 6 5 5 6 6 4 3 3 5 5 5 4 3 4 5 5 6 7 7 7
12 11 11 12 12 11 6 2 -0 -1 -0 -0 2 4 9 9 9 8 7 7 7 7 7 6 6 6 6 5 4 0 1 3 4 4 2 2 4 5 7 7 6 7 8
11 10 9 3 -0 -2 -3 -4 -4 -4 -3 -2 -1 0 3 6 8 7 7 7 7 8 7 6 6 6 5 4 3 1 0 -0 -0 1 1 -0 0 2 6 5 6 6 8
10 3 -2 -3 -4 -4 -4 -5 -4 -4 -3 -2 -1 2 6 6 5 8 8 8 6 8 8 7 7 5 5 5 3 2 1 -0 -1 -1 -2 -2 -2 -2 -2 -2 0 3 6
-1 -3 -4 -4 -4 -4 -4 -3 -3 -3 -2 -1 -0 2 6 7 6 7 8 9 9 8 8 7 6 6 5 4 4 2 1 -0 -0 3 2 1 -1 -1 -1 -2 -2 -2 0
-3 -3 -4 -4 -3 -2 -2 -1 -1 -1 -1 0 3 8 8 7 7 8 7 8 8 8 8 7 6 5 5 4 3 2 1 -1 -0 -0 -0 -0 -1 -1 0 2 2 4 4
-3 -3 -2 -2 -1 -0 -0 0 -0 -0 -0 2 6 7 7 7 7 7 7 8 8 8 7 7 6 5 5 4 3 2 0 -0 0 0 -0 -1 -0 2 4 5 5 3 4
-2 -2 -1 -1 -0 -0 0 1 1 1 1 4 6 6 6 6 7 7 6 7 6 7 6 5 5 5 4 4 3 1 -0 0 -0 -1 -1 -0 0 2 3 4 4 3 4
-1 -1 -1 -0 -1 -1 -0 1 2 2 3 4 5 6 6 6 5 5 6 6 6 4 4 4 4 4 4 3 1 0 0 -0 -1 -1 -1 -1 0 1 1 1 2 3 3
-0 0 -0 -0 -1 -1 -0 1 2 2 3 5 5 5 5 4 4 4 3 3 2 1 2 3 3 3 2 1 1 0 0 -0 -1 -2 -2 -2 -1 -1 0 0 0 1 2
1 1 -0 -1 -1 -0 1 1 2 3 3 4 4 4 3 3 3 3 2 2 1 1 1 1 2 1 0 1 0 -0 -0 -1 -1 -2 -3 -3 -3 -2 -1 -1 -1 -0 -0
0 -1 -1 -0 1 1 1 1 2 3 3 4 4 3 3 2 2 2 1 1 1 1 0 0 0 0 -0 -1 -1 -2 -2 -2 -4 -8 -14 -18 -20 -16 -11 -6 -4 -3 -2
-1 -1 0 1 1 1 1 1 1 2 2 3 3 3 2 2 1 1 1 0 0 0 0 0 -0 -1 -2 -4 -6 -7 -10 -16 -22 -25 -24 -20 -22 -24 -26 -27 -26 -24 -23
-1 0 1 1 1 1 1 1 2 2 2 2 2 2 2 1 1 0 0 -1 -2 -2 -2 -3 -2 -4 -7 -9 -10 -15 -21 -24 -25 -25 -23 -26 -28 -28 -28 -28 -28 -28 -28
0 1 1 1 1 1 1 1 2 1 1 1 0 0 1 0 -1 -5 -10 -16 -21 -25 -25 -25 -21 -18 -16 -15 -17 -21 -26 -26 -26 -26 -25 -27 -25 -22 -21 -20 -19 -18 -17
0 0 0 0 1 1 1 0 0 0 0 0 0 -0 -2 -7 -14 -21 -25 -26 -27 -27 -26 -27 -25 -23 -21 -23 -23 -23 -25 -25 -25 -25 -23 -21 -19 -16 -16 -16 -15 -15 -15
0 0 0 0 0 0 -0 -1 -1 -1 -3 -6 -10 -15 -21 -23 -23 -26 -27 -28 -28 -27 -26 -28 -28 -28 -28 -28 -28 -28 -29 -28 -27 -23 -18 -16 -16 -15 -15 -14 -13 -13 -13
-0 -0 -0 -1 -1 -0 -2 -15 -22 -27 -25 -26 -26 -24 -26 -26 -25 -26 -28 -28 -27 -26 -25 -24 -25 -26 -27 -27 -28 -29 -28 -27 -23 -18 -14 -15 -15 -15 -14 -13 -13 -13 -13

GFSMA_850_dewp_066.txt.gz
Dewpoint
4 0 -1 1 1 0 1 3 4 6 8 9 10 10 10 9 10 10 10 10 11 11 11 10 10 10 9 9 9 9 9 9 9 9 8 7 5 0 -8 -13 -13 -13 -11
8 5 1 1 3 2 4 5 7 9 10 10 10 11 11 10 11 11 11 10 10 10 10 10 10 10 10 9 9 10 10 10 10 9 9 8 7 7 5 -3 -11 -12 -10
9 7 4 4 6 6 6 7 9 10 10 11 11 11 11 10 10 10 11 10 10 9 10 10 8 8 9 9 9 9 9 10 10 10 9 9 8 8 7 6 -1 -9 -11
9 9 8 8 10 11 11 10 10 11 11 11 11 11 11 11 10 10 11 11 12 10 11 10 8 8 9 7 7 8 8 9 10 10 10 9 9 9 8 7 6 5 -3
11 9 9 10 11 12 12 12 12 12 11 11 11 11 11 11 11 11 10 11 11 11 9 8 8 9 8 7 7 7 8 8 9 9 9 9 9 9 9 8 7 6 5
12 11 10 11 12 12 12 12 11 11 11 11 10 9 10 9 10 9 9 9 10 11 8 8 9 8 6 7 7 7 7 7 7 8 8 9 9 9 9 8 7 7 7
13 13 12 12 12 12 12 12 12 11 11 11 10 10 9 9 8 8 8 8 9 8 9 8 8 6 6 5 6 6 6 6 7 7 7 7 7 8 8 9 8 8 8
12 12 12 12 12 12 12 12 12 11 11 11 10 10 10 8 7 7 6 5 9 7 9 8 6 5 5 5 4 3 3 4 5 4 4 5 5 6 6 7 8 9 7
12 13 12 12 12 12 12 12 12 12 11 9 9 10 10 9 8 8 7 8 8 8 8 7 6 5 5 5 5 1 1 -1 1 3 4 4 3 2 5 5 6 7 7
13 13 13 12 13 13 13 13 12 8 5 -1 -1 -1 4 10 9 9 7 7 7 8 7 7 6 6 6 6 5 1 0 -1 -2 -1 2 2 1 1 7 6 6 7 7
11 10 9 11 11 11 6 -0 -2 -4 -4 -4 -3 -2 -0 2 6 10 8 6 7 7 6 7 7 7 7 6 5 3 1 -0 -1 -2 -2 -1 -0 -1 0 2 5 6 6
7 7 8 9 2 -2 -4 -4 -4 -4 -4 -3 -2 -1 0 3 3 6 8 7 7 7 7 7 7 7 6 5 5 3 1 0 -1 2 1 -1 -2 -2 -3 -3 -2 -2 3
7 8 7 -1 -3 -3 -4 -4 -3 -3 -3 -2 -2 -1 1 3 7 8 7 7 7 8 8 8 7 7 6 5 5 3 1 0 -1 1 2 3 -1 -1 -1 -1 -2 -2 -2
9 4 -2 -2 -2 -3 -3 -2 -2 -2 -1 -1 -1 1 1 6 7 7 7 7 8 7 7 7 7 6 6 5 5 4 2 0 -1 -1 -0 0 -0 2 4 5 4 4 5
0 -2 -3 -3 -4 -4 -3 -1 -1 -0 0 0 0 3 3 7 7 7 6 7 7 7 7 7 6 6 6 5 5 3 2 -0 -1 -1 -0 0 -0 3 4 4 4 3 4
-1 -3 -3 -2 -2 -1 -1 -1 -1 -1 -0 1 2 6 6 6 6 6 6 6 7 8 7 6 6 6 5 5 4 3 1 -0 -0 -1 -1 -1 0 1 3 3 3 2 3
-2 -1 1 0 0 0 -0 -1 -1 -1 -0 2 5 5 5 5 5 5 5 6 5 5 6 6 5 5 4 3 3 2 0 -0 -0 -1 -2 -2 -1 1 1 2 2 1 1
1 2 1 0 0 0 -1 -1 -1 0 1 4 5 4 5 5 4 5 5 5 5 5 5 4 4 3 3 2 2 1 0 -0 -1 -1 -2 -2 -2 -1 -0 0 1 1 2
0 0 0 0 -1 -1 -1 -1 -0 1 1 4 4 4 4 4 4 4 4 3 3 2 2 2 3 2 2 1 0 0 -0 -0 -1 -1 -2 -3 -4 -3 -2 -1 -1 -0 -0
1 1 1 -1 -1 -0 -0 0 1 1 1 2 3 3 3 3 3 3 3 2 2 1 1 1 1 1 0 -0 -0 -1 -1 -2 -3 -5 -10 -17 -20 -20 -15 -8 -4 -2 -1
1 1 -0 -1 -0 0 0 1 1 1 1 1 2 2 3 2 3 2 2 1 1 1 0 0 0 -0 -1 -2 -4 -4 -5 -9 -16 -22 -23 -23 -22 -23 -26 -27 -26 -24 -22
1 0 -1 -0 0 0 0 1 1 1 1 1 2 2 1 1 2 2 1 1 0 -0 -1 -0 -1 -1 -3 -6 -7 -10 -15 -21 -24 -26 -22 -23 -27 -27 -27 -27 -27 -28 -29
1 -1 -0 0 0 -0 0 0 1 1 1 1 1 1 0 0 0 0 -0 -3 -7 -8 -9 -9 -10 -13 -14 -13 -15 -18 -22 -26 -26 -25 -25 -25 -26 -23 -21 -19 -19 -18 -17
0 -1 0 0 -0 0 0 0 1 1 1 0 -0 -1 -0 -0 -1 -5 -12 -18 -22 -25 -26 -26 -24 -21 -20 -21 -21 -23 -25 -26 -26 -25 -23 -23 -20 -18 -17 -16 -16 -15 -15
-1 -0 0 -0 -0 0 0 1 -0 -0 -0 -0 -1 -1 -3 -9 -15 -20 -22 -25 -26 -25 -25 -26 -26 -24 -26 -27 -28 -28 -29 -29 -30 -25 -21 -18 -17 -16 -15 -15 -14 -14 -13
-1 -1 -0 -0 -0 -0 -0 -1 -2 -2 -4 -9 -14 -19 -23 -24 -22 -24 -24 -25 -25 -24 -24 -23 -23 -25 -26 -27 -29 -29 -30 -29 -28 -22 -17 -15 -16 -15 -15 -14 -12 -14 -13

GFSMA_850_dewp_069.txt.gz
Dewpoint
5 4 0 1 1 -1 2 4 5 7 9 9 9 9 9 9 10 10 10 11 11 10 10 9 9 9 7 8 8 9 9 9 9 9 9 8 7 6 4 -2 -9 -12 -11
6 7 2 3 3 3 4 6 7 8 9 10 10 10 10 10 10 10 10 10 10 9 9 8 9 8 7 8 7 8 9 9 10 10 9 9 9 8 7 6 0 -8 -11
9 8 7 4 5 5 5 6 7 9 10 10 10 11 11 10 10 9 10 10 10 10 9 8 9 9 7 6 7 6 8 8 9 9 9 10 9 9 8 7 6 4 -4
12 10 9 5 6 9 9 9 10 10 11 11 11 10 10 11 10 10 10 10 11 11 10 11 10 8 8 7 6 7 7 8 7 8 9 9 9 9 9 8 7 6 4
12 11 9 8 9 11 11 12 12 11 11 10 10 10 10 9 10 9 10 9 10 9 10 10 8 8 9 7 6 7 7 7 7 7 8 9 9 8 8 8 8 7 6
12 12 11 10 10 11 11 11 11 11 11 11 10 10 10 9 8 9 8 8 8 8 10 10 8 9 8 5 6 5 5 6 6 6 7 7 8 9 9 9 8 7 7
12 13 13 11 12 12 11 11 11 11 11 11 10 10 10 8 8 6 7 7 7 8 9 8 7 8 6 4 5 4 4 2 5 6 5 6 6 7 7 8 9 8 8
12 11 11 12 11 11 12 11 11 11 11 11 10 10 10 8 5 6 6 6 5 8 7 6 8 6 5 5 5 4 1 1 1 0 1 3 4 4 5 6 6 8 9
11 12 12 12 12 12 12 12 12 11 11 11 11 10 10 8 7 7 7 7 7 8 7 7 7 6 5 5 5 5 2 0 -1 -2 -1 2 3 3 3 5 5 6 7
11 11 11 11 11 11 12 12 11 12 12 10 4 1 1 5 9 8 8 8 8 8 7 7 6 6 6 6 6 5 2 1 -0 -2 -2 -2 -0 2 5 6 5 6 6
10 11 11 9 10 7 7 7 11 6 -0 -3 -3 -3 -2 0 3 6 8 7 8 7 8 6 6 6 6 6 6 5 3 1 -0 -1 -2 -2 -1 -2 -2 -2 -2 3 6
9 10 9 8 7 6 8 3 -3 -4 -4 -4 -4 -2 -1 0 2 4 6 8 8 8 7 7 6 6 7 6 6 5 4 2 0 -1 4 4 1 -3 -3 -3 -4 -4 -3
10 9 8 7 6 8 -1 -3 -3 -3 -3 -2 -2 -1 -0 0 2 4 7 7 8 7 8 8 7 7 7 7 6 5 4 3 1 -1 -1 -1 -3 -2 3 3 -1 -2 -3
8 8 6 8 4 -2 -2 -3 -3 -2 -1 -2 -1 -0 0 1 3 5 6 7 7 7 7 7 7 7 7 6 6 5 4 2 1 -1 -2 -1 -1 2 5 5 5 4 4
8 7 5 -1 -2 -2 -2 -0 -1 -1 -1 -1 -0 0 1 3 5 6 6 6 7 7 7 6 7 6 6 6 5 5 4 2 -0 -1 -1 -2 -1 2 4 4 4 3 3
3 -0 -1 0 1 -2 -0 -0 -0 -0 -0 -1 -0 0 2 3 5 6 5 5 6 7 7 7 7 6 6 5 5 4 4 2 -0 -1 -1 -2 -1 1 2 3 3 3 2
3 4 1 -2 -2 -0 1 0 -0 -0 -1 -1 -0 0 2 5 5 5 5 6 6 7 7 6 5 6 5 4 4 3 3 1 -0 -1 -1 -2 -1 0 1 2 2 2 2
1 -1 -1 -0 1 0 0 -0 -1 -1 -1 1 2 4 4 4 4 4 4 5 5 5 5 5 5 5 4 3 3 2 2 0 -0 -1 -1 -2 -2 -1 -0 0 1 1 2
-1 1 1 0 0 0 -0 -1 -1 -1 0 1 3 3 3 4 4 3 4 4 4 4 4 4 3 3 3 2 2 1 -0 -0 -0 -1 -1 -2 -3 -4 -3 -2 -2 -1 0
1 1 0 1 1 -0 -1 -1 -0 0 0 1 1 2 2 3 2 3 3 3 3 3 3 2 2 2 2 1 0 -0 -0 -1 -1 -2 -4 -8 -15 -19 -18 -11 -6 -3 -2
1 1 1 1 0 -1 -0 0 0 0 0 1 1 1 2 2 2 2 2 2 2 2 1 1 1 0 0 -0 -0 -2 -2 -2 -5 -11 -19 -23 -23 -24 -24 -25 -25 -23 -18
1 1 1 1 -0 -0 0 0 -0 0 0 1 1 1 1 2 2 2 1 1 1 1 0 -0 -0 -0 -1 -1 -4 -6 -7 -11 -19 -23 -25 -24 -25 -28 -28 -27 -28 -29 -30
1 1 1 0 -1 -0 -0 -0 0 0 0 1 1 1 1 1 0 -0 -0 -0 -0 -0 -1 -2 -1 -2 -3 -6 -8 -9 -12 -17 -23 -26 -25 -25 -26 -26 -24 -23 -22 -21 -20
1 1 1 -0 -0 0 -0 -0 0 0 1 1 0 -0 -0 -1 -1 -1 -2 -5 -12 -17 -21 -25 -18 -16 -14 -14 -14 -17 -19 -22 -24 -25 -25 -23 -24 -21 -19 -18 -17 -17 -16
1 1 1 -1 -0 -0 -0 0 0 1 -0 -1 -1 -1 -1 -1 -2 -6 -14 -19 -22 -24 -22 -25 -25 -24 -23 -22 -22 -23 -25 -26 -27 -27 -23 -21 -19 -18 -17 -16 -15 -14 -14
1 1 0 -1 -0 -0 -0 -0 -0 -1 -1 -1 -1 -3 -7 -11 -17 -21 -22 -23 -23 -24 -24 -22 -23 -26 -27 -26 -27 -28 -27 -28 -29 -28 -23 -18 -16 -16 -15 -14 -14 -13 -13

GFSMA_850_dewp_072.txt.gz
Dewpoint
5 4 3 2 0 -1 -0 2 4 5 7 9 9 9 9 10 10 10 10 10 10 9 9 8 8 8 9 6 8 7 8 9 10 9 9 9 8 7 6 5 2 -6 -11
5 6 4 2 4 2 4 5 5 7 8 9 10 10 10 10 10 10 9 10 10 9 9 9 9 8 8 7 7 6 6 7 8 9 9 9 9 8 8 7 6 2 -6
9 9 8 4 5 5 5 6 7 8 9 10 10 10 11 10 10 10 9 9 9 9 10 9 9 9 9 7 7 6 6 6 7 6 8 9 9 9 9 8 7 6 3
12 11 10 9 6 7 7 7 8 9 10 11 10 10 10 10 9 9 9 8 9 9 9 9 10 9 7 7 6 6 6 6 7 7 8 8 9 9 9 8 8 7 6
12 12 11 10 7 8 10 11 11 12 11 11 10 10 10 10 9 9 9 8 9 7 8 8 9 8 8 8 6 5 6 5 5 6 6 7 8 9 8 8 8 8 7
12 12 12 12 10 10 11 12 11 11 11 11 10 10 9 9 10 8 9 8 9 8 8 8 10 8 8 7 4 4 4 3 3 3 5 6 7 7 8 9 9 8 7
11 12 12 12 11 11 12 11 11 11 11 11 10 9 9 9 6 4 2 3 5 5 6 9 7 6 7 5 5 5 4 2 1 2 2 2 4 5 7 7 8 9 8
12 11 12 12 11 12 11 11 11 10 10 10 10 10 10 8 3 4 5 6 6 5 8 8 6 6 6 5 5 5 4 3 -0 -0 -2 -2 0 1 2 5 5 7 7
12 11 12 12 11 11 11 11 10 11 10 11 11 11 9 8 6 5 5 7 7 7 7 7 7 6 6 6 6 5 5 3 0 -1 -2 -3 -2 2 4 6 6 5 5
11 10 11 11 11 11 10 10 10 11 10 11 11 8 5 4 5 5 6 7 7 8 7 7 6 6 6 6 5 6 6 4 1 -1 -2 -3 -1 3 5 3 3 5 5
11 11 10 10 10 10 9 8 7 5 5 8 -1 -3 -2 -2 0 5 5 4 7 7 7 8 6 6 6 6 5 6 6 5 2 4 6 4 3 2 -0 -1 -3 -1 5
9 10 11 10 10 8 8 8 6 6 3 -3 -3 -3 -2 -2 1 3 5 5 7 7 7 7 7 7 6 6 6 6 6 5 3 1 -0 -1 -3 -2 5 2 -4 -3 -2
9 9 11 11 10 9 8 7 7 -2 -2 -3 -3 -2 -1 -1 1 1 6 6 6 6 6 7 7 7 7 7 6 6 6 5 4 1 -1 -2 -3 -1 5 5 6 5 2
10 10 11 10 8 7 8 1 -2 -3 -3 -2 -1 -1 -1 0 1 3 4 5 5 5 5 6 6 6 7 7 6 6 5 5 4 1 -1 -2 -1 1 4 4 4 4 4
9 9 8 6 7 8 -1 -2 -2 -1 -0 -0 -0 -0 0 1 2 4 6 4 6 6 7 7 6 6 6 6 6 6 5 5 4 1 -1 -1 -2 1 3 3 3 3 2
8 8 8 8 5 -1 -1 -1 -1 -0 0 0 -0 0 1 1 3 4 5 5 5 5 6 6 6 6 6 6 5 5 5 4 3 1 -1 -1 -2 -1 2 2 2 3 2
9 6 2 0 -0 -0 -1 -0 1 0 -0 -0 -0 -0 1 2 3 4 4 4 4 4 6 5 5 6 6 5 5 4 4 3 2 0 -1 -1 -2 -1 1 1 2 2 2
3 2 1 2 0 -1 1 1 -0 0 -1 -1 -1 0 1 3 4 3 4 4 4 5 5 5 5 5 4 5 4 3 2 2 1 -0 -1 -1 -2 -3 -1 0 1 1 1
0 0 0 -0 1 1 0 0 0 -1 -1 -1 -0 0 2 3 3 3 3 3 4 4 4 4 4 4 4 3 2 2 2 1 -0 -0 -1 -1 -2 -3 -4 -3 -2 -1 1
0 0 0 1 1 0 0 0 -1 -1 -1 -1 -0 0 0 2 2 2 3 2 2 2 3 3 3 2 2 2 2 1 0 -0 -0 -1 -1 -2 -4 -10 -14 -13 -8 -4 -2
1 1 1 1 0 1 1 -0 -1 -1 -1 -1 -0 0 1 1 2 2 2 2 2 2 2 2 1 1 1 1 1 -0 -0 -1 -1 -2 -4 -10 -19 -22 -21 -22 -23 -23 -17
1 1 1 1 1 1 0 -1 -1 -0 -1 -1 0 0 1 1 1 1 1 1 1 1 1 1 0 0 -0 -0 -1 -1 -4 -3 -6 -13 -20 -22 -22 -24 -25 -25 -27 -27 -28
1 1 1 1 1 1 -0 -0 -0 -1 -1 -0 0 1 1 1 1 1 1 0 -1 -1 -1 -1 -1 -1 -1 -2 -3 -6 -7 -9 -15 -20 -25 -25 -24 -25 -24 -24 -24 -23 -22
1 1 1 1 1 1 -0 -0 -0 -0 -0 0 1 1 0 -0 -0 -1 -1 -1 -1 -4 -8 -10 -6 -4 -5 -6 -9 -11 -12 -17 -22 -24 -25 -24 -23 -23 -19 -18 -18 -18 -17
1 1 1 1 1 0 -0 -0 -0 -0 -0 -0 -0 0 -1 -1 -2 -2 -2 -5 -11 -17 -21 -23 -24 -22 -20 -16 -16 -18 -21 -23 -26 -26 -24 -22 -21 -19 -17 -16 -16 -15 -15
2 1 1 1 1 -0 -1 -0 -0 -1 -0 -1 -1 -1 -2 -2 -2 -7 -17 -20 -22 -22 -22 -22 -23 -23 -24 -25 -27 -27 -28 -29 -29 -29 -25 -20 -17 -17 -16 -15 -14 -14 -14

GFSMA_850_dewp_075.txt.gz
Dewpoint
3 3 2 2 1 0 1 2 4 5 6 8 9 9 9 9 9 10 10 9 9 9 9 9 8 8 8 8 7 7 5 6 8 9 9 9 8 8 7 6 4 -3 -9
5 7 5 4 3 1 0 2 6 7 8 9 10 10 10 10 10 9 9 9 8 9 9 9 9 8 7 8 7 7 5 4 5 7 6 8 9 9 8 8 6 4 -3
2 6 7 7 4 5 4 5 6 7 8 10 10 10 10 10 9 9 8 9 9 8 8 9 9 9 9 9 7 6 4 5 6 6 7 7 8 9 9 8 8 7 5
7 10 10 9 7 7 6 6 7 8 9 10 10 10 10 10 10 10 9 9 8 8 7 8 8 8 8 8 8 6 4 5 4 5 5 6 8 8 9 8 8 8 6
12 12 12 11 10 7 7 7 8 10 11 11 10 10 10 10 10 10 9 8 9 9 9 8 8 8 7 8 8 5 3 4 3 3 3 4 6 7 9 8 8 8 7
12 12 12 12 11 8 8 11 11 11 10 10 10 10 10 9 9 8 8 7 4 3 6 6 8 9 7 7 6 5 5 4 3 1 -1 2 5 6 7 8 9 8 8
11 12 12 12 12 11 10 11 11 10 10 10 10 10 9 9 5 4 -0 0 0 2 4 5 10 7 7 6 5 5 4 4 3 -0 -0 -1 -1 2 5 7 7 9 9
11 11 11 12 11 12 11 11 11 10 10 10 9 10 9 8 5 3 2 4 4 4 4 7 8 7 6 6 5 5 5 5 3 0 -2 -3 -3 -2 -1 2 6 7 7
12 12 12 11 11 12 10 10 10 10 10 10 10 10 9 8 8 4 2 2 5 5 5 7 7 7 7 6 6 6 6 6 5 3 -2 -2 -2 0 5 3 3 6 5
12 11 11 11 11 11 10 11 11 10 9 10 10 10 9 9 8 5 1 4 4 6 7 7 7 7 6 6 5 5 5 6 6 4 5 6 5 4 3 -0 -0 5 6
10 10 11 11 10 11 10 11 10 8 7 7 6 0 -3 -3 -3 -0 5 2 4 6 7 6 5 7 7 5 5 5 6 6 6 4 3 5 2 -1 5 4 5 -0 2
9 9 7 10 10 10 11 10 8 8 8 7 4 -3 -3 -3 -2 0 2 1 3 4 7 7 5 7 6 6 6 6 6 6 6 5 2 1 -2 -3 3 6 4 -1 -2
9 9 10 10 11 11 10 9 9 8 8 2 -2 -3 -3 -2 -1 0 3 5 5 5 5 5 5 5 6 6 6 7 6 6 6 5 3 0 -2 -3 3 5 5 5 4
9 9 9 11 11 9 9 8 9 8 1 -2 -2 -1 -0 -0 0 0 2 5 6 6 5 5 4 4 5 5 6 6 6 6 5 5 3 0 -2 -2 4 4 4 4 5
9 10 10 11 9 7 7 7 5 1 -1 -1 -0 0 0 -0 0 0 1 7 5 6 6 6 6 6 6 6 6 6 6 5 5 4 3 1 -1 -2 2 3 3 3 3
9 10 10 8 7 7 8 7 1 -1 -1 -0 1 -0 -0 -0 0 0 2 4 5 4 5 6 5 6 6 6 6 5 5 5 5 4 3 0 -1 -2 1 2 2 2 3
9 10 9 9 9 9 6 0 -0 -1 1 0 -0 -1 -1 -1 -0 1 2 4 4 4 5 6 4 6 5 5 5 5 4 4 4 3 2 -0 -1 -2 0 1 1 2 2
10 10 10 9 6 1 0 0 -0 1 0 -0 -1 -1 -2 -0 0 1 3 3 3 4 5 5 5 5 5 5 5 4 4 3 3 2 1 -1 -1 -2 -2 -0 1 1 1
5 4 2 2 2 1 0 1 1 0 0 -0 -1 -2 -1 -0 1 2 2 2 3 3 4 4 4 4 4 4 4 4 3 2 1 1 -0 -1 -1 -2 -3 -3 -2 -0 1
2 2 1 0 0 1 1 0 0 0 -0 -1 -1 -1 -1 -0 -0 1 2 2 2 2 3 3 3 2 2 3 3 2 2 1 1 -0 -1 -1 -1 -3 -5 -8 -8 -5 -2
1 1 1 0 1 1 1 1 0 0 -1 -1 -1 -1 -1 -0 0 1 2 2 2 2 2 2 1 1 1 2 1 1 1 0 -0 -1 -1 -2 -4 -11 -19 -23 -23 -23 -14
3 2 2 1 1 1 1 1 1 -0 -1 -1 -1 -1 -0 0 0 0 1 1 1 1 1 1 0 1 1 0 0 -0 -1 -1 -2 -3 -3 -8 -18 -22 -22 -23 -25 -26 -27
2 2 2 1 1 1 1 1 0 -1 -1 -1 -2 -1 0 0 1 1 1 1 1 1 0 0 0 -0 -0 -1 -1 -1 -2 -6 -5 -10 -20 -22 -23 -23 -23 -24 -24 -25 -25
2 2 1 1 1 1 1 1 0 -1 -1 -1 -1 -0 0 1 1 0 -0 -0 -0 -1 -1 -1 -1 -1 -1 -2 -2 -4 -6 -6 -11 -17 -22 -24 -24 -23 -22 -21 -20 -20 -18
2 2 1 1 1 1 1 1 0 -1 -1 -1 -0 0 0 0 -0 -1 -1 -1 -1 -4 -11 -18 -21 -18 -13 -11 -9 -10 -12 -14 -19 -23 -24 -24 -23 -23 -20 -18 -17 -17 -16
2 2 2 1 1 1 1 1 -0 -1 -1 -1 -0 -0 -0 -1 -1 -2 -2 -4 -12 -17 -20 -21 -22 -24 -23 -19 -20 -20 -22 -23 -26 -28 -27 -23 -22 -20 -17 -17 -15 -15 -15

GFSMA_850_dewp_078.txt.gz
Dewpoint
-1 -1 -0 -0 -0 -0 0 0 1 3 5 9 9 11 11 11 11 11 11 9 9 9 9 9 8 9 8 7 8 7 6 3 4 5 6 8 8 8 8 7 5 0 -6
4 3 3 2 3 1 1 3 8 10 10 10 11 11 11 11 11 11 11 10 9 8 8 8 9 9 8 8 9 7 5 3 5 5 7 7 8 9 9 8 7 6 1
6 7 9 8 6 4 2 2 6 8 11 11 11 12 11 11 11 11 11 10 11 10 8 7 7 8 9 9 10 7 5 3 4 5 5 6 7 8 9 9 8 8 6
11 5 8 8 9 5 6 4 8 10 10 11 11 11 11 11 10 10 11 10 10 11 11 9 8 8 8 8 9 8 6 3 3 3 2 3 4 6 8 9 8 8 7
6 7 11 11 10 8 7 6 8 10 10 11 12 11 11 10 10 10 10 10 11 9 9 10 8 8 8 8 8 7 5 4 4 3 1 1 3 4 7 9 9 8 7
11 11 12 12 12 10 8 8 9 9 11 11 11 10 10 10 10 10 9 5 1 -0 1 5 6 8 8 7 7 6 5 4 4 3 1 -1 0 3 5 8 9 9 8
11 11 11 12 12 12 10 7 10 11 11 10 10 10 10 10 10 6 1 -1 -0 -0 3 5 8 9 8 7 7 5 5 5 5 4 2 -2 -3 -2 1 5 7 8 9
9 10 11 11 12 12 11 10 11 12 10 10 11 10 9 9 9 2 3 -1 -1 2 2 3 7 9 7 7 6 5 5 6 6 5 4 0 -2 -3 -4 -1 3 7 8
9 9 9 11 12 12 12 11 10 10 11 10 9 10 9 7 8 7 2 0 -1 3 2 2 8 9 8 7 6 6 5 5 6 6 5 3 -1 -0 4 5 4 6 6
11 10 9 10 11 12 12 12 11 11 10 10 10 9 9 10 8 5 6 3 2 3 4 5 6 7 7 7 6 5 5 5 6 6 6 6 2 -0 3 5 3 1 5
9 9 9 10 11 12 12 11 11 10 11 10 9 7 6 0 -1 5 4 4 6 3 2 3 7 6 6 7 7 5 5 5 6 6 5 4 2 -1 -3 5 5 5 5
8 9 9 10 9 10 10 10 11 11 10 8 8 8 5 3 2 1 5 4 6 6 5 4 6 7 5 5 7 6 6 6 6 6 6 5 3 -1 -3 6 7 6 6
8 8 9 10 10 8 8 10 11 10 9 9 9 5 0 -2 -1 -0 1 5 6 6 6 5 4 4 5 5 6 6 5 6 6 6 6 5 2 -1 -3 4 5 5 5
9 9 9 10 10 10 10 11 10 9 9 8 6 5 -0 -1 -0 0 1 4 6 6 6 7 5 4 5 5 5 5 5 6 6 6 5 5 3 -0 -2 0 4 4 4
8 9 9 10 10 11 10 8 8 8 8 7 3 -1 -0 0 1 -0 -0 1 5 6 5 6 6 4 5 6 6 6 6 6 6 6 5 4 3 -0 -2 -0 3 3 3
3 7 9 10 11 10 9 9 8 8 6 2 -1 -1 1 0 -0 -0 0 1 3 5 6 6 5 5 4 6 6 6 5 5 5 5 4 4 3 -0 -1 0 3 2 2
4 6 10 11 10 7 7 8 8 6 1 -0 -0 1 0 -0 -1 -1 -1 0 3 4 5 4 5 5 5 4 5 5 5 4 4 4 4 3 1 -1 -1 -1 1 2 1
6 9 10 10 9 9 9 9 5 0 0 -0 1 -0 -1 -1 -1 -1 -0 1 2 3 3 4 5 5 5 5 5 4 4 4 3 3 3 3 0 -1 -1 -2 0 1 0
5 8 10 10 10 9 7 2 1 0 0 1 -0 -0 -1 -1 -2 -1 0 2 1 3 3 4 4 4 4 4 4 4 4 3 3 2 2 1 -0 -1 -2 -2 -3 -1 0
2 4 5 5 3 2 2 2 1 1 1 0 -0 -1 -1 -2 -1 -1 0 0 1 2 2 3 3 3 3 3 3 3 2 2 2 1 1 0 -1 -1 -2 -3 -5 -5 -4
2 2 2 2 1 1 0 0 1 1 0 0 -0 -1 -1 -2 -2 -1 -1 1 1 2 2 2 2 2 2 2 2 2 2 1 1 0 -0 -1 -1 -2 -4 -10 -18 -20 -16
2 2 2 1 1 1 1 1 1 1 0 0 -1 -1 -2 -3 -2 -0 0 1 1 2 2 1 1 1 1 1 1 1 1 0 -0 -0 -1 -1 -3 -6 -15 -21 -23 -24 -24
2 3 2 2 2 2 1 1 1 1 0 -0 -1 -1 -2 -1 -0 0 0 1 1 1 1 1 1 0 0 0 0 0 -0 -1 -1 -3 -10 -6 -12 -19 -22 -23 -25 -26 -26
2 2 2 2 2 1 1 1 1 1 0 -0 -1 -1 -1 -1 -0 0 0 1 1 0 0 0 -0 -0 -0 -0 -1 -1 -2 -2 -5 -7 -10 -18 -22 -23 -23 -23 -23 -23 -21
2 2 2 2 2 1 1 1 1 1 0 -0 -1 -2 -2 -0 0 0 0 -0 -1 -0 -1 -2 -5 -4 -2 -2 -2 -3 -4 -6 -7 -12 -18 -22 -23 -23 -22 -21 -20 -19 -18
1 2 2 2 2 1 1 1 1 1 0 -0 -1 -2 -1 -0 0 -0 -1 -1 -1 -2 -6 -15 -21 -24 -22 -16 -10 -8 -9 -11 -14 -21 -24 -23 -23 -23 -21 -20 -18 -17 -16

GFSMA_850_dewp_081.txt.gz
Dewpoint
8 10 9 9 7 5 7 7 7 7 7 8 9 9 10 10 10 10 11 11 9 9 8 9 8 9 9 8 8 9 6 5 2 3 6 6 6 8 8 8 7 5 -0
5 8 9 8 5 5 4 7 7 8 8 10 10 11 11 11 11 11 10 10 10 9 8 7 7 8 9 9 8 9 7 5 3 4 5 6 7 7 9 9 8 7 5
5 3 5 3 4 9 8 8 8 9 10 10 10 11 11 11 11 10 10 10 10 10 10 9 8 7 7 9 9 9 7 6 3 2 2 3 5 7 8 9 9 8 7
7 5 7 11 11 11 10 8 9 10 11 11 11 11 11 11 10 10 10 10 10 10 10 10 10 9 8 7 8 8 8 6 4 3 3 2 3 4 7 8 9 8 8
12 11 8 11 12 12 11 9 10 10 10 10 11 10 10 10 9 9 10 10 10 10 10 10 9 6 8 7 8 8 7 5 4 4 3 2 -0 1 3 6 9 9 8
11 7 7 12 12 12 11 11 10 10 10 10 10 10 11 10 10 10 9 9 8 2 0 2 8 4 7 8 7 7 7 5 5 4 4 2 -2 -2 1 4 7 8 9
12 12 12 12 12 12 12 11 11 10 10 10 11 11 9 9 10 10 9 7 7 -1 -2 2 8 9 8 8 7 7 5 5 5 6 5 5 2 -2 -4 -2 3 6 8
9 10 11 11 12 12 12 12 10 10 10 11 11 11 11 9 9 8 7 4 -0 -2 -1 -1 2 9 9 7 7 7 5 6 6 4 5 5 4 -0 -3 -4 -2 1 5
11 11 10 10 10 10 11 12 12 10 11 11 10 11 9 9 8 8 8 4 1 -0 2 -0 0 5 9 9 7 6 6 5 4 5 5 5 4 1 -0 -0 -0 -1 2
10 10 10 11 10 10 9 9 9 12 11 10 10 10 10 9 8 6 7 5 2 4 7 4 1 4 7 8 7 7 6 5 5 5 6 6 5 4 -1 -3 5 5 3
8 8 9 11 10 9 8 9 9 10 12 11 11 10 10 9 7 4 6 4 7 5 6 6 5 5 6 7 7 7 7 5 5 5 6 6 5 5 -0 4 5 6 5
7 8 6 6 10 8 7 7 8 10 10 11 11 10 8 8 6 4 3 3 3 5 6 5 5 6 7 7 6 4 7 6 6 6 6 6 5 5 1 2 5 6 5
7 7 7 8 9 8 7 6 9 9 10 9 10 9 9 9 8 3 2 1 4 6 6 6 6 5 5 5 5 4 5 6 5 6 6 6 5 5 2 -2 3 5 5
9 8 8 9 8 9 9 9 10 9 10 10 10 9 9 7 8 3 -0 1 2 4 3 6 6 6 5 4 5 5 5 6 5 5 6 6 6 4 3 -1 -1 2 3
10 9 8 9 9 9 10 11 10 11 10 9 9 8 8 7 1 -0 1 1 1 5 5 5 6 6 5 4 4 6 6 6 6 6 6 5 5 4 3 0 -1 1 1
7 6 7 9 10 10 10 11 10 10 9 8 8 8 3 -1 -0 1 1 0 1 4 6 5 6 6 5 5 4 4 6 5 5 5 5 5 4 4 3 -0 -1 2 2
4 5 6 8 10 10 10 10 10 9 9 9 8 2 -0 -0 1 0 0 0 1 3 4 5 5 6 4 4 4 4 5 5 5 5 4 4 4 3 2 -1 -1 1 1
2 3 6 8 10 10 10 10 8 8 8 6 1 -0 -0 1 0 -0 -0 -0 1 2 3 5 4 4 4 4 5 5 5 4 4 4 4 4 3 2 1 -1 -1 -1 1
2 3 6 9 10 10 9 9 9 9 7 2 0 0 1 0 -0 -1 -1 0 2 2 2 2 4 4 3 3 4 4 4 4 4 3 3 3 2 1 -1 -1 -2 -2 -1
1 2 3 8 9 9 9 9 9 6 1 1 0 1 0 -0 -1 -1 -1 -1 1 2 1 1 3 3 3 3 3 3 3 3 3 2 2 2 1 0 -1 -1 -2 -3 -4
1 2 2 3 5 7 7 5 3 2 1 1 1 0 0 -0 -1 -1 -1 -2 -1 0 1 2 2 2 2 2 2 2 2 2 2 1 1 1 0 -1 -1 -2 -4 -8 -13
0 2 2 2 2 2 2 2 1 1 1 1 1 0 -0 -1 -1 -2 -2 -1 -0 1 1 2 2 2 1 1 1 1 1 1 1 1 0 -0 -1 -1 -2 -4 -14 -21 -23
-0 1 2 3 2 2 1 1 1 1 1 1 1 0 -0 -1 -1 -2 -1 -1 -0 0 1 1 1 1 1 1 1 1 1 0 -0 -0 -1 -3 -3 -3 -7 -18 -22 -24 -26
1 0 1 2 2 2 2 2 2 1 1 1 1 0 -0 -1 -1 -1 -1 -0 0 1 1 1 1 1 0 0 0 -0 -0 -1 -1 -2 -3 -9 -15 -20 -22 -22 -23 -25 -25
2 2 1 2 2 2 2 2 1 1 1 1 1 0 -0 -1 -1 -1 0 0 0 0 0 0 0 -0 -1 -1 -1 -1 -2 -2 -2 -4 -7 -9 -17 -22 -22 -22 -21 -23 -21
1 2 2 2 2 2 2 2 1 1 1 1 1 0 -0 -1 -1 -0 -0 -0 -0 -1 -1 -1 -3 -12 -16 -7 -3 -3 -3 -3 -3 -7 -13 -16 -21 -22 -22 -21 -20 -18 -18

GFSMA_850_dewp_084.txt.gz
Dewpoint
11 11 6 -0 -0 1 1 4 3 5 5 4 5 7 9 10 10 10 10 10 10 10 9 7 7 8 9 9 9 8 9 6 3 2 4 5 7 7 8 8 8 6 4
11 10 9 4 4 4 3 5 4 6 6 7 9 10 10 11 10 10 10 10 10 10 9 8 7 6 6 8 9 8 9 7 4 3 2 2 5 7 7 8 8 8 7
6 6 8 6 3 3 2 3 6 7 8 9 10 10 11 10 10 10 10 9 10 10 10 10 9 8 7 7 8 9 8 7 6 4 3 2 2 2 6 8 8 8 7
5 4 3 3 3 4 6 6 6 8 9 10 10 11 11 10 10 10 9 9 10 10 10 10 9 9 8 8 7 8 8 7 5 4 3 3 2 1 1 5 8 9 8
7 6 8 10 12 11 11 9 8 8 9 10 10 10 10 10 10 10 9 9 9 10 10 7 5 5 5 7 8 8 8 6 5 4 4 3 2 -1 -2 1 5 9 9
11 11 10 9 12 11 11 11 9 9 10 10 10 10 10 10 10 9 9 10 9 9 5 -1 1 2 3 5 8 8 7 7 5 5 5 4 4 3 -1 -3 2 6 7
11 12 9 8 11 11 12 11 11 10 10 9 10 9 9 10 10 9 10 10 8 3 -1 -1 -0 5 5 7 8 7 7 6 5 5 4 5 4 4 1 -3 -4 0 4
11 12 12 12 12 11 12 12 12 11 10 10 10 11 10 9 9 10 10 9 4 1 -2 -0 1 4 2 5 8 8 8 6 5 4 4 4 5 3 0 -1 2 -1 -1
10 9 10 9 9 10 10 11 12 11 10 10 10 10 10 10 9 10 9 4 3 1 -1 -0 2 3 4 7 9 8 7 6 5 5 4 4 5 5 4 -1 -3 6 5
10 10 9 10 9 9 9 9 10 9 10 10 10 11 10 10 8 8 8 7 4 2 3 1 0 0 3 7 8 8 7 6 6 5 5 5 5 5 5 1 4 5 5
10 8 8 8 8 7 7 6 9 8 9 9 9 8 10 11 10 7 7 6 7 6 5 5 4 3 3 6 6 7 7 7 6 6 6 6 5 5 5 2 4 6 6
8 8 7 8 8 8 7 7 9 8 8 9 9 9 11 11 10 8 7 8 6 3 6 5 5 5 5 4 5 7 6 5 6 6 6 5 4 5 5 4 1 4 5
7 8 7 7 5 8 9 9 8 9 10 9 9 9 9 10 9 8 9 7 6 5 5 6 6 6 5 3 4 4 5 5 5 6 5 5 5 5 5 4 3 -1 -2
9 8 7 6 6 8 7 7 8 9 10 9 9 8 8 10 10 9 7 8 4 2 4 4 5 6 6 6 4 4 5 5 6 6 5 5 6 6 5 4 3 1 -1
9 9 9 8 8 8 8 8 10 10 10 9 9 10 10 10 10 8 8 6 2 2 2 2 5 6 6 6 5 4 4 5 5 6 6 6 5 5 5 4 3 1 -1
9 9 10 9 8 8 9 10 10 9 9 10 10 10 9 9 8 6 1 0 1 1 3 2 5 6 6 6 5 4 4 4 5 5 4 5 5 4 4 3 2 1 -1
3 3 4 4 5 7 8 10 10 10 10 10 10 8 9 8 5 1 1 1 1 1 2 4 4 4 6 4 5 3 4 4 4 5 5 5 4 4 3 2 2 -1 -1
-0 1 2 3 4 7 9 10 10 10 10 9 9 9 9 5 0 1 1 1 0 1 3 5 4 4 4 4 2 3 4 4 4 4 4 4 4 4 2 2 0 -1 -1
-1 0 1 3 6 9 9 9 9 9 9 9 8 8 4 0 0 1 1 -0 0 1 2 4 4 4 3 3 3 3 2 4 4 4 4 4 3 3 2 1 -1 -2 -2
-2 0 1 1 4 8 9 8 9 9 8 8 8 6 1 1 1 0 0 0 1 2 4 4 4 2 2 3 3 2 2 2 3 3 3 2 2 2 1 1 -1 -2 -2
-3 -0 1 1 2 4 8 8 8 8 8 8 5 1 1 1 1 0 -0 -1 -1 0 2 3 2 2 2 2 1 1 2 2 2 2 2 2 1 1 1 -1 -1 -2 -4
-2 -1 0 2 2 2 3 5 6 5 4 3 2 1 1 1 0 0 -0 -1 -2 -2 -1 2 1 1 2 2 2 1 1 1 1 1 1 1 0 -0 -1 -1 -3 -7 -17
-2 -0 0 1 2 2 2 2 2 2 2 1 1 1 1 1 0 -0 -1 -1 -1 -1 -1 0 1 1 1 1 1 1 1 1 1 1 0 -0 -1 -3 -2 -4 -12 -21 -25
0 0 0 1 1 2 3 2 2 2 1 1 1 1 1 1 0 -0 -1 -1 -1 -0 -0 0 0 1 0 1 1 1 0 0 -0 -1 -1 -1 -3 -10 -13 -17 -20 -23 -25
-3 0 1 1 2 1 2 2 2 2 2 2 1 1 1 1 0 -0 -1 -1 -1 -0 -0 -0 0 0 0 0 0 0 -0 -0 -1 -2 -2 -2 -8 -12 -18 -21 -22 -24 -24
-8 -3 0 1 1 2 1 2 2 2 2 1 1 1 1 1 0 -0 -1 -1 -1 -1 -1 -0 -1 -1 -1 -1 -1 -1 -1 -2 -2 -3 -4 -7 -9 -19 -21 -23 -21 -19 -21

GFSMA_850_dewp_087.txt.gz
Dewpoint
9 -0 -2 -1 -0 -0 -1 -0 0 -0 0 1 2 5 7 9 9 10 10 10 10 10 10 8 7 6 7 8 9 9 9 8 5 3 1 1 4 6 6 7 8 7 6
8 4 3 -0 -2 -1 -0 1 1 2 3 4 4 6 8 10 11 10 9 10 9 9 9 9 9 8 7 6 8 8 9 8 6 5 4 2 2 4 6 7 8 8 7
11 8 7 1 -0 1 2 1 3 4 5 7 8 9 10 10 10 10 9 10 10 10 10 10 9 8 7 7 6 7 9 8 7 5 3 2 3 2 2 6 8 8 8
11 10 6 5 4 4 4 3 4 6 8 9 9 10 10 10 9 9 10 9 9 10 10 10 10 9 7 8 7 7 8 8 6 5 4 3 3 1 -0 1 5 8 8
11 9 7 6 5 4 5 6 7 7 8 9 10 10 10 10 10 10 9 9 9 9 9 10 9 3 2 4 7 7 7 8 6 5 4 4 4 4 2 -2 2 5 8
6 6 7 8 10 11 11 10 8 7 7 8 9 10 10 10 10 9 10 8 9 9 10 9 2 -1 1 3 6 7 8 7 6 5 5 4 4 4 3 1 -3 2 6
8 8 10 11 11 12 11 10 10 9 8 9 11 10 10 10 9 9 9 9 9 9 9 0 -3 -1 1 3 7 8 8 7 6 5 4 3 4 4 3 -0 -2 -3 -2
11 11 11 10 10 11 11 12 11 11 11 10 10 10 10 10 9 9 9 9 9 10 7 -1 -3 -2 -1 -1 4 8 8 8 7 5 5 4 3 4 4 3 -2 0 2
9 9 9 9 9 10 10 11 11 11 11 11 10 10 10 11 10 9 9 10 10 8 1 -1 -2 -2 -1 1 4 7 8 8 6 6 5 4 4 4 5 4 2 6 6
10 10 10 10 9 9 9 9 9 9 9 9 10 10 10 9 10 9 10 10 7 4 2 2 3 2 1 1 3 7 8 7 6 6 6 6 5 5 5 4 4 7 6
10 10 9 9 9 9 9 9 9 7 6 6 8 9 9 10 10 11 9 8 8 6 5 6 6 6 5 4 3 4 7 7 7 7 6 5 6 5 5 5 4 3 5
8 7 7 8 8 9 8 8 9 10 9 9 9 9 9 9 9 10 9 8 7 8 8 6 5 6 6 5 4 4 6 7 6 6 5 6 5 5 5 5 4 3 1
6 7 8 8 8 9 8 9 9 9 10 9 9 9 9 9 10 10 10 8 9 8 7 5 6 6 6 6 5 4 5 5 5 5 6 6 5 5 5 5 4 4 4
7 8 8 8 8 8 8 7 9 9 9 10 10 10 10 9 9 10 10 7 9 9 7 6 6 6 5 6 6 5 4 4 5 5 5 4 5 5 5 5 4 4 4
9 9 9 9 9 9 9 9 10 8 8 9 9 9 10 9 9 9 10 9 8 8 6 3 4 4 5 7 6 6 4 4 4 4 5 6 6 5 5 5 4 4 2
8 9 10 10 10 10 10 10 9 9 10 10 10 10 10 10 10 9 9 9 8 6 3 3 3 4 5 6 6 5 5 5 4 4 4 4 4 5 5 4 4 2 2
3 3 3 3 3 3 4 5 9 10 10 10 10 10 10 10 9 8 8 5 2 3 2 3 4 5 5 5 5 5 3 4 4 4 4 4 5 4 4 4 2 2 1
-2 -2 -2 -1 0 1 3 5 9 9 10 10 10 10 9 9 9 8 5 1 1 2 2 2 2 4 5 3 4 4 4 3 3 3 4 4 4 4 4 3 2 1 0
-4 -2 -1 -1 0 2 4 7 8 9 9 10 9 9 9 9 9 7 1 0 1 1 1 1 1 2 4 3 3 2 3 3 2 2 3 3 3 3 3 3 1 1 -0
-7 -5 -3 -1 -0 1 3 6 8 8 9 9 9 9 9 8 6 1 1 1 1 0 1 2 2 3 3 3 2 2 2 2 2 3 3 3 3 3 2 1 1 1 -1
-6 -5 -4 -2 0 1 2 5 7 8 8 8 8 8 8 6 3 1 1 1 0 1 1 2 2 3 2 2 2 2 1 2 2 1 2 2 2 2 1 1 1 -0 -2
-4 -3 -3 -2 -1 1 2 2 4 6 7 7 7 6 5 4 2 1 1 0 0 0 0 0 0 1 1 1 2 1 1 1 1 1 1 1 1 1 0 0 -0 -2 -3
-6 -2 -1 -1 -0 0 2 2 2 3 3 3 3 4 3 2 1 1 1 0 0 -0 -1 -1 -1 -1 0 1 1 1 1 1 1 1 1 1 1 -0 -0 -2 -2 -5 -14
-18 -12 -4 -0 0 1 1 2 2 2 2 2 2 2 1 1 1 1 1 0 0 -1 -1 -1 -1 -1 1 0 0 1 0 0 0 0 0 -0 -1 -1 -3 -6 -6 -15 -23
-22 -22 -17 -8 -2 1 2 2 2 2 2 2 2 1 1 1 1 1 1 1 0 -1 -1 -1 -1 0 0 0 0 0 0 1 0 -0 -1 -1 -2 -3 -9 -18 -21 -23 -24
-18 -19 -20 -20 -13 -5 0 1 1 1 2 2 2 2 2 1 1 1 1 0 -0 -1 -1 -1 0 -0 0 -0 -0 -0 -0 -0 -1 -1 -2 -2 -3 -7 -13 -18 -22 -22 -22

GFSMA_850_dewp_090.txt.gz
Dewpoint
14 13 8 0 2 2 2 0 0 -0 -0 0 2 2 4 6 8 8 9 10 9 9 10 9 7 6 5 5 8 9 9 9 7 5 4 2 1 3 5 7 7 7 7
13 13 8 1 3 2 1 -0 -0 0 -0 0 1 3 5 8 10 10 9 9 9 9 10 10 9 9 7 6 5 8 9 9 8 6 4 2 2 2 4 6 6 7 7
12 12 2 2 2 3 0 -0 1 2 3 4 3 4 6 7 10 10 10 9 10 9 10 10 10 9 9 8 6 6 7 8 7 6 4 3 2 2 2 2 6 7 7
12 11 5 3 -0 -1 -0 1 4 4 4 5 6 8 9 9 10 9 9 9 9 9 9 10 10 10 9 6 6 7 7 8 7 5 4 3 3 3 3 -0 -0 3 8
12 11 10 7 2 1 2 2 4 4 5 6 8 9 10 10 10 10 10 9 9 9 9 9 9 9 6 2 4 7 8 8 8 6 5 4 3 3 3 3 0 -1 2
9 11 11 9 5 5 5 5 4 5 6 7 9 10 10 10 10 10 10 9 9 8 8 9 9 8 -2 -1 2 8 8 7 7 6 5 4 3 3 3 3 2 -1 -1
11 11 11 9 7 6 4 5 7 7 7 7 8 9 10 10 10 10 10 9 9 9 9 9 9 1 -3 -1 2 6 8 7 7 7 5 5 4 3 4 3 -0 -2 -3
10 11 10 8 8 8 9 10 10 9 8 8 9 10 10 10 10 10 9 9 8 9 9 9 9 -1 -3 -0 1 7 8 8 8 7 6 5 5 4 4 4 4 5 6
9 9 7 7 10 10 10 10 10 10 10 10 9 9 10 10 9 9 10 9 10 9 9 9 7 -2 -1 2 4 6 8 9 9 8 6 5 5 4 5 5 5 5 6
8 8 8 9 11 10 9 9 10 9 9 9 9 10 10 9 9 9 9 9 10 9 9 6 1 1 3 3 3 4 7 9 8 6 6 6 6 5 5 5 5 5 5
10 10 10 10 10 10 10 10 10 9 9 9 8 8 8 9 9 9 9 8 10 9 7 6 4 6 5 5 5 4 5 7 8 7 6 7 6 4 6 5 5 5 4
10 10 10 10 10 10 10 9 9 9 9 9 8 9 10 10 9 9 10 9 8 8 7 6 7 7 7 5 5 5 4 5 6 7 7 6 6 5 5 5 5 5 4
9 8 8 8 8 9 9 9 8 8 9 9 10 9 9 10 11 9 10 9 9 9 8 7 7 8 6 6 6 5 5 4 5 6 6 6 5 5 4 4 5 5 4
8 8 8 9 9 9 9 9 8 8 9 9 9 10 9 9 10 10 10 10 9 9 9 9 8 6 5 7 7 6 6 5 4 4 5 5 5 4 4 4 4 5 4
9 9 9 9 9 9 9 9 8 8 9 9 8 9 9 9 10 10 9 10 9 8 8 8 7 6 6 6 6 6 6 6 4 4 4 4 4 5 5 5 5 5 4
8 8 10 10 10 9 9 9 9 10 10 9 9 9 9 9 9 9 9 10 9 9 8 7 7 5 3 4 4 5 5 5 4 4 4 4 3 4 4 4 4 4 3
3 4 4 4 4 5 6 8 10 10 9 9 10 10 9 10 9 9 9 9 9 9 8 6 3 3 3 4 5 5 5 5 4 2 3 3 3 3 4 5 4 4 2
-2 -1 -1 -0 0 1 1 3 8 9 8 8 9 10 10 9 9 9 9 9 9 7 5 4 3 4 4 5 5 5 4 3 3 3 3 3 3 4 4 4 4 3 1
-8 -7 -4 -2 -1 0 1 3 4 7 7 8 8 9 9 8 9 9 9 8 6 2 2 3 3 3 4 4 4 3 3 3 2 3 3 2 2 3 3 3 3 3 1
-7 -7 -6 -6 -4 -2 1 2 4 7 7 7 8 8 8 8 9 9 8 8 3 2 2 2 3 3 2 2 2 3 3 2 2 2 2 2 2 2 3 3 2 2 1
-6 -5 -6 -5 -5 -4 -2 1 2 4 6 6 8 7 8 8 8 8 7 4 2 2 2 2 2 2 1 1 2 2 2 1 1 2 2 2 2 2 2 2 2 1 1
-17 -12 -5 -4 -3 -2 -2 -0 1 2 4 6 7 7 7 7 7 7 4 3 2 2 1 1 1 1 -0 -0 1 1 1 1 1 1 1 1 1 2 1 1 0 0 -0
-22 -23 -21 -14 -5 -1 -0 0 2 2 2 3 4 5 5 5 5 5 5 4 2 2 2 2 0 0 0 -1 -1 1 1 1 1 1 1 1 1 1 1 0 -0 -2 -2
-21 -21 -22 -22 -22 -15 -6 0 1 2 2 2 2 3 3 3 3 3 2 2 3 3 1 1 1 -0 0 -1 -0 0 1 1 1 1 1 1 1 0 -0 -0 -2 -4 -4
-19 -19 -19 -20 -20 -21 -20 -12 -1 1 1 2 2 2 2 2 2 2 2 1 2 1 1 1 0 -0 -1 -1 -0 0 1 0 0 0 1 0 -0 -1 -1 -2 -11 -15 -22
-17 -17 -18 -18 -17 -18 -19 -16 -6 -1 0 1 1 2 2 2 2 2 1 1 1 1 1 0 -0 -0 -1 -0 0 -0 0 1 0 0 0 -0 -1 -1 -3 -8 -13 -20 -22

GFSMA_850_dewp_096.txt.gz
Dewpoint
7 7 10 12 13 12 11 12 12 6 2 1 0 -0 0 2 4 5 7 8 9 9 8 8 8 7 7 6 6 6 10 10 9 8 6 4 1 0 1 2 4 5 6
8 7 7 10 12 12 12 11 11 9 4 1 0 -0 -0 1 3 5 6 8 9 8 9 9 9 9 8 8 7 5 7 10 8 8 6 4 2 1 1 1 3 6 6
8 8 6 7 9 13 12 10 11 8 6 3 2 1 0 1 4 5 7 9 9 9 9 9 9 9 9 9 8 5 5 6 6 7 6 5 3 2 2 2 2 1 2
5 6 9 9 8 9 13 11 8 9 6 3 2 1 2 3 3 5 9 10 9 9 9 9 9 9 9 9 8 5 5 9 7 7 6 5 4 3 2 1 2 2 1
5 6 8 10 11 9 10 8 7 8 6 3 1 1 3 3 3 6 7 9 9 9 10 9 9 9 9 9 9 3 5 8 8 8 7 5 4 4 4 2 2 2 1
8 9 8 9 11 11 11 8 7 6 5 4 3 1 4 5 5 7 8 9 10 10 10 9 9 8 9 9 9 -1 5 8 10 8 7 6 5 5 5 3 3 3 3
9 10 10 10 11 11 11 9 8 9 8 4 5 7 6 6 7 8 9 10 10 10 10 9 9 9 8 9 9 -0 4 9 10 8 7 7 6 5 5 4 3 3 4
9 10 11 10 11 10 10 7 7 6 5 4 8 8 7 7 8 8 9 10 10 10 10 10 9 9 8 9 9 5 -1 8 8 7 7 7 7 6 5 4 4 4 4
9 9 12 11 12 11 8 5 6 7 6 4 8 8 9 9 8 8 9 9 9 9 10 10 9 9 9 9 9 7 -2 6 8 6 5 7 7 6 5 5 4 4 4
9 9 10 11 11 11 8 7 5 3 5 5 8 8 8 9 9 8 8 7 9 10 10 10 9 9 9 9 9 5 -2 0 1 2 6 6 7 6 6 6 5 4 4
9 9 10 10 9 9 10 9 5 4 6 8 8 7 8 9 9 9 9 9 8 8 8 7 8 9 9 9 8 2 -0 2 3 3 5 7 6 7 7 7 5 5 6
11 11 10 9 10 10 10 10 9 8 6 7 8 8 9 8 9 9 9 9 8 8 8 8 8 9 9 9 8 3 4 4 4 3 4 7 6 6 6 6 5 5 4
10 10 9 9 8 8 8 8 8 8 8 8 9 9 9 9 10 9 9 9 9 9 9 9 9 9 9 9 6 6 6 6 5 4 4 4 6 6 6 6 5 4 3
8 10 9 9 9 9 9 9 9 9 8 9 9 9 10 10 10 9 9 9 9 10 10 10 10 10 9 9 7 8 7 7 6 5 4 4 4 5 5 5 4 4 3
9 9 9 9 8 8 7 7 7 7 8 9 9 9 9 9 8 8 9 9 10 10 9 9 10 9 9 9 8 8 8 7 6 5 5 4 3 4 4 5 4 3 4
8 8 8 8 9 8 9 9 9 9 9 9 9 9 9 8 7 9 10 10 9 9 9 9 9 9 9 8 8 8 8 7 7 6 5 4 4 4 4 3 4 4 4
-2 1 3 3 5 7 7 5 8 9 9 9 9 9 9 9 9 9 9 9 9 9 9 9 9 9 9 8 8 8 6 6 7 6 5 4 4 4 4 2 2 3 3
-6 -6 -6 -5 -3 -1 0 1 2 4 8 8 9 9 9 8 8 9 9 9 9 9 9 9 9 8 8 8 8 7 7 7 7 6 5 5 4 3 3 1 3 3 3
-12 -8 -6 -6 -6 -6 -5 -3 -1 -0 1 3 5 6 7 7 7 8 8 8 9 9 9 9 9 8 8 8 7 7 7 6 6 6 5 4 4 3 2 2 3 3 3
-21 -21 -22 -21 -14 -6 -4 -3 -3 -2 -0 1 2 4 6 6 7 7 7 8 8 8 8 8 8 8 8 7 6 5 5 6 5 5 4 3 2 2 2 2 1 2 3
-19 -19 -20 -20 -21 -22 -21 -15 -6 -2 -2 -1 1 3 5 5 6 6 6 7 7 7 7 8 7 7 7 6 5 5 5 5 5 4 3 2 2 1 2 2 1 1 2
-17 -18 -18 -19 -19 -20 -20 -20 -21 -22 -19 -6 -1 1 2 4 5 6 6 6 7 7 7 7 7 7 4 3 4 4 3 3 3 2 2 1 1 1 1 1 1 1 1
-16 -17 -17 -17 -18 -18 -19 -19 -20 -20 -20 -20 -18 -6 -0 2 3 4 5 5 6 6 6 7 7 6 4 3 3 4 3 2 1 1 0 -0 1 1 1 1 1 1 1
-17 -17 -18 -18 -18 -19 -19 -19 -19 -20 -20 -21 -20 -14 -12 -1 1 2 3 4 4 5 5 5 6 5 5 4 4 3 3 2 2 1 1 0 1 1 1 0 0 0 1
-19 -19 -18 -18 -18 -19 -20 -20 -18 -18 -19 -20 -21 -20 -15 -5 -1 1 2 2 3 3 4 4 4 4 4 3 3 3 3 3 2 1 1 1 0 0 0 0 0 0 0
-19 -19 -20 -20 -20 -21 -21 -21 -20 -18 -18 -18 -18 -16 -14 -10 -2 -1 1 1 2 2 3 3 3 4 4 4 3 4 3 3 2 1 0 1 0 0 -0 0 0 -0 -1

GFSMA_850_dewp_099.txt.gz
Dewpoint
8 8 8 10 9 11 12 12 11 11 10 7 3 2 3 4 4 4 5 6 7 8 8 9 8 7 7 6 6 5 8 10 10 8 7 4 1 -1 -1 -0 3 4 4
9 9 8 9 11 10 10 11 12 11 12 8 4 3 2 2 3 4 5 6 8 9 8 9 9 9 8 8 7 6 6 9 10 8 7 5 1 0 -0 -0 0 1 3
4 5 8 8 9 11 11 11 12 12 11 12 7 3 2 1 1 3 5 6 7 9 8 9 9 9 9 8 8 7 3 6 6 6 7 5 3 2 0 -1 -0 1 1
6 5 5 8 8 9 12 12 12 12 11 7 9 5 2 1 1 2 4 6 7 9 9 9 9 8 8 9 9 8 3 6 7 7 7 6 4 3 3 2 1 1 1
7 7 6 6 8 8 10 10 12 13 10 8 10 7 4 2 2 3 4 5 8 9 9 9 9 9 9 9 9 9 4 5 8 8 7 6 5 4 4 4 2 1 2
7 8 8 8 8 9 9 11 10 10 11 8 7 5 4 4 2 4 5 5 6 9 10 9 10 9 9 9 9 9 5 -0 6 9 8 6 5 5 5 5 3 2 3
8 8 9 9 9 10 10 11 10 11 12 8 6 3 5 4 3 3 5 5 6 7 9 10 10 10 9 9 9 9 8 -1 4 8 8 6 6 5 5 5 4 3 3
8 8 9 10 10 10 10 9 10 11 11 7 6 7 8 6 3 4 6 7 8 9 10 10 10 10 9 9 9 9 9 2 -1 5 7 5 6 6 6 6 5 4 3
8 8 9 10 10 11 11 9 10 11 11 8 7 9 8 8 7 5 5 6 7 9 9 10 10 10 10 9 9 9 9 7 -0 4 7 6 4 5 6 5 5 5 4
7 7 9 10 10 11 11 10 10 11 10 8 9 7 5 7 8 7 6 5 6 8 9 9 9 10 10 9 9 9 9 8 4 9 8 5 4 5 6 5 6 6 4
9 9 9 9 10 10 10 10 10 9 9 8 8 7 6 6 8 9 9 8 7 7 8 9 9 9 9 10 9 9 9 8 4 7 9 8 6 7 6 6 6 6 4
9 9 10 9 10 10 10 10 9 8 8 7 7 6 6 7 7 8 9 8 8 8 8 9 9 8 8 9 9 9 9 7 4 6 6 8 7 8 8 7 6 6 4
10 10 11 10 10 10 10 10 10 10 7 7 6 6 7 7 7 8 8 8 9 9 9 8 7 8 8 8 9 9 9 6 5 6 6 7 6 7 8 7 6 6 5
8 9 9 9 9 9 9 9 9 9 8 7 8 7 8 8 8 7 8 9 10 10 9 8 7 7 8 9 9 10 9 8 7 6 6 6 7 6 6 6 6 5 5
8 8 9 9 9 9 9 9 9 9 8 7 8 7 8 8 8 8 9 9 9 9 9 8 7 9 8 8 9 9 9 9 7 7 6 5 5 5 5 4 5 5 3
6 8 8 8 8 8 8 9 8 9 9 8 7 8 9 8 8 9 9 8 8 9 9 9 9 8 7 7 9 9 9 8 8 7 6 5 5 4 4 3 4 4 3
-5 -5 -2 -1 1 3 5 7 6 7 7 9 9 9 9 9 8 9 9 9 9 9 9 9 9 9 8 8 8 8 9 8 8 7 6 5 5 5 4 4 4 3 2
-13 -10 -7 -6 -6 -5 -3 -1 0 1 2 3 7 8 8 8 8 8 8 8 8 9 8 8 8 8 8 8 8 8 8 8 8 6 6 6 6 5 5 4 4 2 1
-20 -21 -21 -21 -20 -14 -8 -6 -4 -4 -2 0 1 2 4 4 5 7 6 7 7 8 8 8 8 8 8 8 8 8 8 8 7 7 7 7 6 5 4 4 3 2 3
-18 -18 -19 -19 -19 -20 -20 -21 -19 -13 -6 -3 -2 -1 1 4 4 5 6 6 7 6 7 8 8 8 8 8 8 8 7 7 7 7 7 6 5 5 4 3 2 2 2
-16 -16 -16 -16 -17 -17 -17 -18 -19 -19 -20 -21 -20 -11 -2 1 3 4 5 6 5 6 6 7 7 8 8 8 8 7 7 7 7 6 6 5 5 4 3 2 2 2 1
-16 -16 -16 -17 -17 -17 -17 -17 -17 -17 -17 -17 -18 -18 -20 -20 -3 2 3 4 5 5 6 6 6 6 6 7 7 7 7 6 6 6 5 5 4 3 2 1 1 1 1
-20 -20 -21 -22 -22 -22 -21 -21 -21 -21 -20 -19 -19 -19 -19 -19 -20 -19 -4 2 3 4 4 5 5 6 6 7 7 7 6 6 4 4 5 4 3 2 1 0 1 0 0
-21 -22 -22 -21 -22 -23 -22 -21 -21 -21 -21 -22 -20 -20 -20 -20 -18 -12 -9 -12 0 2 3 4 4 5 6 6 7 6 5 4 5 5 4 1 1 0 -0 0 1 0 0
-22 -22 -22 -22 -22 -24 -24 -25 -24 -23 -23 -23 -23 -22 -20 -19 -19 -17 -3 -1 -2 -2 2 3 4 4 5 5 6 5 5 5 4 4 3 2 1 0 0 0 0 0 0
-19 -19 -20 -20 -20 -21 -22 -23 -24 -23 -24 -24 -25 -25 -24 -21 -18 -13 -6 -3 -1 -0 -1 1 2 3 4 4 5 4 4 4 4 3 2 2 1 1 0 -0 -0 -0 -0

GFSMA_850_dewp_102.txt.gz
Dewpoint
8 8 9 13 13 13 13 11 12 12 12 13 11 8 8 9 9 9 9 5 4 5 8 8 8 7 5 5 5 6 6 9 10 9 8 5 1 -1 -2 -1 0 2 3
10 11 10 9 10 13 13 13 12 13 12 12 12 11 7 4 7 7 8 7 5 6 8 8 10 9 8 8 7 6 6 10 9 10 7 6 4 -0 -1 -1 -1 -1 -0
10 9 6 6 7 9 13 13 13 12 12 11 11 10 6 4 3 5 4 6 7 7 8 8 8 10 10 10 9 7 6 3 5 7 6 6 5 2 1 0 -0 -0 -0
9 6 6 6 5 10 9 11 12 12 12 12 12 12 10 6 5 5 5 4 6 5 6 8 8 9 9 9 9 9 8 6 6 6 6 6 5 3 2 2 2 1 0
6 6 7 8 8 7 7 9 10 11 12 12 12 11 7 8 4 5 5 5 4 5 6 8 8 9 9 9 9 9 9 8 3 8 8 7 5 4 2 3 3 2 1
6 7 8 8 10 11 10 10 13 12 12 11 12 12 9 6 8 3 1 4 6 6 6 8 9 9 9 9 9 9 9 9 5 2 7 8 5 4 3 3 4 3 1
7 7 8 8 8 10 11 11 11 10 11 12 12 12 9 8 11 5 2 1 2 5 5 6 9 10 9 9 9 9 9 9 9 1 6 9 7 5 5 5 5 4 3
7 8 8 7 8 10 11 11 10 10 10 12 11 11 11 9 9 5 4 3 3 3 4 5 6 9 10 10 9 9 9 9 10 9 5 8 8 6 5 5 5 5 4
8 8 7 7 7 9 10 10 10 10 11 11 11 11 9 8 7 6 3 2 3 4 4 5 7 9 10 10 10 9 9 9 9 9 9 7 9 7 6 6 6 5 5
10 9 7 7 7 9 10 10 10 11 11 11 10 11 10 7 6 6 6 5 5 6 5 5 7 9 9 10 10 10 9 9 9 8 9 9 9 7 7 6 6 5 5
8 10 10 10 10 10 10 10 10 11 11 11 10 10 10 8 8 8 8 6 5 4 5 6 6 8 9 9 8 8 9 9 9 9 9 9 9 8 6 8 8 7 7
9 10 10 10 10 10 10 9 10 10 10 10 10 10 9 9 8 8 7 8 8 8 7 6 7 7 8 7 8 8 9 9 9 9 9 9 9 7 7 8 8 7 7
7 8 9 10 10 10 10 10 10 10 10 10 9 9 9 9 8 8 8 6 7 7 8 7 7 7 8 8 9 9 9 9 10 9 9 9 8 8 8 9 8 7 7
8 8 9 9 9 9 9 9 9 9 9 9 9 9 9 8 8 7 6 7 9 9 8 7 7 7 7 8 9 8 8 8 9 9 9 9 8 8 8 8 8 8 7
7 8 7 8 8 8 9 9 9 9 9 8 9 8 8 7 6 6 6 7 9 9 8 7 7 7 8 8 8 8 8 8 7 10 9 9 8 7 7 8 7 8 7
-5 -1 4 4 5 7 7 8 8 8 9 8 9 9 8 8 8 8 7 8 8 9 9 8 8 7 6 8 9 9 8 8 9 10 9 9 8 6 7 6 6 7 6
-14 -10 -7 -5 -4 -2 2 3 5 6 7 7 7 7 8 8 9 8 8 8 9 9 9 8 8 8 9 9 9 9 8 9 8 9 10 9 7 7 6 5 6 5 5
-18 -20 -20 -20 -20 -17 -12 -7 -4 -3 -1 1 3 5 6 8 8 8 8 8 9 9 9 9 8 8 7 8 8 8 8 8 8 9 8 8 7 6 5 5 5 4 4
-16 -16 -16 -16 -17 -17 -18 -19 -20 -20 -16 -9 -5 -2 -1 0 1 3 5 7 7 7 7 7 7 8 8 8 8 8 8 8 8 7 8 8 6 6 6 6 5 4 4
-15 -15 -16 -16 -16 -16 -16 -16 -16 -16 -17 -18 -19 -20 -18 -10 -3 0 3 3 5 6 6 7 7 7 7 8 8 8 8 8 8 8 7 7 7 7 6 5 5 4 4
-17 -18 -19 -20 -20 -20 -20 -19 -19 -18 -18 -17 -17 -17 -17 -18 -20 -19 -7 0 3 4 5 5 6 6 6 7 7 7 8 8 8 7 7 7 7 6 6 6 5 4 3
-24 -24 -23 -24 -24 -24 -24 -25 -25 -26 -25 -25 -24 -22 -20 -18 -18 -18 -19 -15 -3 2 3 4 4 5 6 5 7 7 8 7 5 6 7 7 7 6 6 5 5 4 2
-21 -22 -23 -23 -23 -23 -24 -24 -24 -24 -22 -24 -24 -25 -25 -24 -23 -19 -19 -17 -16 -9 1 2 3 4 4 4 5 6 6 7 7 7 6 6 7 6 6 5 4 2 1
-21 -22 -21 -21 -22 -22 -22 -23 -23 -24 -23 -24 -24 -23 -17 -18 -19 -20 -16 -10 -13 -15 -9 0 1 2 3 3 4 5 5 6 5 6 6 5 6 5 5 4 3 2 1
-22 -22 -22 -21 -21 -22 -21 -20 -21 -22 -22 -21 -15 -15 -15 -23 -17 -21 -19 -6 -5 -4 -12 -7 -1 1 2 2 3 3 4 4 3 5 5 5 5 5 4 3 2 1 0
-21 -22 -22 -22 -22 -22 -22 -21 -19 -19 -13 -10 -9 -9 -8 -13 -23 -24 -15 -7 -6 -5 -4 -9 -12 -2 1 2 3 3 3 3 3 3 4 4 5 3 2 2 1 0 0

GFSMA_850_dewp_105.txt.gz
Dewpoint
9 8 10 12 13 12 13 13 13 13 13 13 12 9 10 10 9 9 10 10 8 4 4 5 9 6 5 4 4 4 5 6 9 10 9 7 4 -1 -2 -2 -2 -1 0
8 8 9 9 9 13 13 12 12 12 13 12 12 11 9 9 9 9 8 9 8 5 4 5 7 9 8 6 6 6 4 4 9 10 9 8 5 2 -1 -1 -2 -2 -2
11 10 11 10 10 8 10 12 13 12 12 12 12 12 12 10 8 8 8 8 8 6 5 6 7 8 9 10 8 9 7 6 6 4 7 8 5 4 1 -0 -0 0 -0
11 11 11 10 10 11 12 11 10 12 12 11 11 12 12 11 8 7 5 5 7 8 6 5 7 8 7 9 10 9 9 8 6 4 6 5 6 5 3 1 2 2 1
11 10 10 9 10 11 10 10 11 11 11 11 11 12 12 12 12 10 5 3 4 5 6 6 5 7 8 9 9 9 9 9 8 7 3 7 7 6 4 3 3 3 3
10 10 10 10 10 11 11 10 11 10 11 10 11 12 11 12 12 12 8 6 4 4 4 3 5 5 8 8 9 9 9 9 9 9 6 4 9 7 5 4 3 4 4
9 10 10 10 10 10 10 10 11 11 10 10 11 11 11 12 11 11 10 9 4 4 5 2 1 3 7 9 9 9 9 9 9 9 9 5 6 8 7 5 4 4 4
6 9 10 10 9 10 10 10 10 10 11 11 11 10 11 10 11 11 12 9 5 6 4 6 1 3 3 6 8 9 9 9 9 9 9 10 4 8 9 6 5 5 5
8 9 8 9 9 10 9 9 10 10 11 11 11 11 11 10 10 10 9 9 7 8 5 3 2 3 3 5 5 8 9 10 9 9 9 9 9 6 9 8 6 6 5
8 8 10 10 10 9 10 10 9 10 10 11 11 10 10 11 9 9 10 9 9 8 6 3 3 3 2 6 7 8 9 9 9 9 9 9 9 10 7 8 7 6 6
8 7 7 8 9 10 10 9 9 10 10 11 10 11 11 11 11 9 8 8 8 8 6 3 5 3 3 6 7 8 8 9 9 10 10 10 10 10 10 8 8 6 8
8 7 9 9 9 10 10 10 10 10 11 10 10 11 11 10 10 10 8 8 9 7 8 5 5 6 8 8 8 7 7 8 9 9 9 10 10 10 10 10 9 8 8
8 8 8 8 8 8 10 10 10 10 10 10 10 10 10 10 10 10 9 8 9 9 9 8 6 6 8 7 6 7 7 7 8 9 9 9 10 10 11 10 9 8 8
7 8 8 7 6 8 8 9 9 10 10 10 10 10 10 10 10 9 9 9 9 7 6 6 5 5 6 6 6 7 7 8 9 9 8 9 9 10 10 10 9 9 9
-5 -1 2 4 4 4 5 6 7 7 8 9 9 9 9 9 9 9 9 9 8 8 8 7 6 6 6 7 6 6 6 6 6 8 8 9 9 9 10 10 9 9 8
-14 -15 -11 -8 -4 1 1 3 4 5 6 7 8 8 8 8 8 8 8 8 8 7 8 7 7 8 8 8 7 7 6 7 7 7 8 9 8 9 10 10 9 9 9
-17 -14 -15 -17 -15 -13 -13 -7 -3 1 0 1 4 6 6 7 7 7 8 8 8 8 8 7 8 8 8 8 8 8 8 8 9 9 9 9 8 9 10 10 9 8 8
-15 -15 -14 -13 -15 -15 -13 -14 -15 -17 -16 -17 -14 -10 -5 -0 2 5 6 7 7 7 9 9 8 9 8 8 9 7 8 8 8 8 7 8 8 9 9 9 8 7 7
-16 -16 -17 -17 -18 -17 -17 -17 -16 -16 -16 -16 -16 -17 -19 -19 -12 -6 -1 2 3 5 7 7 7 7 7 7 8 8 8 8 8 7 8 8 8 9 9 9 7 6 6
-20 -23 -25 -25 -25 -26 -25 -26 -26 -25 -24 -21 -19 -18 -17 -17 -17 -18 -19 -18 -8 -2 1 4 6 6 7 7 7 7 7 7 8 8 8 8 7 8 8 7 7 5 5
-23 -25 -26 -26 -26 -26 -20 -27 -27 -26 -25 -23 -26 -28 -26 -24 -21 -18 -17 -17 -16 -12 -2 1 2 3 4 5 5 6 6 7 7 8 7 7 7 7 7 7 6 6 5
-27 -27 -27 -26 -26 -26 -27 -27 -27 -29 -29 -28 -22 -21 -22 -25 -23 -25 -21 -19 -17 -15 -12 -2 2 2 3 4 5 4 5 5 6 7 7 7 7 7 7 6 6 6 5
-12 -11 -11 -11 -12 -14 -18 -21 -22 -23 -24 -24 -25 -28 -28 -21 -16 -11 -12 -17 -17 -13 -12 -9 -1 0 2 2 3 4 4 4 5 5 6 6 7 7 7 7 7 6 6
-16 -15 -16 -17 -17 -18 -17 -20 -20 -20 -20 -18 -13 -12 -10 -11 -15 -17 -22 -23 -22 -18 -12 -7 -7 -3 -0 -0 1 2 3 3 4 4 5 5 5 5 7 6 6 6 5
-18 -18 -19 -20 -20 -21 -21 -21 -20 -20 -20 -17 -11 -10 -9 -8 -7 -6 -14 -19 -22 -23 -17 -7 -5 -4 -8 -8 -1 1 2 2 3 4 4 4 4 4 4 5 5 5 5
-18 -18 -18 -18 -16 -15 -13 -11 -13 -14 -12 -10 -10 -10 -9 -8 -6 -6 -7 -7 -6 -7 -7 -13 -17 -17 -18 -16 -14 -4 1 1 2 3 3 3 3 3 2 4 3 3 4

GFSMA_850_dewp_111.txt.gz
Dewpoint
11 12 12 13 13 13 13 13 12 12 12 11 11 12 11 9 7 10 8 8 11 10 9 9 2 2 6 6 2 1 3 6 8 9 9 9 8 5 2 -2 -3 -2 -1
10 11 10 10 12 13 13 13 12 12 12 12 12 11 11 11 9 9 10 9 10 10 10 9 7 2 4 8 5 2 2 1 2 6 6 9 9 8 4 1 -1 -1 -1
11 10 10 9 11 11 12 12 11 11 11 11 11 12 11 11 12 10 9 10 9 9 9 9 8 6 3 5 7 8 6 4 3 4 6 8 4 7 6 4 1 -0 0
11 10 11 10 8 8 9 10 9 9 9 12 11 10 11 11 11 12 10 10 10 9 9 8 7 6 4 4 4 4 7 8 8 8 8 8 7 5 5 4 3 1 1
11 11 11 10 11 11 10 9 9 8 7 7 8 8 9 9 10 11 11 11 10 9 9 8 7 5 4 4 5 5 5 6 10 10 9 7 7 5 5 6 5 3 2
10 11 11 10 8 10 10 10 9 8 8 7 7 7 6 5 7 9 10 10 11 11 10 8 7 7 4 4 3 4 5 5 6 9 9 8 7 8 4 6 7 5 3
10 11 11 11 9 9 9 10 10 10 9 9 11 9 6 6 8 9 9 10 10 11 11 10 9 9 5 4 3 3 5 6 6 7 7 8 8 9 9 5 6 7 6
10 10 9 9 9 9 10 9 9 9 9 9 10 10 10 9 9 8 8 9 9 9 9 9 10 8 5 8 5 2 2 4 7 7 8 7 7 8 8 9 8 5 7
9 10 9 9 8 7 7 6 7 8 8 8 9 10 10 9 9 9 9 8 8 9 9 9 9 9 9 10 6 4 2 3 5 7 8 8 8 8 8 9 9 6 5
9 8 7 6 8 8 8 8 8 8 7 7 8 10 9 10 10 9 9 9 9 9 9 9 8 9 10 9 7 6 5 2 2 5 6 9 9 9 10 9 9 9 5
7 8 7 7 8 8 7 7 7 7 7 7 8 9 9 9 10 10 10 9 10 9 9 9 9 9 9 10 9 10 7 4 2 4 4 6 8 9 10 10 10 9 9
7 7 7 7 7 7 7 6 6 6 6 7 7 9 9 9 9 9 10 10 10 9 9 9 9 9 9 9 9 9 7 6 3 4 3 6 7 8 9 10 11 11 10
4 3 3 2 1 1 0 2 4 5 5 5 6 6 8 8 8 9 9 10 10 10 9 9 9 9 9 9 9 8 8 7 4 5 8 7 7 7 6 7 8 11 11
-7 -8 -6 -6 -8 -9 -9 -9 -9 -5 1 4 5 5 5 5 6 7 8 9 10 10 9 10 10 9 9 9 9 8 7 7 6 7 8 7 6 8 6 8 8 9 9
-10 -9 -7 -6 -8 -13 -13 -12 -12 -12 -12 -8 -2 3 4 4 5 4 6 6 6 8 9 9 9 10 10 9 9 9 8 8 9 8 7 6 7 8 8 7 7 8 8
-12 -11 -12 -13 -15 -15 -15 -15 -15 -13 -12 -10 -8 -5 -1 3 2 2 3 4 4 5 7 7 8 8 8 9 9 8 9 9 8 8 7 7 6 7 7 6 6 8 7
-16 -18 -20 -23 -26 -28 -28 -28 -26 -25 -25 -21 -16 -9 -5 -5 -4 -4 0 -1 1 2 3 5 5 7 8 8 8 7 8 8 8 8 7 8 8 8 7 7 7 7 7
-23 -25 -26 -26 -27 -28 -28 -28 -26 -26 -29 -28 -24 -22 -20 -19 -15 -14 -13 -13 -9 -5 -1 2 2 2 6 6 7 8 8 8 8 8 8 8 8 8 8 8 8 8 7
-27 -27 -27 -27 -26 -25 -23 -23 -22 -24 -26 -27 -26 -23 -17 -14 -16 -19 -20 -18 -17 -15 -11 -5 -2 -3 1 4 5 6 6 7 8 8 8 8 8 8 8 9 9 8 8
-25 -24 -22 -21 -19 -19 -19 -18 -22 -25 -26 -27 -26 -26 -25 -19 -19 -18 -14 -15 -16 -15 -15 -14 -13 -10 -3 -1 1 2 2 4 6 6 7 7 8 8 7 7 7 7 7
-27 -24 -22 -21 -20 -20 -20 -18 -14 -14 -21 -25 -26 -25 -22 -20 -20 -15 -11 -11 -11 -14 -15 -12 -12 -12 -8 -5 -1 2 2 2 2 4 5 5 5 5 6 8 7 7 6
-24 -22 -21 -21 -21 -21 -21 -21 -20 -18 -17 -19 -22 -23 -23 -20 -13 -11 -10 -9 -10 -11 -15 -13 -6 -6 -10 -8 -3 -2 -1 1 2 2 2 3 3 3 5 6 7 6 7
-21 -20 -19 -19 -20 -19 -18 -17 -16 -15 -16 -16 -17 -20 -20 -16 -11 -10 -9 -9 -9 -10 -16 -12 -6 -5 -4 -4 -6 -8 -6 -2 -1 1 1 2 3 3 4 5 6 6 7
-19 -19 -19 -18 -18 -17 -16 -15 -12 -10 -10 -11 -13 -14 -15 -15 -13 -10 -7 -7 -7 -8 -10 -14 -10 -8 -6 -5 -4 -4 -6 -7 -9 -9 -2 0 1 1 3 3 5 6 6
-18 -17 -16 -16 -15 -15 -13 -12 -9 -9 -9 -9 -10 -11 -11 -12 -14 -8 -6 -6 -7 -8 -9 -9 -9 -9 -10 -10 -9 -10 -15 -12 -5 -9 -11 -1 -0 -0 1 2 4 4 5
-16 -16 -16 -15 -15 -14 -14 -12 -8 -8 -7 -8 -8 -8 -9 -8 -8 -8 -7 -7 -7 -8 -8 -9 -9 -9 -8 -10 -13 -12 -11 -7 -5 -4 -5 -1 -1 -0 0 -1 1 3 4

GFSMA_850_dewp_114.txt.gz
Dewpoint
13 13 12 12 13 12 13 13 12 12 11 11 12 12 12 12 11 9 5 9 7 6 8 10 10 8 3 3 4 2 0 2 5 7 8 8 8 7 4 -0 -3 -3 -2
12 12 12 12 12 12 12 12 12 12 12 12 11 11 12 12 12 11 9 8 10 8 8 10 10 10 9 3 6 7 2 0 0 4 6 8 9 9 8 4 0 -2 -2
12 12 12 11 11 10 11 11 12 12 11 10 10 9 10 11 12 12 11 11 10 10 10 9 9 10 9 7 3 9 7 4 2 1 0 5 6 9 9 8 4 0 -1
12 11 12 11 11 9 11 11 12 11 10 9 8 7 8 9 9 9 10 10 11 10 10 10 10 9 9 7 6 7 9 9 8 5 4 3 7 7 3 4 5 4 1
10 11 11 12 11 10 10 10 9 10 9 9 8 8 8 8 8 8 8 9 10 11 10 10 10 9 9 8 7 5 5 6 8 9 8 8 7 7 7 5 5 4 3
8 10 11 11 11 11 10 11 10 10 10 9 9 8 6 4 3 2 2 3 6 9 11 11 11 9 9 9 8 6 5 5 5 7 7 10 10 9 7 6 4 6 5
7 9 10 10 10 11 10 10 10 10 9 10 9 7 6 5 3 2 0 -1 1 5 8 10 11 10 10 9 8 8 8 5 5 6 6 6 10 9 9 8 7 4 7
7 8 9 10 10 10 10 9 8 9 8 8 8 9 9 6 4 4 5 5 4 4 7 8 10 10 11 10 10 9 10 5 5 5 6 5 7 8 8 9 8 8 5
8 8 9 9 9 9 9 9 7 6 6 5 6 9 8 8 8 8 7 8 9 8 8 8 8 9 10 10 9 9 10 7 7 4 4 6 5 8 8 8 8 8 9
7 7 8 8 8 7 7 8 7 7 7 6 6 6 9 8 8 8 8 8 8 8 9 9 8 8 8 9 9 9 9 9 8 7 4 6 6 7 8 9 9 9 9
6 5 6 7 7 7 7 7 7 6 6 6 6 6 6 7 8 9 9 8 8 8 8 8 9 8 8 9 9 9 9 9 10 9 5 6 6 7 8 8 9 9 10
6 6 6 6 6 5 4 3 3 4 5 5 5 6 6 6 6 5 6 7 9 8 8 8 8 7 8 8 8 8 9 9 10 8 6 7 6 6 7 5 8 9 10
-1 0 -0 1 -3 -7 -8 -9 -10 -10 -9 -4 2 4 5 5 5 5 4 5 4 7 8 8 8 9 8 8 8 9 8 9 10 9 8 9 6 6 7 6 7 8 10
-7 -7 -4 -3 -3 -3 -9 -13 -13 -12 -12 -12 -10 -8 -4 0 3 3 3 3 3 4 8 8 9 10 9 8 9 9 9 10 9 9 8 8 8 7 7 7 8 8 8
-12 -12 -12 -11 -11 -11 -12 -13 -15 -16 -17 -15 -14 -13 -10 -7 -5 -0 2 2 2 3 3 7 8 8 8 9 10 10 10 10 10 9 8 8 8 7 7 8 8 8 9
-16 -17 -20 -23 -25 -27 -27 -27 -28 -27 -26 -27 -24 -20 -17 -13 -10 -6 -4 -1 1 0 2 3 4 4 5 8 8 8 9 10 9 9 8 9 7 7 8 8 8 8 8
-24 -28 -29 -29 -29 -29 -29 -29 -28 -26 -26 -27 -27 -27 -23 -19 -18 -17 -16 -11 -7 -3 -2 0 2 2 2 4 6 8 8 8 8 8 9 9 9 8 8 8 8 8 8
-27 -27 -27 -27 -26 -25 -23 -23 -23 -23 -24 -26 -27 -28 -27 -25 -21 -18 -19 -16 -14 -12 -4 -5 -10 -4 -3 -1 3 4 5 7 8 8 8 8 8 8 8 8 8 8 8
-28 -29 -27 -25 -23 -22 -21 -20 -20 -19 -20 -22 -24 -25 -25 -23 -22 -20 -15 -11 -11 -10 -9 -10 -10 -12 -10 -7 -5 -0 3 4 5 6 7 7 8 8 8 8 8 8 8
-27 -25 -22 -20 -19 -20 -20 -20 -19 -19 -20 -19 -20 -22 -23 -22 -19 -15 -9 -10 -7 -9 -12 -14 -17 -16 -14 -12 -6 -2 -2 1 3 3 5 5 6 7 7 8 8 8 8
-26 -22 -21 -20 -20 -20 -20 -19 -17 -15 -13 -16 -18 -20 -21 -21 -16 -12 -10 -10 -8 -9 -10 -12 -16 -16 -14 -13 -8 -7 -5 -5 -2 2 3 3 4 5 5 6 6 7 7
-23 -21 -20 -20 -20 -20 -19 -18 -18 -16 -15 -14 -14 -16 -17 -20 -19 -15 -11 -10 -6 -7 -7 -7 -12 -8 -8 -6 -6 -5 -7 -9 -6 -6 0 1 2 3 3 5 6 7 8
-21 -20 -20 -20 -20 -20 -19 -18 -16 -12 -12 -12 -13 -14 -15 -15 -16 -17 -15 -11 -8 -6 -6 -7 -8 -11 -8 -7 -5 -5 -6 -6 -7 -11 -10 -8 -2 0 1 2 4 5 7
-20 -20 -19 -20 -20 -20 -20 -19 -16 -14 -13 -12 -12 -11 -11 -11 -12 -8 -7 -8 -8 -8 -8 -8 -8 -9 -9 -10 -7 -8 -9 -10 -11 -18 -15 -7 -12 -12 -4 -2 0 4 6
-19 -19 -19 -19 -19 -19 -18 -16 -11 -10 -10 -10 -11 -11 -11 -12 -12 -7 -7 -8 -9 -10 -10 -9 -8 -9 -10 -8 -8 -9 -11 -11 -12 -17 -22 -5 -15 -8 -9 -11 -5 0 4
-19 -19 -18 -17 -17 -16 -15 -14 -13 -12 -12 -11 -11 -11 -11 -9 -8 -8 -8 -8 -8 -10 -10 -10 -8 -7 -9 -9 -8 -7 -9 -8 -6 -6 -4 -3 -4 -3 -2 -1 -2 -5 0

GFSMA_850_dewp_117.txt.gz
Dewpoint
11 11 12 13 13 12 12 12 12 12 12 11 11 11 10 11 11 11 11 10 3 4 4 5 7 10 10 9 7 2 2 1 2 5 6 8 7 7 6 3 -1 -3 -3
10 10 11 12 12 12 12 11 12 12 12 12 11 12 12 12 12 11 11 11 8 9 10 8 7 9 10 10 9 7 4 5 2 1 4 6 8 8 8 7 4 -0 -2
6 9 10 12 12 12 12 11 11 12 11 11 11 11 11 10 10 10 10 11 11 11 10 10 10 9 9 10 10 9 7 5 7 3 1 2 3 6 7 8 8 4 0
-5 3 8 12 11 12 11 11 10 11 11 11 11 9 8 8 7 9 9 9 9 9 9 9 10 10 10 10 10 9 8 7 8 8 6 4 2 3 5 8 7 7 4
-4 0 5 9 11 11 11 11 11 12 11 11 10 9 9 7 7 7 7 6 6 6 6 6 8 10 10 10 10 10 8 8 7 7 8 8 6 5 7 8 6 4 5
-1 2 5 8 9 11 11 11 11 11 11 10 10 9 8 8 7 5 3 0 -1 -2 -2 -2 0 5 9 10 10 10 10 8 8 6 5 7 8 8 8 8 8 7 5
5 4 5 7 9 9 10 11 10 11 10 10 10 9 8 7 4 1 -0 -1 -1 -1 1 0 -1 1 4 9 10 10 9 10 10 8 8 5 5 7 9 9 9 8 7
5 7 7 7 9 9 9 9 10 10 10 10 9 8 6 4 2 5 5 4 4 5 5 4 4 4 4 6 8 9 10 10 10 9 9 8 5 6 7 8 9 9 8
6 6 6 7 7 8 8 8 7 7 7 7 7 8 8 8 7 5 4 5 6 6 6 6 6 6 7 7 8 9 10 10 11 10 9 10 6 5 6 7 7 8 9
6 6 6 7 7 7 6 5 7 6 5 6 7 6 7 7 7 7 7 6 6 8 7 7 7 7 7 8 8 8 8 9 9 10 10 10 9 6 5 7 7 8 8
6 5 5 5 6 6 6 7 7 7 6 6 6 6 6 5 6 5 6 5 5 6 8 8 9 8 7 7 7 7 7 7 8 8 9 10 9 9 7 6 6 8 8
-2 -3 -4 -4 -8 -7 -6 -5 -3 -3 -3 -2 1 3 4 4 4 4 4 4 4 4 4 5 6 6 6 6 6 6 7 7 7 8 8 9 9 8 9 6 6 8 8
-4 -5 -6 -6 -5 -6 -8 -9 -11 -11 -11 -12 -11 -9 -7 -3 0 2 3 3 3 3 3 3 7 9 9 9 9 9 7 8 8 8 8 9 10 10 10 8 8 9 9
-11 -12 -12 -12 -12 -12 -13 -14 -16 -17 -17 -17 -16 -15 -14 -11 -8 -1 -1 -3 -0 2 2 3 4 5 5 6 7 9 10 9 9 9 10 9 10 10 9 8 8 8 8
-16 -17 -19 -22 -25 -28 -29 -29 -30 -29 -27 -27 -28 -26 -22 -20 -17 -15 -14 -10 -1 -0 0 2 3 2 2 3 4 5 8 8 9 9 9 10 10 10 9 9 9 8 7
-21 -26 -29 -30 -30 -31 -30 -30 -29 -27 -25 -25 -27 -27 -24 -22 -19 -18 -18 -18 -12 -5 -1 -4 -7 -6 -4 1 3 3 4 6 8 9 9 9 10 10 9 9 9 9 8
-27 -28 -29 -29 -29 -28 -26 -25 -24 -23 -23 -24 -26 -27 -28 -27 -25 -20 -19 -16 -14 -11 -4 -16 -18 -21 -16 -10 -2 2 2 2 5 7 8 8 8 9 9 9 9 9 8
-27 -29 -29 -28 -26 -23 -22 -22 -22 -21 -21 -21 -21 -23 -25 -26 -24 -23 -22 -17 -12 -11 -6 -10 -17 -22 -23 -21 -17 -7 0 -1 1 4 6 8 7 8 9 9 9 8 8
-28 -28 -27 -24 -22 -22 -21 -21 -21 -21 -20 -19 -19 -19 -21 -23 -24 -22 -19 -14 -13 -10 -9 -11 -15 -19 -23 -24 -22 -19 -11 -4 -2 -0 3 4 6 8 8 8 9 8 8
-28 -27 -24 -21 -20 -20 -20 -20 -19 -18 -17 -17 -17 -18 -18 -19 -20 -17 -15 -13 -11 -9 -9 -9 -10 -14 -18 -21 -18 -13 -18 -17 -11 -8 0 2 4 5 6 7 8 8 8
-27 -24 -21 -20 -20 -20 -20 -19 -18 -17 -15 -14 -14 -15 -16 -17 -17 -17 -15 -11 -9 -6 -6 -6 -7 -8 -11 -15 -14 -13 -13 -14 -19 -3 -5 -1 1 2 4 4 5 6 7
-26 -22 -20 -20 -20 -20 -20 -20 -19 -17 -15 -15 -14 -14 -15 -14 -15 -15 -16 -15 -7 -6 -6 -6 -6 -7 -8 -10 -10 -11 -10 -12 -12 -19 -15 -21 -18 -8 -2 2 3 4 5
-23 -20 -20 -20 -20 -20 -20 -19 -18 -17 -17 -16 -14 -14 -14 -14 -13 -15 -14 -10 -10 -10 -9 -7 -7 -8 -8 -8 -8 -8 -7 -8 -10 -18 -16 -20 -25 -25 -20 -8 -1 2 3
-21 -20 -20 -20 -21 -21 -21 -20 -18 -16 -15 -14 -14 -14 -14 -14 -15 -13 -8 -8 -10 -11 -10 -10 -10 -10 -9 -8 -7 -7 -6 -8 -9 -13 -15 -9 -23 -20 -23 -23 -14 -3 2
-20 -20 -20 -21 -21 -21 -20 -17 -15 -15 -15 -15 -15 -15 -13 -14 -15 -8 -8 -8 -9 -10 -11 -11 -11 -9 -9 -7 -8 -8 -8 -7 -8 -11 -14 -5 -5 -4 -9 -13 -10 -7 0
-20 -20 -20 -20 -20 -19 -16 -15 -14 -14 -14 -14 -14 -13 -12 -12 -10 -8 -8 -8 -8 -9 -10 -9 -10 -10 -10 -11 -11 -10 -8 -8 -10 -10 -8 -7 -8 -8 -9 -14 -5 -0 -2

GFSMA_850_dewp_120.txt.gz
Dewpoint
6 9 9 10 11 11 12 13 12 12 12 12 12 11 11 11 11 11 11 11 11 11 4 4 5 6 7 9 9 9 8 3 2 1 1 4 7 7 7 6 3 -1 -3
-7 -5 6 8 9 10 11 12 12 12 12 12 12 12 12 11 11 11 11 12 12 11 7 6 8 8 7 7 8 9 10 9 5 4 2 0 3 6 8 8 7 4 0
-3 -5 -7 4 8 9 11 12 12 12 11 11 11 11 11 11 11 11 11 11 11 11 12 9 9 10 10 10 9 8 9 9 9 5 5 4 1 1 4 8 8 8 5
1 -2 -4 -5 -0 8 9 11 12 11 11 10 11 11 11 11 9 8 8 9 8 7 6 6 4 3 4 8 10 10 10 8 8 9 7 7 7 4 2 2 6 7 9
2 -0 -1 -1 2 5 8 10 11 11 11 11 11 11 11 10 9 8 7 5 5 6 6 6 7 7 8 6 4 10 10 10 10 8 8 7 7 9 7 4 3 5 8
4 5 4 2 3 5 8 9 7 10 11 11 11 11 10 10 9 8 7 6 5 4 2 1 -0 -1 -2 -0 4 9 10 9 10 10 10 7 6 6 8 8 7 8 9
5 5 5 7 7 8 8 9 8 9 10 10 10 10 10 10 10 8 7 4 1 1 2 2 2 1 1 -1 0 4 9 10 10 10 10 10 8 6 6 7 8 8 9
5 5 5 6 7 7 8 8 8 7 8 8 7 7 7 7 5 4 4 5 4 2 2 4 5 5 5 5 4 3 5 7 10 10 10 10 9 10 9 6 6 8 8
5 4 5 5 4 5 6 6 6 6 6 6 6 7 6 7 5 5 4 5 5 5 5 5 5 6 7 7 6 6 6 7 8 9 10 10 10 10 10 9 7 6 7
5 5 5 5 6 6 6 6 6 6 7 6 6 7 7 6 6 5 5 5 4 5 5 5 5 6 7 7 7 7 6 6 6 7 8 9 10 10 10 10 10 8 6
0 0 -0 -1 0 2 -0 1 2 4 3 3 4 4 5 5 5 5 5 4 1 -1 3 4 4 4 5 6 8 8 9 9 9 7 7 7 9 9 10 10 10 10 6
-3 -4 -4 -4 -3 -3 -2 -2 -7 -8 -8 -10 -11 -10 -8 -2 2 2 2 2 2 -1 -6 -1 3 4 6 7 8 8 8 8 8 8 8 8 8 8 9 9 10 10 8
-9 -12 -13 -14 -13 -13 -13 -12 -11 -11 -12 -14 -15 -14 -13 -13 -12 -10 -6 -2 -5 -9 -7 -9 1 3 5 5 5 5 6 8 8 8 8 9 9 9 9 9 9 10 10
-15 -17 -20 -23 -25 -27 -28 -28 -28 -28 -28 -28 -28 -27 -24 -19 -15 -8 -6 -10 -9 -6 -6 -2 -10 -1 -0 -2 -1 1 4 4 5 7 8 8 10 9 9 9 10 10 10
-18 -22 -27 -28 -28 -27 -26 -26 -25 -25 -25 -26 -28 -28 -29 -29 -29 -28 -27 -22 -15 -2 -4 -16 -5 -18 -19 -22 -22 -15 1 2 4 4 6 9 9 9 10 10 10 10 10
-21 -27 -29 -30 -30 -29 -28 -26 -24 -23 -23 -23 -23 -25 -26 -27 -26 -23 -21 -19 -15 -6 -4 -12 -15 -14 -21 -24 -25 -24 -16 0 1 3 4 4 8 9 9 9 9 10 9
-23 -29 -31 -31 -31 -29 -26 -24 -24 -23 -23 -22 -21 -21 -22 -24 -25 -24 -22 -20 -15 -8 -6 -8 -15 -19 -20 -21 -25 -25 -23 -16 -1 -1 3 2 4 6 8 8 9 10 10
-24 -28 -29 -29 -25 -23 -22 -22 -22 -21 -20 -20 -19 -19 -19 -20 -22 -23 -21 -18 -14 -13 -8 -6 -15 -16 -16 -16 -18 -20 -20 -21 -16 -10 -1 2 2 3 6 8 8 9 9
-25 -29 -29 -27 -23 -22 -21 -20 -20 -20 -18 -18 -18 -18 -18 -19 -19 -20 -20 -19 -17 -14 -11 -7 -9 -14 -14 -14 -15 -16 -18 -20 -24 -21 -12 -3 2 2 3 5 7 7 9
-26 -29 -28 -24 -21 -21 -21 -21 -20 -19 -18 -18 -17 -17 -17 -18 -19 -19 -19 -18 -16 -13 -11 -9 -8 -9 -12 -13 -13 -14 -17 -16 -19 -21 -20 -11 -5 -1 1 2 3 5 7
-27 -28 -25 -21 -21 -21 -20 -21 -21 -19 -17 -17 -16 -15 -15 -15 -14 -14 -13 -14 -11 -9 -10 -9 -7 -7 -8 -10 -10 -10 -11 -13 -18 -16 -18 -22 -25 -24 -12 -3 0 3 4
-27 -27 -22 -21 -20 -20 -21 -20 -20 -19 -19 -17 -17 -15 -14 -13 -14 -14 -15 -14 -7 -8 -7 -7 -8 -8 -10 -10 -10 -9 -8 -7 -7 -12 -12 -18 -19 -22 -24 -23 -16 -0 2
-27 -24 -21 -20 -20 -21 -21 -20 -19 -19 -16 -15 -15 -15 -15 -15 -15 -15 -16 -13 -10 -10 -9 -9 -10 -10 -10 -9 -8 -7 -7 -7 -8 -9 -9 -11 -18 -18 -20 -23 -17 -16 -5
-27 -22 -21 -20 -21 -21 -20 -19 -18 -16 -15 -15 -15 -15 -15 -15 -14 -14 -10 -9 -10 -10 -10 -11 -10 -10 -8 -8 -8 -8 -8 -8 -8 -10 -10 -10 -12 -7 -11 -12 -2 -2 -6
-24 -21 -20 -20 -21 -21 -20 -18 -15 -15 -15 -15 -14 -14 -12 -11 -12 -8 -8 -8 -9 -9 -10 -11 -10 -10 -10 -9 -10 -12 -12 -9 -9 -10 -11 -7 -8 -11 -15 -21 -12 -1 -1
-22 -21 -20 -20 -21 -21 -19 -15 -14 -14 -14 -13 -13 -12 -11 -10 -9 -8 -8 -8 -8 -9 -9 -8 -9 -10 -11 -12 -13 -13 -10 -9 -8 -8 -10 -9 -11 -10 -10 -17 -13 -10 -6

GFSMA_850_dewp_123.txt.gz
Dewpoint
-9 -11 -7 5 8 9 9 10 11 11 12 12 12 12 12 12 11 11 11 11 11 11 11 11 7 4 5 7 8 8 9 9 7 3 2 1 2 5 6 6 5 3 -2
-4 -5 -6 -8 -8 3 8 7 9 10 11 12 12 12 12 12 12 11 11 11 11 12 12 11 9 4 4 7 7 7 7 8 10 9 7 4 2 2 5 7 7 7 5
-3 -2 -1 -2 -5 -7 -5 7 8 6 10 10 12 11 11 12 12 11 11 11 11 11 11 11 11 9 9 10 11 11 10 10 8 9 9 8 6 5 1 3 6 7 8
0 1 0 -1 -2 -3 -4 -4 6 8 8 9 10 11 11 11 11 11 11 11 10 9 9 9 8 8 7 7 6 5 8 7 9 11 9 9 8 8 8 4 2 2 5
2 3 3 2 1 -2 2 5 7 8 8 9 10 10 10 11 11 11 10 9 8 7 7 9 9 9 9 10 9 10 7 4 4 9 11 10 9 8 8 9 8 4 3
3 3 4 5 6 5 7 7 8 8 9 9 8 8 10 10 11 11 10 10 9 8 7 6 5 4 4 3 3 3 4 8 8 5 10 10 11 10 8 8 8 9 7
4 4 4 4 4 5 6 6 6 6 8 9 8 7 8 9 10 10 10 10 8 6 6 6 5 4 4 3 3 3 4 5 4 6 9 9 10 11 11 9 7 6 8
5 4 3 3 4 4 4 6 6 5 5 6 6 6 5 4 5 6 6 6 6 5 5 5 4 4 4 3 3 4 5 6 7 8 8 8 10 10 10 11 10 7 6
4 5 4 4 4 5 4 4 5 6 6 6 6 6 6 5 5 4 5 5 5 5 5 5 4 4 3 4 6 8 8 7 7 7 8 8 9 10 10 10 10 10 10
0 0 0 -0 0 1 1 1 -1 2 3 4 6 6 6 7 6 6 6 6 5 5 5 3 3 4 4 4 5 8 8 8 8 8 8 8 9 9 9 9 10 10 10
-3 -3 -3 -3 -2 -2 -1 -0 -2 -5 -6 -8 -9 -7 -1 4 5 5 4 3 -2 -7 -11 -11 -10 -0 3 4 6 6 6 6 7 7 8 8 8 9 10 10 10 10 10
-7 -10 -13 -14 -14 -13 -11 -11 -9 -10 -11 -12 -14 -13 -12 -9 -6 -4 -3 -4 -7 -17 -25 -18 1 -1 0 2 4 4 5 4 4 6 7 7 8 7 8 9 9 10 10
-15 -16 -19 -22 -25 -28 -28 -29 -28 -28 -28 -28 -27 -26 -24 -20 -17 -15 -6 -4 -9 -22 -21 -24 -7 -8 -14 -8 -14 -13 -10 -4 1 4 4 5 6 6 7 8 9 9 10
-17 -20 -25 -29 -30 -31 -31 -31 -31 -32 -31 -31 -30 -29 -28 -27 -23 -20 -16 -13 -9 -6 -7 -14 -16 -22 -23 -25 -28 -29 -30 -29 -25 -1 3 3 4 5 7 8 8 9 10
-18 -23 -28 -30 -31 -31 -31 -29 -27 -26 -25 -25 -25 -26 -26 -27 -27 -26 -21 -16 -11 -5 -5 -11 -16 -27 -25 -26 -27 -27 -28 -30 -30 -30 -11 2 3 3 3 6 8 8 9
-17 -23 -28 -30 -30 -30 -28 -25 -24 -23 -23 -23 -22 -22 -23 -23 -24 -25 -25 -24 -19 -11 -5 -21 -22 -19 -18 -19 -21 -22 -24 -26 -28 -27 -28 -13 1 3 2 3 5 8 9
-16 -23 -29 -30 -30 -27 -24 -23 -22 -22 -21 -21 -20 -20 -20 -21 -21 -22 -23 -23 -21 -13 -5 -11 -19 -19 -16 -15 -18 -18 -20 -22 -23 -25 -26 -24 -12 0 2 2 3 4 7
-14 -21 -29 -30 -29 -24 -22 -22 -22 -21 -21 -20 -19 -18 -18 -18 -18 -19 -19 -19 -18 -14 -10 -6 -10 -14 -15 -14 -15 -18 -19 -20 -21 -22 -22 -24 -22 -18 -5 2 2 2 3
-13 -20 -28 -30 -26 -23 -22 -22 -22 -21 -21 -20 -20 -19 -19 -19 -19 -19 -19 -18 -17 -17 -14 -9 -7 -12 -13 -15 -15 -16 -18 -19 -19 -20 -21 -20 -21 -22 -23 -17 0 3 2
-11 -19 -28 -28 -23 -21 -21 -21 -21 -21 -20 -19 -18 -18 -17 -16 -16 -15 -15 -14 -14 -12 -10 -8 -7 -7 -7 -12 -13 -11 -13 -11 -16 -16 -16 -17 -21 -23 -23 -23 -24 -2 2
-10 -18 -27 -25 -22 -21 -21 -22 -22 -21 -19 -18 -17 -16 -15 -14 -14 -14 -13 -14 -13 -7 -7 -7 -7 -7 -7 -8 -9 -9 -8 -10 -8 -8 -13 -17 -19 -20 -24 -25 -23 -25 -12
-9 -18 -27 -23 -21 -21 -21 -22 -22 -22 -21 -19 -16 -15 -14 -14 -15 -15 -15 -15 -13 -7 -7 -7 -7 -7 -8 -8 -8 -7 -8 -7 -7 -8 -8 -16 -15 -17 -19 -21 -16 -10 -12
-9 -20 -26 -21 -21 -21 -22 -23 -21 -21 -20 -17 -16 -15 -15 -15 -15 -14 -14 -14 -13 -11 -8 -8 -8 -9 -9 -8 -8 -8 -8 -8 -8 -13 -10 -9 -16 -14 -16 -19 -19 -3 -2
-10 -23 -25 -21 -21 -21 -22 -21 -21 -20 -17 -15 -15 -15 -14 -14 -13 -12 -11 -9 -9 -10 -10 -9 -10 -10 -9 -8 -8 -8 -9 -11 -12 -14 -10 -8 -13 -8 -15 -17 -18 -18 -3
-12 -25 -23 -21 -21 -21 -21 -21 -20 -16 -15 -15 -14 -13 -12 -11 -10 -8 -8 -8 -8 -9 -10 -10 -9 -8 -8 -8 -8 -10 -10 -11 -11 -13 -15 -9 -8 -9 -12 -16 -17 -16 -13
-16 -25 -21 -21 -21 -22 -21 -21 -17 -15 -14 -14 -14 -12 -10 -10 -8 -8 -7 -8 -8 -8 -9 -9 -8 -9 -10 -10 -11 -13 -13 -11 -10 -10 -11 -9 -8 -8 -8 -11 -15 -17 -18

GFSMA_850_dewp_126.txt.gz
Dewpoint
-6 -6 -6 -5 -1 3 7 9 8 7 8 9 11 11 13 12 12 12 11 12 11 11 11 11 11 11 8 4 6 7 8 8 9 9 8 3 2 1 3 6 6 5 3
-5 -5 -3 3 4 4 5 6 8 10 9 6 8 9 10 12 12 12 12 12 11 11 11 11 11 11 11 6 5 6 7 7 8 8 9 10 8 4 2 2 6 7 6
-2 -2 -2 -1 4 7 7 7 7 6 6 9 8 7 9 10 11 11 12 12 12 10 11 12 12 11 12 9 9 10 11 11 11 11 10 10 10 9 7 5 2 4 7
-1 0 0 1 0 6 7 7 7 4 4 9 9 8 8 10 10 10 11 11 12 11 11 11 11 11 12 10 8 8 9 8 9 10 11 10 11 11 10 9 8 5 2
1 2 3 4 4 5 5 5 7 8 7 9 10 9 8 9 9 10 10 11 11 11 10 10 10 10 10 9 9 9 9 9 9 8 8 9 8 11 11 10 10 9 8
3 3 3 3 3 3 4 6 6 7 6 7 8 9 9 7 9 10 10 11 11 10 10 10 10 10 7 6 6 6 6 6 6 7 9 10 8 7 9 11 10 8 7
4 4 3 3 4 4 4 4 6 6 7 5 6 8 8 5 5 6 8 10 9 9 9 9 8 8 9 8 8 8 5 5 5 6 8 8 8 11 10 6 10 11 9
4 4 3 3 4 4 4 4 4 5 5 6 6 7 7 7 7 6 6 6 6 5 6 6 6 5 4 5 5 6 6 6 5 6 6 8 8 9 8 10 11 10 11
2 3 2 0 0 0 1 2 1 2 2 4 5 6 6 6 6 7 6 6 7 6 6 7 7 6 7 6 3 3 4 6 7 7 8 8 8 8 9 9 9 11 12
-1 -2 -2 -2 -2 -2 -1 -1 -1 -2 -4 -5 -3 -1 5 5 5 6 6 6 5 3 -1 -8 -8 -4 1 3 5 4 3 4 6 7 7 7 7 8 8 8 9 10 10
-5 -6 -9 -13 -14 -16 -14 -12 -12 -11 -10 -11 -12 -12 -10 -0 3 3 2 0 -3 -2 -18 -28 1 2 -1 1 1 1 3 4 5 5 5 5 6 6 7 7 8 9 10
-14 -15 -17 -21 -25 -27 -28 -29 -29 -29 -29 -28 -28 -26 -21 -7 -1 -2 -3 -4 -4 -8 -27 1 -0 -3 -12 -11 -13 -19 -20 -14 -8 -6 -3 4 5 4 5 5 6 7 8
-16 -19 -22 -27 -30 -30 -31 -31 -31 -31 -31 -30 -30 -28 -27 -23 -18 -9 -4 -6 -7 -9 -6 -5 -1 -7 -18 -25 -28 -29 -30 -31 -31 -31 -25 -13 -0 3 4 4 4 4 5
-16 -19 -24 -29 -30 -30 -31 -30 -29 -27 -27 -26 -26 -26 -25 -24 -23 -7 -4 -6 -8 -8 -8 -4 -5 -5 -18 -26 -27 -28 -28 -28 -29 -30 -32 -32 -31 -10 2 3 3 3 3
-15 -18 -24 -29 -30 -31 -30 -27 -24 -23 -23 -23 -23 -23 -22 -22 -22 -22 -16 -6 -6 -7 -9 -8 -6 -5 -5 -11 -16 -22 -24 -26 -26 -27 -27 -30 -32 -28 -24 -3 3 3 2
-13 -16 -22 -28 -30 -30 -27 -23 -23 -23 -23 -22 -22 -21 -20 -20 -20 -20 -20 -12 -7 -5 -6 -8 -7 -7 -5 -6 -8 -19 -22 -24 -26 -26 -25 -25 -25 -29 -30 -28 -8 2 2
-11 -14 -20 -27 -29 -28 -24 -23 -23 -22 -22 -22 -22 -22 -22 -22 -21 -21 -20 -16 -7 -5 -5 -8 -7 -6 -11 -11 -13 -15 -19 -18 -20 -24 -24 -25 -25 -25 -26 -28 -27 -14 0
-8 -11 -16 -25 -29 -26 -22 -22 -22 -22 -22 -21 -21 -21 -20 -20 -20 -20 -19 -16 -9 -6 -6 -6 -6 -6 -6 -6 -14 -19 -19 -17 -17 -21 -25 -24 -23 -22 -24 -25 -25 -26 -25
-7 -8 -13 -23 -28 -25 -22 -22 -22 -22 -22 -21 -20 -20 -20 -19 -17 -15 -15 -11 -8 -7 -6 -5 -6 -6 -6 -6 -6 -13 -13 -13 -11 -16 -19 -22 -24 -24 -24 -24 -26 -25 -26
-6 -7 -10 -19 -28 -24 -22 -22 -22 -22 -22 -22 -22 -21 -19 -17 -16 -14 -8 -7 -6 -6 -6 -6 -6 -6 -7 -7 -7 -7 -7 -7 -9 -16 -10 -10 -20 -25 -26 -24 -24 -22 -20
-6 -7 -8 -16 -27 -23 -22 -22 -23 -23 -23 -21 -20 -19 -17 -16 -15 -15 -14 -8 -7 -7 -6 -6 -6 -7 -7 -7 -7 -7 -7 -7 -7 -7 -7 -7 -11 -15 -21 -24 -23 -20 -18
-5 -5 -7 -14 -27 -23 -22 -22 -23 -21 -21 -20 -17 -16 -16 -16 -15 -15 -15 -14 -13 -7 -7 -7 -7 -7 -8 -8 -8 -7 -7 -7 -7 -8 -8 -8 -8 -9 -13 -17 -21 -21 -20
-4 -5 -7 -14 -26 -22 -21 -22 -24 -22 -22 -20 -18 -16 -16 -15 -15 -14 -13 -10 -8 -7 -7 -7 -7 -7 -7 -7 -7 -7 -7 -7 -8 -8 -8 -9 -9 -8 -8 -8 -21 -20 -18
-3 -5 -6 -14 -25 -22 -21 -22 -23 -22 -21 -18 -16 -15 -15 -14 -13 -12 -8 -7 -7 -7 -7 -7 -7 -7 -8 -7 -8 -8 -8 -8 -8 -9 -9 -9 -9 -8 -8 -9 -15 -18 -18
-3 -4 -7 -15 -25 -21 -21 -22 -22 -21 -19 -16 -15 -14 -14 -13 -9 -8 -7 -7 -7 -7 -7 -7 -7 -8 -8 -8 -8 -8 -9 -9 -9 -9 -9 -9 -8 -9 -10 -11 -8 -11 -18
-3 -5 -7 -19 -23 -21 -21 -22 -22 -20 -17 -14 -13 -12 -11 -11 -9 -8 -7 -7 -7 -7 -8 -8 -8 -8 -8 -8 -9 -9 -9 -9 -9 -9 -10 -9 -10 -9 -9 -9 -8 -9 -12